Time,TemperatureF,DewpointF,PressureIn,WindDirection,WindDirectionDegrees,WindSpeedMPH,WindSpeedGustMPH,Humidity,HourlyPrecipIn,Conditions,Clouds,dailyrainin,SoftwareType,DateUTC
2013-05-17 00:00:00,54.5,46.4,29.85,ESE,112,2.9,4.9,74,0.00,,---,0.59,VWS V14.01,2013-05-17 07:00:00,
2013-05-17 00:01:00,57.0,46.6,29.74,ESE,112,2.0,2.9,68,0.00,,---,0.00,VWS V14.01,2013-05-17 07:01:00,
2013-05-17 00:02:00,56.8,46.4,29.74,South,180,2.0,2.9,68,0.00,,---,0.00,VWS V14.01,2013-05-17 07:02:00,
2013-05-17 00:03:00,56.8,46.4,29.74,SSW,202,0.0,2.0,68,0.00,,---,0.00,VWS V14.01,2013-05-17 07:03:00,
2013-05-17 00:04:00,56.8,46.4,29.74,ESE,112,2.0,3.4,68,0.00,,---,0.00,VWS V14.01,2013-05-17 07:04:00,
2013-05-17 00:05:00,56.8,46.4,29.74,SSE,158,0.9,3.6,68,0.00,,---,0.00,VWS V14.01,2013-05-17 07:05:00,
2013-05-17 00:06:00,56.8,46.4,29.74,ESE,112,2.2,2.5,68,0.00,,---,0.00,VWS V14.01,2013-05-17 07:06:00,
2013-05-17 00:07:00,56.8,46.4,29.74,SE,135,0.9,2.5,68,0.00,,---,0.00,VWS V14.01,2013-05-17 07:07:00,
2013-05-17 00:08:00,56.8,46.4,29.74,East,90,1.3,2.5,68,0.00,,---,0.00,VWS V14.01,2013-05-17 07:08:00,
2013-05-17 00:09:00,56.8,46.4,29.74,SSE,158,2.0,3.1,68,0.00,,---,0.00,VWS V14.01,2013-05-17 07:09:00,
2013-05-17 00:10:00,56.8,46.4,29.74,South,180,2.0,2.0,68,0.00,,---,0.00,VWS V14.01,2013-05-17 07:10:00,
2013-05-17 00:11:00,56.7,46.2,29.74,SSE,158,2.0,2.7,68,0.00,,---,0.00,VWS V14.01,2013-05-17 07:11:00,
2013-05-17 00:12:00,56.7,46.2,29.74,ESE,112,0.0,2.7,68,0.00,,---,0.00,VWS V14.01,2013-05-17 07:12:00,
2013-05-17 00:13:00,56.7,46.2,29.74,SE,135,2.2,2.2,68,0.00,,---,0.00,VWS V14.01,2013-05-17 07:13:00,
2013-05-17 00:14:00,56.7,46.2,29.74,SSE,158,0.0,2.2,68,0.00,,---,0.00,VWS V14.01,2013-05-17 07:14:00,
2013-05-17 00:15:00,56.7,46.2,29.74,SSE,158,0.0,1.3,68,0.00,,---,0.00,VWS V14.01,2013-05-17 07:15:00,
2013-05-17 00:16:00,56.7,46.2,29.74,WSW,248,2.7,4.7,68,0.00,,---,0.59,VWS V14.01,2013-05-17 07:16:00,
2013-05-17 00:17:00,56.7,46.6,29.74,South,180,2.2,4.7,69,0.00,,---,0.00,VWS V14.01,2013-05-17 07:17:00,
2013-05-17 00:18:00,56.7,46.2,29.74,SE,135,2.0,2.5,68,0.00,,---,0.00,VWS V14.01,2013-05-17 07:18:00,
2013-05-17 00:19:00,56.7,46.2,29.74,SE,135,1.6,2.0,68,0.00,,---,0.00,VWS V14.01,2013-05-17 07:19:00,
2013-05-17 00:20:00,56.7,46.2,29.74,SE,135,0.0,1.6,68,0.00,,---,0.00,VWS V14.01,2013-05-17 07:20:00,
2013-05-17 00:21:00,56.5,46.1,29.74,SE,135,0.0,0.0,68,0.00,,---,0.00,VWS V14.01,2013-05-17 07:21:00,
2013-05-17 00:22:00,56.5,46.1,29.74,SE,135,0.0,0.0,68,0.00,,---,0.00,VWS V14.01,2013-05-17 07:22:00,
2013-05-17 00:23:00,56.5,46.1,29.74,SSE,158,2.9,2.9,68,0.00,,---,0.00,VWS V14.01,2013-05-17 07:23:00,
2013-05-17 00:24:00,56.5,46.1,29.74,SE,135,2.0,3.8,68,0.00,,---,0.00,VWS V14.01,2013-05-17 07:24:00,
2013-05-17 00:25:00,56.5,46.1,29.74,SE,135,0.0,2.0,68,0.00,,---,0.00,VWS V14.01,2013-05-17 07:25:00,
2013-05-17 00:26:00,56.5,46.1,29.74,SE,135,0.0,0.0,68,0.00,,---,0.00,VWS V14.01,2013-05-17 07:26:00,
2013-05-17 00:27:00,56.5,46.1,29.74,SE,135,0.0,0.0,68,0.00,,---,0.00,VWS V14.01,2013-05-17 07:27:00,
2013-05-17 00:28:00,56.5,46.1,29.74,SSE,158,2.0,2.0,68,0.00,,---,0.00,VWS V14.01,2013-05-17 07:28:00,
2013-05-17 00:29:00,56.5,46.1,29.74,SSE,158,1.3,2.0,68,0.00,,---,0.00,VWS V14.01,2013-05-17 07:29:00,
2013-05-17 00:30:00,56.5,46.1,29.74,SSE,158,1.3,1.3,68,0.00,,---,0.00,VWS V14.01,2013-05-17 07:30:00,
2013-05-17 00:31:00,56.5,46.1,29.76,SSE,158,0.0,1.1,68,0.00,,---,0.00,VWS V14.01,2013-05-17 07:31:00,
2013-05-17 00:32:00,56.5,46.1,29.76,SSE,158,0.0,1.1,68,0.00,,---,0.00,VWS V14.01,2013-05-17 07:32:00,
2013-05-17 00:33:00,56.5,46.5,29.76,SE,135,0.0,0.0,69,0.00,,---,0.00,VWS V14.01,2013-05-17 07:33:00,
2013-05-17 00:34:00,56.5,46.5,29.76,SE,135,0.0,0.0,69,0.00,,---,0.00,VWS V14.01,2013-05-17 07:34:00,
2013-05-17 00:35:00,56.5,46.5,29.76,SSW,202,1.3,2.2,69,0.00,,---,0.00,VWS V14.01,2013-05-17 07:35:00,
2013-05-17 00:36:00,56.3,45.9,29.76,SSW,202,0.0,0.9,68,0.00,,---,0.00,VWS V14.01,2013-05-17 07:36:00,
2013-05-17 00:37:00,56.3,46.3,29.76,SSW,202,0.0,0.9,69,0.00,,---,0.00,VWS V14.01,2013-05-17 07:37:00,
2013-05-17 00:38:00,56.3,46.3,29.76,SSE,158,1.3,1.3,69,0.00,,---,0.00,VWS V14.01,2013-05-17 07:38:00,
2013-05-17 00:39:00,56.3,45.9,29.76,SSW,202,2.5,2.5,68,0.00,,---,0.00,VWS V14.01,2013-05-17 07:39:00,
2013-05-17 00:40:00,56.3,45.9,29.76,ESE,112,1.6,2.7,68,0.00,,---,0.00,VWS V14.01,2013-05-17 07:40:00,
2013-05-17 00:41:00,56.3,46.3,29.76,SSE,158,0.0,0.9,69,0.00,,---,0.00,VWS V14.01,2013-05-17 07:41:00,
2013-05-17 00:42:00,56.3,46.3,29.76,SSE,158,0.0,0.9,69,0.00,,---,0.00,VWS V14.01,2013-05-17 07:42:00,
2013-05-17 00:43:00,56.3,45.9,29.76,WSW,248,1.6,1.6,68,0.00,,---,0.00,VWS V14.01,2013-05-17 07:43:00,
2013-05-17 00:44:00,56.3,45.9,29.76,SSW,202,0.9,1.6,68,0.00,,---,0.00,VWS V14.01,2013-05-17 07:44:00,
2013-05-17 00:45:00,56.1,46.1,29.76,SSW,202,0.0,0.9,69,0.00,,---,0.00,VWS V14.01,2013-05-17 07:45:00,
2013-05-17 00:46:00,56.1,46.1,29.74,South,180,1.6,1.6,69,0.00,,---,0.00,VWS V14.01,2013-05-17 07:46:00,
2013-05-17 00:47:00,56.1,46.1,29.74,South,180,1.1,1.6,69,0.00,,---,0.00,VWS V14.01,2013-05-17 07:47:00,
2013-05-17 00:48:00,56.1,45.7,29.74,South,180,1.1,2.5,68,0.00,,---,0.00,VWS V14.01,2013-05-17 07:48:00,
2013-05-17 00:49:00,56.1,46.1,29.74,South,180,1.3,1.6,69,0.00,,---,0.00,VWS V14.01,2013-05-17 07:49:00,
2013-05-17 00:50:00,56.1,46.1,29.74,South,180,1.1,2.2,69,0.00,,---,0.00,VWS V14.01,2013-05-17 07:50:00,
2013-05-17 00:51:00,55.9,45.9,29.74,SE,135,0.0,0.0,69,0.00,,---,0.00,VWS V14.01,2013-05-17 07:51:00,
2013-05-17 00:52:00,55.9,45.9,29.74,ESE,112,0.0,0.0,69,0.00,,---,0.00,VWS V14.01,2013-05-17 07:52:00,
2013-05-17 00:53:00,55.9,45.9,29.74,SE,135,0.0,0.0,69,0.00,,---,0.00,VWS V14.01,2013-05-17 07:53:00,
2013-05-17 00:54:00,55.9,45.9,29.74,South,180,2.9,2.9,69,0.00,,---,0.00,VWS V14.01,2013-05-17 07:54:00,
2013-05-17 00:55:00,55.9,45.9,29.74,SSE,158,1.1,2.9,69,0.00,,---,0.00,VWS V14.01,2013-05-17 07:55:00,
2013-05-17 00:56:00,55.9,45.9,29.74,SSE,158,0.0,0.0,69,0.00,,---,0.00,VWS V14.01,2013-05-17 07:56:00,
2013-05-17 00:57:00,55.9,45.9,29.74,SSE,158,0.0,0.0,69,0.00,,---,0.00,VWS V14.01,2013-05-17 07:57:00,
2013-05-17 00:58:00,55.9,45.9,29.74,ESE,112,1.3,2.2,69,0.00,,---,0.00,VWS V14.01,2013-05-17 07:58:00,
2013-05-17 00:59:00,55.9,45.9,29.74,ESE,112,1.1,1.6,69,0.00,,---,0.00,VWS V14.01,2013-05-17 07:59:00,
2013-05-17 01:00:00,55.9,45.9,29.74,ESE,112,1.1,1.1,69,0.00,,---,0.00,VWS V14.01,2013-05-17 08:00:00,
2013-05-17 01:01:00,55.9,45.9,29.74,South,180,1.1,1.1,69,0.00,,---,0.00,VWS V14.01,2013-05-17 08:01:00,
2013-05-17 01:02:00,55.9,45.9,29.74,East,90,1.1,1.3,69,0.00,,---,0.00,VWS V14.01,2013-05-17 08:02:00,
2013-05-17 01:03:00,55.9,45.9,29.74,East,90,0.9,1.3,69,0.00,,---,0.00,VWS V14.01,2013-05-17 08:03:00,
2013-05-17 01:04:00,55.9,45.9,29.74,SSE,158,4.0,4.0,69,0.00,,---,0.00,VWS V14.01,2013-05-17 08:04:00,
2013-05-17 01:05:00,55.9,45.9,29.74,SSE,158,1.6,4.0,69,0.00,,---,0.00,VWS V14.01,2013-05-17 08:05:00,
2013-05-17 01:06:00,55.8,46.1,29.74,SSE,158,1.3,1.6,70,0.00,,---,0.00,VWS V14.01,2013-05-17 08:06:00,
2013-05-17 01:07:00,55.8,46.1,29.74,SSE,158,2.0,2.0,70,0.00,,---,0.00,VWS V14.01,2013-05-17 08:07:00,
2013-05-17 01:08:00,55.8,46.1,29.74,SE,135,0.0,4.3,70,0.00,,---,0.00,VWS V14.01,2013-05-17 08:08:00,
2013-05-17 01:09:00,55.6,46.3,29.74,SE,135,0.0,0.9,71,0.00,,---,0.00,VWS V14.01,2013-05-17 08:09:00,
2013-05-17 01:10:00,55.6,46.3,29.74,ESE,112,2.5,2.5,71,0.00,,---,0.00,VWS V14.01,2013-05-17 08:10:00,
2013-05-17 01:11:00,55.6,46.3,29.74,SSE,158,2.7,3.4,71,0.00,,---,0.00,VWS V14.01,2013-05-17 08:11:00,
2013-05-17 01:12:00,55.6,46.3,29.74,SSW,202,0.9,3.4,71,0.00,,---,0.00,VWS V14.01,2013-05-17 08:12:00,
2013-05-17 01:13:00,55.4,46.5,29.74,ENE,68,2.0,2.0,72,0.00,,---,0.00,VWS V14.01,2013-05-17 08:13:00,
2013-05-17 01:14:00,55.4,46.2,29.74,ENE,68,0.0,2.0,71,0.00,,---,0.00,VWS V14.01,2013-05-17 08:14:00,
2013-05-17 01:15:00,55.4,46.2,29.74,SSE,158,1.6,1.6,71,0.00,,---,0.00,VWS V14.01,2013-05-17 08:15:00,
2013-05-17 01:16:00,55.4,46.2,29.71,South,180,2.9,2.9,71,0.00,,---,0.00,VWS V14.01,2013-05-17 08:16:00,
2013-05-17 01:17:00,55.2,46.4,29.71,SE,135,3.6,4.3,72,0.00,,---,0.00,VWS V14.01,2013-05-17 08:17:00,
2013-05-17 01:18:00,55.2,46.4,29.71,ESE,112,1.3,3.6,72,0.00,,---,0.00,VWS V14.01,2013-05-17 08:18:00,
2013-05-17 01:19:00,55.2,46.4,29.71,SE,135,2.0,2.7,72,0.00,,---,0.00,VWS V14.01,2013-05-17 08:19:00,
2013-05-17 01:20:00,55.2,46.4,29.71,SSE,158,0.0,2.0,72,0.00,,---,0.00,VWS V14.01,2013-05-17 08:20:00,
2013-05-17 01:21:00,55.0,46.2,29.71,SE,135,1.6,1.6,72,0.00,,---,0.00,VWS V14.01,2013-05-17 08:21:00,
2013-05-17 01:22:00,55.0,46.2,29.71,SSE,158,2.7,3.4,72,0.00,,---,0.00,VWS V14.01,2013-05-17 08:22:00,
2013-05-17 01:23:00,55.0,46.6,29.71,SSE,158,2.9,2.9,73,0.00,,---,0.00,VWS V14.01,2013-05-17 08:23:00,
2013-05-17 01:24:00,55.0,46.6,29.71,SE,135,1.1,3.4,73,0.00,,---,0.00,VWS V14.01,2013-05-17 08:24:00,
2013-05-17 01:25:00,55.0,46.6,29.71,SSE,158,3.1,3.1,73,0.00,,---,0.00,VWS V14.01,2013-05-17 08:25:00,
2013-05-17 01:26:00,55.0,46.5,29.71,SE,135,0.0,0.0,73,0.00,,---,0.00,VWS V14.01,2013-05-17 08:26:00,
2013-05-17 01:27:00,54.9,46.4,29.71,SSW,202,2.7,3.1,73,0.00,,---,0.00,VWS V14.01,2013-05-17 08:27:00,
2013-05-17 01:28:00,54.9,46.4,29.71,SSE,158,4.3,4.3,73,0.00,,---,0.00,VWS V14.01,2013-05-17 08:28:00,
2013-05-17 01:29:00,54.9,46.4,29.71,SSE,158,1.3,4.3,73,0.00,,---,0.00,VWS V14.01,2013-05-17 08:29:00,
2013-05-17 01:30:00,54.9,46.7,29.71,South,180,2.5,2.5,74,0.00,,---,0.00,VWS V14.01,2013-05-17 08:30:00,
2013-05-17 01:31:00,54.9,46.7,29.74,NE,45,2.0,2.0,74,0.00,,---,0.00,VWS V14.01,2013-05-17 08:31:00,
2013-05-17 01:32:00,54.9,46.7,29.74,SE,135,0.9,2.5,74,0.00,,---,0.00,VWS V14.01,2013-05-17 08:32:00,
2013-05-17 01:33:00,54.9,46.7,29.74,SSE,158,1.6,2.5,74,0.00,,---,0.00,VWS V14.01,2013-05-17 08:33:00,
2013-05-17 01:34:00,54.7,46.6,29.74,SSE,158,0.0,3.1,74,0.00,,---,0.00,VWS V14.01,2013-05-17 08:34:00,
2013-05-17 01:35:00,54.7,46.6,29.74,East,90,1.3,1.6,74,0.00,,---,0.00,VWS V14.01,2013-05-17 08:35:00,
2013-05-17 01:36:00,54.7,46.6,29.74,ESE,112,1.3,1.3,74,0.00,,---,0.00,VWS V14.01,2013-05-17 08:36:00,
2013-05-17 01:37:00,54.7,46.6,29.74,East,90,1.1,1.3,74,0.00,,---,0.00,VWS V14.01,2013-05-17 08:37:00,
2013-05-17 01:38:00,54.7,46.6,29.74,SE,135,0.9,1.6,74,0.00,,---,0.00,VWS V14.01,2013-05-17 08:38:00,
2013-05-17 01:39:00,54.7,46.6,29.74,ESE,112,0.0,0.9,74,0.00,,---,0.00,VWS V14.01,2013-05-17 08:39:00,
2013-05-17 01:40:00,54.7,46.6,29.74,NE,45,1.3,2.2,74,0.00,,---,0.00,VWS V14.01,2013-05-17 08:40:00,
2013-05-17 01:41:00,54.5,46.4,29.74,ENE,68,2.2,2.2,74,0.00,,---,0.00,VWS V14.01,2013-05-17 08:41:00,
2013-05-17 01:42:00,54.5,46.8,29.74,East,90,1.3,2.2,75,0.00,,---,0.00,VWS V14.01,2013-05-17 08:42:00,
2013-05-17 01:43:00,54.5,46.8,29.74,West,270,2.0,2.0,75,0.00,,---,0.00,VWS V14.01,2013-05-17 08:43:00,
2013-05-17 01:44:00,54.5,47.1,29.74,SSE,158,3.1,3.1,76,0.00,,---,0.00,VWS V14.01,2013-05-17 08:44:00,
2013-05-17 01:45:00,54.3,46.9,29.74,SE,135,2.5,4.7,76,0.00,,---,0.00,VWS V14.01,2013-05-17 08:45:00,
2013-05-17 01:46:00,54.3,47.3,29.74,SE,135,3.8,3.8,77,0.00,,---,0.00,VWS V14.01,2013-05-17 08:46:00,
2013-05-17 01:47:00,54.1,47.1,29.74,East,90,2.2,3.8,77,0.00,,---,0.00,VWS V14.01,2013-05-17 08:47:00,
2013-05-17 01:48:00,54.1,47.1,29.74,SE,135,1.1,2.2,77,0.00,,---,0.00,VWS V14.01,2013-05-17 08:48:00,
2013-05-17 01:49:00,54.0,46.9,29.74,SSE,158,2.9,2.9,77,0.00,,---,0.00,VWS V14.01,2013-05-17 08:49:00,
2013-05-17 01:50:00,54.0,46.9,29.74,East,90,1.6,2.9,77,0.00,,---,0.00,VWS V14.01,2013-05-17 08:50:00,
2013-05-17 01:51:00,54.0,46.9,29.74,East,90,1.1,1.1,77,0.00,,---,0.00,VWS V14.01,2013-05-17 08:51:00,
2013-05-17 01:52:00,54.0,46.9,29.74,ESE,112,2.2,2.5,77,0.00,,---,0.00,VWS V14.01,2013-05-17 08:52:00,
2013-05-17 01:53:00,53.8,46.8,29.74,ESE,112,1.6,2.7,77,0.00,,---,0.00,VWS V14.01,2013-05-17 08:53:00,
2013-05-17 01:54:00,53.6,46.9,29.74,ENE,68,1.3,2.0,78,0.00,,---,0.00,VWS V14.01,2013-05-17 08:54:00,
2013-05-17 01:55:00,53.6,46.9,29.74,East,90,1.1,2.5,78,0.00,,---,0.00,VWS V14.01,2013-05-17 08:55:00,
2013-05-17 01:56:00,53.6,47.3,29.74,SSW,202,3.6,3.6,79,0.00,,---,0.00,VWS V14.01,2013-05-17 08:56:00,
2013-05-17 01:57:00,53.4,47.1,29.74,SSE,158,2.0,3.6,79,0.00,,---,0.00,VWS V14.01,2013-05-17 08:57:00,
2013-05-17 01:58:00,53.4,47.1,29.74,ESE,112,1.3,2.5,79,0.00,,---,0.00,VWS V14.01,2013-05-17 08:58:00,
2013-05-17 01:59:00,53.4,47.1,29.74,SE,135,0.0,1.6,79,0.00,,---,0.00,VWS V14.01,2013-05-17 08:59:00,
2013-05-17 02:00:00,53.2,47.2,29.74,SE,135,0.0,0.0,80,0.00,,---,0.00,VWS V14.01,2013-05-17 09:00:00,
2013-05-17 02:01:00,53.2,47.2,29.74,SE,135,0.0,0.0,80,0.00,,---,0.00,VWS V14.01,2013-05-17 09:01:00,
2013-05-17 02:02:00,53.2,47.6,29.74,ESE,112,1.1,1.1,81,0.00,,---,0.00,VWS V14.01,2013-05-17 09:02:00,
2013-05-17 02:03:00,53.1,47.4,29.74,ESE,112,2.0,3.4,81,0.00,,---,0.00,VWS V14.01,2013-05-17 09:03:00,
2013-05-17 02:04:00,53.1,47.4,29.74,ESE,112,1.1,2.0,81,0.00,,---,0.00,VWS V14.01,2013-05-17 09:04:00,
2013-05-17 02:05:00,53.1,47.4,29.74,SE,135,0.9,1.1,81,0.00,,---,0.00,VWS V14.01,2013-05-17 09:05:00,
2013-05-17 02:06:00,53.1,47.4,29.74,SE,135,1.1,1.3,81,0.00,,---,0.00,VWS V14.01,2013-05-17 09:06:00,
2013-05-17 02:07:00,53.1,47.4,29.74,SSE,158,1.3,1.6,81,0.00,,---,0.00,VWS V14.01,2013-05-17 09:07:00,
2013-05-17 02:08:00,52.9,47.2,29.74,SSE,158,0.9,1.3,81,0.00,,---,0.00,VWS V14.01,2013-05-17 09:08:00,
2013-05-17 02:09:00,52.9,47.2,29.74,SSE,158,2.9,4.7,81,0.00,,---,0.00,VWS V14.01,2013-05-17 09:09:00,
2013-05-17 02:10:00,52.9,47.2,29.74,SE,135,0.0,1.1,81,0.04,,---,0.04,VWS V14.01,2013-05-17 09:10:00,
2013-05-17 02:11:00,52.9,47.2,29.74,ESE,112,1.1,2.9,81,0.04,,---,0.04,VWS V14.01,2013-05-17 09:11:00,
2013-05-17 02:12:00,52.9,47.5,29.74,SSE,158,0.9,1.3,82,0.04,,---,0.04,VWS V14.01,2013-05-17 09:12:00,
2013-05-17 02:13:00,52.9,47.5,29.74,ENE,68,1.1,1.1,82,0.04,,---,0.04,VWS V14.01,2013-05-17 09:13:00,
2013-05-17 02:14:00,52.9,47.9,29.74,East,90,0.0,1.6,83,0.04,,---,0.04,VWS V14.01,2013-05-17 09:14:00,
2013-05-17 02:15:00,52.7,47.7,29.74,ENE,68,0.9,1.1,83,0.04,,---,0.04,VWS V14.01,2013-05-17 09:15:00,
2013-05-17 02:16:00,52.7,47.7,29.74,ENE,68,1.1,1.1,83,0.04,,---,0.04,VWS V14.01,2013-05-17 09:16:00,
2013-05-17 02:17:00,52.7,47.7,29.74,SE,135,1.1,1.1,83,0.04,,---,0.04,VWS V14.01,2013-05-17 09:17:00,
2013-05-17 02:18:00,52.7,47.7,29.74,SSE,158,1.3,1.3,83,0.04,,---,0.04,VWS V14.01,2013-05-17 09:18:00,
2013-05-17 02:19:00,52.5,47.5,29.74,East,90,0.9,1.3,83,0.04,,---,0.04,VWS V14.01,2013-05-17 09:19:00,
2013-05-17 02:20:00,52.5,47.5,29.74,ESE,112,1.1,1.1,83,0.04,,---,0.04,VWS V14.01,2013-05-17 09:20:00,
2013-05-17 02:21:00,52.5,47.5,29.74,ESE,112,1.1,1.3,83,0.04,,---,0.04,VWS V14.01,2013-05-17 09:21:00,
2013-05-17 02:22:00,52.5,47.5,29.74,ESE,112,0.0,1.1,83,0.04,,---,0.04,VWS V14.01,2013-05-17 09:22:00,
2013-05-17 02:23:00,52.5,47.8,29.74,ESE,112,0.0,0.0,84,0.04,,---,0.04,VWS V14.01,2013-05-17 09:23:00,
2013-05-17 02:24:00,52.5,47.8,29.74,ESE,112,0.0,0.0,84,0.04,,---,0.04,VWS V14.01,2013-05-17 09:24:00,
2013-05-17 02:25:00,52.5,48.5,29.74,ESE,112,0.0,0.0,86,0.04,,---,0.04,VWS V14.01,2013-05-17 09:25:00,
2013-05-17 02:26:00,52.5,48.5,29.74,ESE,112,0.0,0.0,86,0.04,,---,0.04,VWS V14.01,2013-05-17 09:26:00,
2013-05-17 02:27:00,52.5,48.5,29.74,ESE,112,0.0,0.0,86,0.09,,---,0.09,VWS V14.01,2013-05-17 09:27:00,
2013-05-17 02:28:00,52.3,48.3,29.74,ESE,112,0.0,0.0,86,0.09,,---,0.09,VWS V14.01,2013-05-17 09:28:00,
2013-05-17 02:29:00,52.3,48.0,29.74,ESE,112,0.0,0.0,85,0.09,,---,0.09,VWS V14.01,2013-05-17 09:29:00,
2013-05-17 02:30:00,52.3,48.0,29.74,ESE,112,0.0,0.0,85,0.09,,---,0.09,VWS V14.01,2013-05-17 09:30:00,
2013-05-17 02:31:00,52.3,48.0,29.74,ESE,112,0.0,0.0,85,0.09,,---,0.09,VWS V14.01,2013-05-17 09:31:00,
2013-05-17 02:32:00,52.3,48.0,29.74,ESE,112,0.0,0.0,85,0.09,,---,0.09,VWS V14.01,2013-05-17 09:32:00,
2013-05-17 02:33:00,52.3,48.0,29.74,ESE,112,0.0,0.0,85,0.09,,---,0.09,VWS V14.01,2013-05-17 09:33:00,
2013-05-17 02:34:00,52.3,48.0,29.74,ESE,112,0.0,0.0,85,0.09,,---,0.09,VWS V14.01,2013-05-17 09:34:00,
2013-05-17 02:35:00,52.3,48.0,29.74,ESE,112,0.0,0.0,85,0.09,,---,0.09,VWS V14.01,2013-05-17 09:35:00,
2013-05-17 02:36:00,52.3,48.0,29.74,ESE,112,0.0,0.0,85,0.09,,---,0.09,VWS V14.01,2013-05-17 09:36:00,
2013-05-17 02:37:00,52.3,48.0,29.74,ESE,112,0.0,0.9,85,0.09,,---,0.09,VWS V14.01,2013-05-17 09:37:00,
2013-05-17 02:38:00,52.3,48.0,29.74,SE,135,0.0,0.0,85,0.09,,---,0.09,VWS V14.01,2013-05-17 09:38:00,
2013-05-17 02:39:00,52.3,48.3,29.74,SE,135,0.0,0.0,86,0.09,,---,0.09,VWS V14.01,2013-05-17 09:39:00,
2013-05-17 02:40:00,52.3,48.3,29.74,ESE,112,0.0,0.0,86,0.09,,---,0.09,VWS V14.01,2013-05-17 09:40:00,
2013-05-17 02:41:00,52.3,48.3,29.74,ESE,112,0.0,1.6,86,0.09,,---,0.09,VWS V14.01,2013-05-17 09:41:00,
2013-05-17 02:42:00,52.3,48.3,29.74,ESE,112,0.0,0.0,86,0.09,,---,0.09,VWS V14.01,2013-05-17 09:42:00,
2013-05-17 02:43:00,52.3,48.3,29.74,SE,135,0.0,0.0,86,0.09,,---,0.09,VWS V14.01,2013-05-17 09:43:00,
2013-05-17 02:44:00,52.3,48.3,29.74,SE,135,0.0,0.0,86,0.09,,---,0.09,VWS V14.01,2013-05-17 09:44:00,
2013-05-17 02:45:00,52.3,48.3,29.74,South,180,2.0,2.0,86,0.09,,---,0.09,VWS V14.01,2013-05-17 09:45:00,
2013-05-17 02:46:00,52.3,48.3,29.74,ESE,112,0.9,0.9,86,0.09,,---,0.09,VWS V14.01,2013-05-17 09:46:00,
2013-05-17 02:47:00,52.3,48.3,29.74,South,180,1.3,2.0,86,0.09,,---,0.09,VWS V14.01,2013-05-17 09:47:00,
2013-05-17 02:48:00,52.3,48.3,29.74,SSE,158,0.0,1.6,86,0.09,,---,0.09,VWS V14.01,2013-05-17 09:48:00,
2013-05-17 02:49:00,52.3,48.3,29.74,SE,135,0.0,0.0,86,0.09,,---,0.09,VWS V14.01,2013-05-17 09:49:00,
2013-05-17 02:50:00,52.3,48.3,29.74,SSE,158,0.0,0.0,86,0.09,,---,0.09,VWS V14.01,2013-05-17 09:50:00,
2013-05-17 02:51:00,52.3,48.3,29.74,SSE,158,0.0,0.9,86,0.09,,---,0.09,VWS V14.01,2013-05-17 09:51:00,
2013-05-17 02:52:00,52.3,48.3,29.74,SE,135,0.9,0.9,86,0.09,,---,0.09,VWS V14.01,2013-05-17 09:52:00,
2013-05-17 02:53:00,52.3,48.3,29.74,South,180,2.2,2.2,86,0.09,,---,0.09,VWS V14.01,2013-05-17 09:53:00,
2013-05-17 02:54:00,52.3,48.3,29.74,SSE,158,0.9,2.2,86,0.09,,---,0.09,VWS V14.01,2013-05-17 09:54:00,
2013-05-17 02:55:00,52.3,48.6,29.74,SSE,158,0.0,0.0,87,0.09,,---,0.09,VWS V14.01,2013-05-17 09:55:00,
2013-05-17 02:56:00,52.3,48.6,29.74,SSE,158,0.0,0.0,87,0.09,,---,0.09,VWS V14.01,2013-05-17 09:56:00,
2013-05-17 02:57:00,52.3,48.6,29.74,SSE,158,0.0,0.0,87,0.09,,---,0.09,VWS V14.01,2013-05-17 09:57:00,
2013-05-17 02:58:00,52.2,48.4,29.74,ESE,112,0.0,0.0,87,0.09,,---,0.09,VWS V14.01,2013-05-17 09:58:00,
2013-05-17 02:59:00,52.3,48.6,29.74,ESE,112,0.0,0.0,87,0.09,,---,0.09,VWS V14.01,2013-05-17 09:59:00,
2013-05-17 03:00:00,52.2,48.4,29.74,ESE,112,0.0,0.9,87,0.09,,---,0.09,VWS V14.01,2013-05-17 10:00:00,
2013-05-17 03:01:00,52.2,48.4,29.74,ESE,112,0.9,1.3,87,0.09,,---,0.09,VWS V14.01,2013-05-17 10:01:00,
2013-05-17 03:02:00,52.2,48.4,29.74,SSE,158,1.1,1.1,87,0.09,,---,0.09,VWS V14.01,2013-05-17 10:02:00,
2013-05-17 03:03:00,52.2,48.4,29.74,ESE,112,1.3,1.6,87,0.09,,---,0.09,VWS V14.01,2013-05-17 10:03:00,
2013-05-17 03:04:00,52.2,48.4,29.74,ESE,112,0.0,1.3,87,0.09,,---,0.09,VWS V14.01,2013-05-17 10:04:00,
2013-05-17 03:05:00,52.2,48.4,29.74,SSE,158,0.0,1.1,87,0.09,,---,0.09,VWS V14.01,2013-05-17 10:05:00,
2013-05-17 03:06:00,52.2,48.4,29.74,SSE,158,1.1,1.6,87,0.09,,---,0.09,VWS V14.01,2013-05-17 10:06:00,
2013-05-17 03:07:00,52.2,48.4,29.74,SSE,158,0.9,1.6,87,0.09,,---,0.09,VWS V14.01,2013-05-17 10:07:00,
2013-05-17 03:08:00,52.2,48.4,29.74,SSE,158,0.0,0.9,87,0.09,,---,0.09,VWS V14.01,2013-05-17 10:08:00,
2013-05-17 03:09:00,52.2,48.7,29.74,SSE,158,0.0,0.0,88,0.09,,---,0.09,VWS V14.01,2013-05-17 10:09:00,
2013-05-17 03:10:00,52.2,48.4,29.74,SSE,158,0.0,0.0,87,0.05,,---,0.09,VWS V14.01,2013-05-17 10:10:00,
2013-05-17 03:11:00,52.2,48.4,29.74,SSE,158,0.0,1.3,87,0.05,,---,0.09,VWS V14.01,2013-05-17 10:11:00,
2013-05-17 03:12:00,52.2,48.7,29.74,South,180,0.0,0.0,88,0.05,,---,0.09,VWS V14.01,2013-05-17 10:12:00,
2013-05-17 03:13:00,52.2,48.4,29.74,SSW,202,0.0,1.6,87,0.05,,---,0.09,VWS V14.01,2013-05-17 10:13:00,
2013-05-17 03:14:00,52.2,48.7,29.74,SSW,202,0.0,0.0,88,0.05,,---,0.09,VWS V14.01,2013-05-17 10:14:00,
2013-05-17 03:15:00,52.2,48.7,29.74,South,180,1.1,1.1,88,0.05,,---,0.09,VWS V14.01,2013-05-17 10:15:00,
2013-05-17 03:16:00,52.2,49.0,29.74,South,180,1.1,1.1,89,0.05,,---,0.09,VWS V14.01,2013-05-17 10:16:00,
2013-05-17 03:17:00,52.2,48.7,29.74,South,180,0.0,1.1,88,0.05,,---,0.09,VWS V14.01,2013-05-17 10:17:00,
2013-05-17 03:18:00,52.2,49.0,29.74,South,180,0.0,0.0,89,0.05,,---,0.09,VWS V14.01,2013-05-17 10:18:00,
2013-05-17 03:19:00,52.2,49.0,29.74,South,180,0.0,0.0,89,0.05,,---,0.09,VWS V14.01,2013-05-17 10:19:00,
2013-05-17 03:20:00,52.2,49.0,29.74,South,180,0.0,0.0,89,0.05,,---,0.09,VWS V14.01,2013-05-17 10:20:00,
2013-05-17 03:21:00,52.2,49.0,29.74,South,180,0.0,0.0,89,0.05,,---,0.09,VWS V14.01,2013-05-17 10:21:00,
2013-05-17 03:22:00,52.2,49.0,29.74,South,180,0.0,0.0,89,0.05,,---,0.09,VWS V14.01,2013-05-17 10:22:00,
2013-05-17 03:23:00,52.2,49.0,29.74,SSE,158,0.0,0.0,89,0.05,,---,0.09,VWS V14.01,2013-05-17 10:23:00,
2013-05-17 03:24:00,52.2,49.0,29.74,SSE,158,0.0,1.1,89,0.05,,---,0.09,VWS V14.01,2013-05-17 10:24:00,
2013-05-17 03:25:00,52.2,49.0,29.74,SSE,158,0.0,0.0,89,0.05,,---,0.09,VWS V14.01,2013-05-17 10:25:00,
2013-05-17 03:26:00,52.2,49.0,29.74,SSE,158,0.0,1.3,89,0.05,,---,0.09,VWS V14.01,2013-05-17 10:26:00,
2013-05-17 03:27:00,52.2,49.0,29.74,SSE,158,1.1,1.6,89,0.05,,---,0.09,VWS V14.01,2013-05-17 10:27:00,
2013-05-17 03:28:00,52.2,49.0,29.74,SSE,158,0.0,1.3,89,0.00,,---,0.09,VWS V14.01,2013-05-17 10:28:00,
2013-05-17 03:29:00,52.2,49.0,29.74,SSE,158,0.0,0.0,89,0.00,,---,0.09,VWS V14.01,2013-05-17 10:29:00,
2013-05-17 03:30:00,52.2,49.3,29.74,SSE,158,0.0,0.0,90,0.00,,---,0.09,VWS V14.01,2013-05-17 10:30:00,
2013-05-17 03:31:00,52.2,49.3,29.74,SSE,158,0.0,0.0,90,0.00,,---,0.09,VWS V14.01,2013-05-17 10:31:00,
2013-05-17 03:32:00,52.2,49.0,29.74,SSE,158,0.0,0.0,89,0.00,,---,0.09,VWS V14.01,2013-05-17 10:32:00,
2013-05-17 03:33:00,52.2,49.0,29.74,ESE,112,0.0,0.0,89,0.00,,---,0.09,VWS V14.01,2013-05-17 10:33:00,
2013-05-17 03:34:00,52.2,49.0,29.74,SSE,158,1.1,1.6,89,0.00,,---,0.09,VWS V14.01,2013-05-17 10:34:00,
2013-05-17 03:35:00,52.2,49.0,29.74,SSE,158,0.0,0.0,89,0.00,,---,0.09,VWS V14.01,2013-05-17 10:35:00,
2013-05-17 03:36:00,52.2,49.0,29.74,SSE,158,0.0,0.0,89,0.00,,---,0.09,VWS V14.01,2013-05-17 10:36:00,
2013-05-17 03:37:00,52.2,49.3,29.74,ENE,68,1.1,1.1,90,0.00,,---,0.09,VWS V14.01,2013-05-17 10:37:00,
2013-05-17 03:38:00,52.2,49.3,29.74,East,90,0.0,1.3,90,0.00,,---,0.09,VWS V14.01,2013-05-17 10:38:00,
2013-05-17 03:39:00,52.2,49.3,29.74,ESE,112,0.0,0.0,90,0.00,,---,0.09,VWS V14.01,2013-05-17 10:39:00,
2013-05-17 03:40:00,52.2,49.3,29.74,ESE,112,0.0,0.0,90,0.00,,---,0.09,VWS V14.01,2013-05-17 10:40:00,
2013-05-17 03:41:00,52.2,49.3,29.74,ESE,112,0.0,0.0,90,0.00,,---,0.09,VWS V14.01,2013-05-17 10:41:00,
2013-05-17 03:42:00,52.2,49.3,29.74,SE,135,0.9,1.1,90,0.00,,---,0.09,VWS V14.01,2013-05-17 10:42:00,
2013-05-17 03:43:00,52.2,49.3,29.74,SE,135,0.0,0.9,90,0.00,,---,0.09,VWS V14.01,2013-05-17 10:43:00,
2013-05-17 03:44:00,52.2,49.3,29.74,SSE,158,1.1,4.3,90,0.04,,---,0.13,VWS V14.01,2013-05-17 10:44:00,
2013-05-17 03:45:00,52.2,49.3,29.74,ESE,112,0.0,0.0,90,0.04,,---,0.13,VWS V14.01,2013-05-17 10:45:00,
2013-05-17 03:46:00,52.2,49.3,29.74,ESE,112,0.0,0.0,90,0.04,,---,0.13,VWS V14.01,2013-05-17 10:46:00,
2013-05-17 03:47:00,52.2,49.3,29.74,ESE,112,0.0,0.0,90,0.04,,---,0.13,VWS V14.01,2013-05-17 10:47:00,
2013-05-17 03:48:00,52.2,49.6,29.74,ESE,112,0.0,0.0,91,0.04,,---,0.13,VWS V14.01,2013-05-17 10:48:00,
2013-05-17 03:49:00,52.2,49.6,29.74,ESE,112,0.9,1.1,91,0.04,,---,0.13,VWS V14.01,2013-05-17 10:49:00,
2013-05-17 03:50:00,52.2,49.6,29.74,SSE,158,2.0,2.0,91,0.04,,---,0.13,VWS V14.01,2013-05-17 10:50:00,
2013-05-17 03:51:00,52.2,49.6,29.74,SSE,158,1.3,1.3,91,0.04,,---,0.13,VWS V14.01,2013-05-17 10:51:00,
2013-05-17 03:52:00,52.2,49.6,29.74,SE,135,0.0,2.0,91,0.04,,---,0.13,VWS V14.01,2013-05-17 10:52:00,
2013-05-17 03:53:00,52.2,49.6,29.74,East,90,0.9,1.1,91,0.04,,---,0.13,VWS V14.01,2013-05-17 10:53:00,
2013-05-17 03:54:00,52.2,49.3,29.74,East,90,0.0,0.9,90,0.04,,---,0.13,VWS V14.01,2013-05-17 10:54:00,
2013-05-17 03:55:00,52.2,49.6,29.74,East,90,0.0,0.0,91,0.04,,---,0.13,VWS V14.01,2013-05-17 10:55:00,
2013-05-17 03:56:00,52.2,49.6,29.74,East,90,0.0,0.0,91,0.04,,---,0.13,VWS V14.01,2013-05-17 10:56:00,
2013-05-17 03:57:00,52.2,49.6,29.74,ESE,112,1.1,1.6,91,0.04,,---,0.13,VWS V14.01,2013-05-17 10:57:00,
2013-05-17 03:58:00,52.2,49.6,29.74,ESE,112,1.1,1.3,91,0.04,,---,0.13,VWS V14.01,2013-05-17 10:58:00,
2013-05-17 03:59:00,52.2,49.6,29.74,ESE,112,0.0,1.1,91,0.04,,---,0.13,VWS V14.01,2013-05-17 10:59:00,
2013-05-17 04:00:00,52.2,49.6,29.74,ESE,112,0.0,0.0,91,0.04,,---,0.13,VWS V14.01,2013-05-17 11:00:00,
2013-05-17 04:01:00,52.2,49.6,29.74,ESE,112,0.0,0.0,91,0.04,,---,0.13,VWS V14.01,2013-05-17 11:01:00,
2013-05-17 04:02:00,52.2,49.6,29.74,ESE,112,0.9,1.3,91,0.04,,---,0.13,VWS V14.01,2013-05-17 11:02:00,
2013-05-17 04:03:00,52.2,49.6,29.74,East,90,0.0,0.9,91,0.04,,---,0.13,VWS V14.01,2013-05-17 11:03:00,
2013-05-17 04:04:00,52.2,49.6,29.74,ESE,112,0.9,1.6,91,0.04,,---,0.13,VWS V14.01,2013-05-17 11:04:00,
2013-05-17 04:05:00,52.2,49.6,29.74,ESE,112,1.1,1.1,91,0.04,,---,0.13,VWS V14.01,2013-05-17 11:05:00,
2013-05-17 04:06:00,52.2,49.6,29.74,ESE,112,1.1,1.1,91,0.04,,---,0.13,VWS V14.01,2013-05-17 11:06:00,
2013-05-17 04:07:00,52.2,49.6,29.74,ESE,112,1.3,1.3,91,0.04,,---,0.13,VWS V14.01,2013-05-17 11:07:00,
2013-05-17 04:08:00,52.0,49.4,29.74,East,90,0.0,1.3,91,0.04,,---,0.13,VWS V14.01,2013-05-17 11:08:00,
2013-05-17 04:09:00,52.0,49.4,29.74,East,90,0.0,0.0,91,0.04,,---,0.13,VWS V14.01,2013-05-17 11:09:00,
2013-05-17 04:10:00,52.2,49.6,29.74,East,90,0.0,0.0,91,0.04,,---,0.13,VWS V14.01,2013-05-17 11:10:00,
2013-05-17 04:11:00,52.2,49.6,29.74,East,90,0.0,0.0,91,0.04,,---,0.13,VWS V14.01,2013-05-17 11:11:00,
2013-05-17 04:12:00,52.0,49.7,29.74,East,90,0.0,0.0,92,0.04,,---,0.13,VWS V14.01,2013-05-17 11:12:00,
2013-05-17 04:13:00,52.0,49.7,29.74,ESE,112,0.0,0.0,92,0.04,,---,0.13,VWS V14.01,2013-05-17 11:13:00,
2013-05-17 04:14:00,52.0,49.7,29.74,ESE,112,0.0,0.0,92,0.04,,---,0.13,VWS V14.01,2013-05-17 11:14:00,
2013-05-17 04:15:00,52.0,49.7,29.74,ESE,112,0.0,0.0,92,0.04,,---,0.13,VWS V14.01,2013-05-17 11:15:00,
2013-05-17 04:16:00,52.0,49.7,29.74,ESE,112,0.0,0.0,92,0.04,,---,0.13,VWS V14.01,2013-05-17 11:16:00,
2013-05-17 04:17:00,52.0,49.7,29.74,ESE,112,1.1,1.1,92,0.04,,---,0.13,VWS V14.01,2013-05-17 11:17:00,
2013-05-17 04:18:00,52.0,49.7,29.74,ESE,112,0.0,1.1,92,0.04,,---,0.13,VWS V14.01,2013-05-17 11:18:00,
2013-05-17 04:19:00,52.0,49.7,29.74,ESE,112,1.3,1.3,92,0.04,,---,0.13,VWS V14.01,2013-05-17 11:19:00,
2013-05-17 04:20:00,52.0,49.7,29.74,ESE,112,0.0,2.0,92,0.04,,---,0.13,VWS V14.01,2013-05-17 11:20:00,
2013-05-17 04:21:00,52.0,49.7,29.74,ESE,112,0.0,2.0,92,0.04,,---,0.13,VWS V14.01,2013-05-17 11:21:00,
2013-05-17 04:22:00,52.0,49.7,29.74,ESE,112,0.0,0.0,92,0.04,,---,0.13,VWS V14.01,2013-05-17 11:22:00,
2013-05-17 04:23:00,52.0,49.7,29.74,ESE,112,0.0,0.0,92,0.04,,---,0.13,VWS V14.01,2013-05-17 11:23:00,
2013-05-17 04:24:00,52.0,49.7,29.74,ESE,112,0.0,0.0,92,0.04,,---,0.13,VWS V14.01,2013-05-17 11:24:00,
2013-05-17 04:25:00,52.0,49.7,29.74,ESE,112,0.9,0.9,92,0.04,,---,0.13,VWS V14.01,2013-05-17 11:25:00,
2013-05-17 04:26:00,52.0,49.7,29.74,ESE,112,0.9,2.2,92,0.04,,---,0.13,VWS V14.01,2013-05-17 11:26:00,
2013-05-17 04:27:00,52.0,49.7,29.74,ENE,68,1.1,1.3,92,0.04,,---,0.13,VWS V14.01,2013-05-17 11:27:00,
2013-05-17 04:28:00,52.0,49.7,29.74,ESE,112,0.0,1.1,92,0.04,,---,0.13,VWS V14.01,2013-05-17 11:28:00,
2013-05-17 04:29:00,52.0,49.7,29.74,SE,135,1.6,2.9,92,0.04,,---,0.13,VWS V14.01,2013-05-17 11:29:00,
2013-05-17 04:30:00,52.0,49.7,29.74,ESE,112,0.9,1.6,92,0.04,,---,0.13,VWS V14.01,2013-05-17 11:30:00,
2013-05-17 04:31:00,52.0,49.7,29.74,ESE,112,0.9,1.6,92,0.04,,---,0.13,VWS V14.01,2013-05-17 11:31:00,
2013-05-17 04:32:00,52.0,49.7,29.74,ESE,112,0.0,0.9,92,0.04,,---,0.13,VWS V14.01,2013-05-17 11:32:00,
2013-05-17 04:33:00,52.0,49.7,29.74,SE,135,1.3,1.3,92,0.04,,---,0.13,VWS V14.01,2013-05-17 11:33:00,
2013-05-17 04:34:00,52.0,49.7,29.74,ESE,112,0.9,1.3,92,0.04,,---,0.13,VWS V14.01,2013-05-17 11:34:00,
2013-05-17 04:35:00,52.0,49.7,29.74,SE,135,0.9,2.0,92,0.04,,---,0.13,VWS V14.01,2013-05-17 11:35:00,
2013-05-17 04:36:00,52.0,49.7,29.74,SE,135,0.9,2.0,92,0.04,,---,0.13,VWS V14.01,2013-05-17 11:36:00,
2013-05-17 04:37:00,52.0,49.7,29.74,SE,135,0.0,1.1,92,0.04,,---,0.13,VWS V14.01,2013-05-17 11:37:00,
2013-05-17 04:38:00,52.0,49.7,29.74,ESE,112,1.3,1.3,92,0.04,,---,0.13,VWS V14.01,2013-05-17 11:38:00,
2013-05-17 04:39:00,52.0,49.7,29.74,SE,135,1.3,1.3,92,0.04,,---,0.13,VWS V14.01,2013-05-17 11:39:00,
2013-05-17 04:40:00,52.0,50.0,29.74,SE,135,1.1,1.6,93,0.04,,---,0.13,VWS V14.01,2013-05-17 11:40:00,
2013-05-17 04:41:00,52.0,50.0,29.74,SE,135,1.1,1.6,93,0.04,,---,0.13,VWS V14.01,2013-05-17 11:41:00,
2013-05-17 04:42:00,52.0,50.0,29.74,ESE,112,0.0,1.1,93,0.04,,---,0.13,VWS V14.01,2013-05-17 11:42:00,
2013-05-17 04:43:00,52.0,50.0,29.74,ESE,112,1.6,2.0,93,0.04,,---,0.13,VWS V14.01,2013-05-17 11:43:00,
2013-05-17 04:44:00,52.0,50.0,29.74,ESE,112,2.0,2.0,93,0.04,,---,0.13,VWS V14.01,2013-05-17 11:44:00,
2013-05-17 04:45:00,51.8,49.5,29.74,ESE,112,0.0,0.9,92,0.00,,---,0.13,VWS V14.01,2013-05-17 11:45:00,
2013-05-17 04:46:00,51.8,49.6,29.74,ESE,112,0.0,0.9,92,0.00,,---,0.13,VWS V14.01,2013-05-17 11:46:00,
2013-05-17 04:47:00,51.8,49.8,29.74,SE,135,0.0,1.6,93,0.00,,---,0.13,VWS V14.01,2013-05-17 11:47:00,
2013-05-17 04:48:00,51.8,49.8,29.74,SSE,158,2.9,2.9,93,0.00,,---,0.13,VWS V14.01,2013-05-17 11:48:00,
2013-05-17 04:49:00,51.8,49.8,29.74,SE,135,1.3,2.9,93,0.00,,---,0.13,VWS V14.01,2013-05-17 11:49:00,
2013-05-17 04:50:00,51.8,49.8,29.74,ESE,112,1.1,1.1,93,0.00,,---,0.13,VWS V14.01,2013-05-17 11:50:00,
2013-05-17 04:51:00,51.8,49.8,29.74,ESE,112,1.1,1.1,93,0.00,,---,0.13,VWS V14.01,2013-05-17 11:51:00,
2013-05-17 04:52:00,51.8,49.8,29.74,SE,135,1.3,2.5,93,0.00,,---,0.13,VWS V14.01,2013-05-17 11:52:00,
2013-05-17 04:53:00,51.8,49.8,29.74,SSE,158,0.9,1.6,93,0.00,,---,0.13,VWS V14.01,2013-05-17 11:53:00,
2013-05-17 04:54:00,51.8,49.8,29.74,SSE,158,0.0,1.3,93,0.00,,---,0.13,VWS V14.01,2013-05-17 11:54:00,
2013-05-17 04:55:00,51.8,49.8,29.74,ESE,112,0.0,0.9,93,0.00,,---,0.13,VWS V14.01,2013-05-17 11:55:00,
2013-05-17 04:56:00,51.8,49.8,29.74,ESE,112,0.0,0.9,93,0.00,,---,0.13,VWS V14.01,2013-05-17 11:56:00,
2013-05-17 04:57:00,51.8,49.8,29.74,ESE,112,0.9,0.9,93,0.00,,---,0.13,VWS V14.01,2013-05-17 11:57:00,
2013-05-17 04:58:00,51.8,49.8,29.74,ESE,112,0.9,1.3,93,0.00,,---,0.13,VWS V14.01,2013-05-17 11:58:00,
2013-05-17 04:59:00,51.8,49.8,29.74,SE,135,1.1,1.1,93,0.00,,---,0.13,VWS V14.01,2013-05-17 11:59:00,
2013-05-17 05:00:00,51.8,49.8,29.74,ESE,112,1.1,1.6,93,0.00,,---,0.13,VWS V14.01,2013-05-17 12:00:00,
2013-05-17 05:01:00,51.8,49.8,29.74,ESE,112,1.1,1.6,93,0.00,,---,0.13,VWS V14.01,2013-05-17 12:01:00,
2013-05-17 05:02:00,51.8,49.8,29.74,SSE,158,1.6,2.0,93,0.00,,---,0.13,VWS V14.01,2013-05-17 12:02:00,
2013-05-17 05:03:00,51.8,49.8,29.74,SE,135,2.0,2.5,93,0.00,,---,0.13,VWS V14.01,2013-05-17 12:03:00,
2013-05-17 05:04:00,51.8,49.8,29.74,SSE,158,1.3,2.5,93,0.00,,---,0.13,VWS V14.01,2013-05-17 12:04:00,
2013-05-17 05:05:00,51.8,49.8,29.74,SSE,158,2.5,2.5,93,0.00,,---,0.13,VWS V14.01,2013-05-17 12:05:00,
2013-05-17 05:06:00,51.8,49.8,29.74,SSE,158,2.5,2.5,93,0.00,,---,0.13,VWS V14.01,2013-05-17 12:06:00,
2013-05-17 05:07:00,51.8,49.8,29.74,ESE,112,1.3,3.4,93,0.00,,---,0.13,VWS V14.01,2013-05-17 12:07:00,
2013-05-17 05:08:00,51.8,49.8,29.74,ESE,112,1.1,1.3,93,0.00,,---,0.13,VWS V14.01,2013-05-17 12:08:00,
2013-05-17 05:09:00,51.8,50.1,29.74,ESE,112,1.3,1.3,94,0.00,,---,0.13,VWS V14.01,2013-05-17 12:09:00,
2013-05-17 05:10:00,51.8,50.1,29.74,ESE,112,0.9,2.0,94,0.00,,---,0.13,VWS V14.01,2013-05-17 12:10:00,
2013-05-17 05:11:00,51.8,50.1,29.74,ESE,112,1.3,2.0,94,0.00,,---,0.13,VWS V14.01,2013-05-17 12:11:00,
2013-05-17 05:12:00,51.8,50.1,29.74,SE,135,1.1,2.0,94,0.00,,---,0.13,VWS V14.01,2013-05-17 12:12:00,
2013-05-17 05:13:00,51.8,50.1,29.74,ESE,112,0.0,1.6,94,0.00,,---,0.13,VWS V14.01,2013-05-17 12:13:00,
2013-05-17 05:14:00,51.8,50.1,29.74,ESE,112,1.3,1.3,94,0.00,,---,0.13,VWS V14.01,2013-05-17 12:14:00,
2013-05-17 05:15:00,51.8,50.1,29.74,SSE,158,2.0,2.0,94,0.00,,---,0.13,VWS V14.01,2013-05-17 12:15:00,
2013-05-17 05:16:00,51.8,50.1,29.74,SSE,158,2.0,2.0,94,0.00,,---,0.13,VWS V14.01,2013-05-17 12:16:00,
2013-05-17 05:17:00,51.8,50.1,29.74,ESE,112,1.1,2.0,94,0.00,,---,0.13,VWS V14.01,2013-05-17 12:17:00,
2013-05-17 05:18:00,51.8,50.1,29.74,ESE,112,0.0,1.1,94,0.00,,---,0.13,VWS V14.01,2013-05-17 12:18:00,
2013-05-17 05:19:00,51.8,50.1,29.74,SE,135,1.1,1.1,94,0.00,,---,0.13,VWS V14.01,2013-05-17 12:19:00,
2013-05-17 05:20:00,51.8,50.1,29.74,SSE,158,0.0,0.9,94,0.00,,---,0.13,VWS V14.01,2013-05-17 12:20:00,
2013-05-17 05:21:00,51.8,50.1,29.74,SSE,158,0.0,0.9,94,0.00,,---,0.13,VWS V14.01,2013-05-17 12:21:00,
2013-05-17 05:22:00,51.8,50.1,29.74,SE,135,0.0,1.1,94,0.00,,---,0.13,VWS V14.01,2013-05-17 12:22:00,
2013-05-17 05:23:00,51.8,50.1,29.74,SE,135,0.0,0.0,94,0.00,,---,0.13,VWS V14.01,2013-05-17 12:23:00,
2013-05-17 05:24:00,51.8,50.1,29.74,SE,135,0.0,0.9,94,0.00,,---,0.13,VWS V14.01,2013-05-17 12:24:00,
2013-05-17 05:25:00,52.0,50.3,29.74,SE,135,0.0,0.0,94,0.00,,---,0.13,VWS V14.01,2013-05-17 12:25:00,
2013-05-17 05:26:00,52.0,50.3,29.74,SE,135,0.0,0.0,94,0.00,,---,0.13,VWS V14.01,2013-05-17 12:26:00,
2013-05-17 05:27:00,52.0,50.3,29.74,SSE,158,0.9,0.9,94,0.00,,---,0.13,VWS V14.01,2013-05-17 12:27:00,
2013-05-17 05:28:00,52.0,50.3,29.74,SSE,158,1.1,1.3,94,0.00,,---,0.13,VWS V14.01,2013-05-17 12:28:00,
2013-05-17 05:29:00,52.0,50.3,29.74,ESE,112,0.0,1.1,94,0.00,,---,0.13,VWS V14.01,2013-05-17 12:29:00,
2013-05-17 05:30:00,52.0,50.3,29.74,ESE,112,0.0,0.0,94,0.00,,---,0.13,VWS V14.01,2013-05-17 12:30:00,
2013-05-17 05:31:00,52.0,50.3,29.74,ESE,112,0.0,0.0,94,0.00,,---,0.13,VWS V14.01,2013-05-17 12:31:00,
2013-05-17 05:32:00,52.0,50.3,29.74,ESE,112,0.0,0.0,94,0.00,,---,0.13,VWS V14.01,2013-05-17 12:32:00,
2013-05-17 05:33:00,52.0,50.3,29.74,ESE,112,0.0,0.0,94,0.00,,---,0.13,VWS V14.01,2013-05-17 12:33:00,
2013-05-17 05:34:00,52.0,50.3,29.74,ESE,112,0.0,0.0,94,0.00,,---,0.13,VWS V14.01,2013-05-17 12:34:00,
2013-05-17 05:35:00,52.0,50.3,29.74,NE,45,1.6,1.6,94,0.00,,---,0.13,VWS V14.01,2013-05-17 12:35:00,
2013-05-17 05:36:00,52.0,50.3,29.74,NE,45,2.0,2.0,94,0.00,,---,0.13,VWS V14.01,2013-05-17 12:36:00,
2013-05-17 05:37:00,52.0,50.3,29.74,East,90,0.0,2.0,94,0.00,,---,0.13,VWS V14.01,2013-05-17 12:37:00,
2013-05-17 05:38:00,52.0,50.3,29.74,SSE,158,0.0,1.1,94,0.00,,---,0.13,VWS V14.01,2013-05-17 12:38:00,
2013-05-17 05:39:00,52.0,50.3,29.74,ESE,112,0.0,0.0,94,0.00,,---,0.13,VWS V14.01,2013-05-17 12:39:00,
2013-05-17 05:40:00,52.0,50.6,29.74,SSE,158,0.0,1.6,95,0.00,,---,0.13,VWS V14.01,2013-05-17 12:40:00,
2013-05-17 05:41:00,52.0,50.6,29.74,SSE,158,0.0,1.6,95,0.00,,---,0.13,VWS V14.01,2013-05-17 12:41:00,
2013-05-17 05:42:00,52.2,50.8,29.74,SSE,158,0.0,0.0,95,0.00,,---,0.13,VWS V14.01,2013-05-17 12:42:00,
2013-05-17 05:43:00,52.2,50.8,29.74,SSE,158,0.0,0.0,95,0.00,,---,0.13,VWS V14.01,2013-05-17 12:43:00,
2013-05-17 05:44:00,52.2,50.8,29.74,SSE,158,0.0,0.0,95,0.00,,---,0.13,VWS V14.01,2013-05-17 12:44:00,
2013-05-17 05:45:00,52.2,50.8,29.74,ESE,112,0.0,0.0,95,0.00,,---,0.13,VWS V14.01,2013-05-17 12:45:00,
2013-05-17 05:46:00,52.2,50.8,29.74,ESE,112,0.0,0.0,95,0.00,,---,0.13,VWS V14.01,2013-05-17 12:46:00,
2013-05-17 05:47:00,52.2,50.8,29.74,ESE,112,0.0,0.0,95,0.00,,---,0.13,VWS V14.01,2013-05-17 12:47:00,
2013-05-17 05:48:00,52.2,50.8,29.74,ESE,112,0.0,0.0,95,0.00,,---,0.13,VWS V14.01,2013-05-17 12:48:00,
2013-05-17 05:49:00,52.2,50.8,29.74,ESE,112,0.0,0.0,95,0.00,,---,0.13,VWS V14.01,2013-05-17 12:49:00,
2013-05-17 05:50:00,52.2,50.8,29.74,ESE,112,0.0,0.0,95,0.00,,---,0.13,VWS V14.01,2013-05-17 12:50:00,
2013-05-17 05:51:00,52.2,50.8,29.74,ESE,112,0.0,0.0,95,0.00,,---,0.13,VWS V14.01,2013-05-17 12:51:00,
2013-05-17 05:52:00,52.2,50.8,29.74,ESE,112,0.0,0.0,95,0.00,,---,0.13,VWS V14.01,2013-05-17 12:52:00,
2013-05-17 05:53:00,52.2,50.8,29.74,ESE,112,0.0,0.0,95,0.00,,---,0.13,VWS V14.01,2013-05-17 12:53:00,
2013-05-17 05:54:00,52.2,50.8,29.74,ESE,112,0.0,0.0,95,0.00,,---,0.13,VWS V14.01,2013-05-17 12:54:00,
2013-05-17 05:55:00,52.2,50.8,29.74,ESE,112,0.0,0.0,95,0.00,,---,0.13,VWS V14.01,2013-05-17 12:55:00,
2013-05-17 05:56:00,52.2,50.8,29.74,ESE,112,0.0,0.0,95,0.00,,---,0.13,VWS V14.01,2013-05-17 12:56:00,
2013-05-17 05:57:00,52.2,50.8,29.74,SE,135,0.0,0.0,95,0.00,,---,0.13,VWS V14.01,2013-05-17 12:57:00,
2013-05-17 05:58:00,52.2,50.8,29.74,East,90,1.3,1.3,95,0.00,,---,0.13,VWS V14.01,2013-05-17 12:58:00,
2013-05-17 05:59:00,52.2,50.8,29.74,East,90,1.1,1.3,95,0.00,,---,0.13,VWS V14.01,2013-05-17 12:59:00,
2013-05-17 06:00:00,52.2,50.8,29.74,SSE,158,0.0,0.0,95,0.00,,---,0.13,VWS V14.01,2013-05-17 13:00:00,
2013-05-17 06:01:00,52.2,50.8,29.74,SE,135,1.3,1.3,95,0.00,,---,0.13,VWS V14.01,2013-05-17 13:01:00,
2013-05-17 06:02:00,52.2,50.8,29.74,ESE,112,1.1,2.5,95,0.00,,---,0.13,VWS V14.01,2013-05-17 13:02:00,
2013-05-17 06:03:00,52.2,50.8,29.74,ESE,112,0.0,1.1,95,0.00,,---,0.13,VWS V14.01,2013-05-17 13:03:00,
2013-05-17 06:04:00,52.2,50.8,29.74,ESE,112,0.0,0.0,95,0.00,,---,0.13,VWS V14.01,2013-05-17 13:04:00,
2013-05-17 06:05:00,52.3,51.0,29.74,East,90,0.0,0.0,95,0.00,,---,0.13,VWS V14.01,2013-05-17 13:05:00,
2013-05-17 06:06:00,52.3,51.0,29.74,East,90,0.0,0.0,95,0.00,,---,0.13,VWS V14.01,2013-05-17 13:06:00,
2013-05-17 06:07:00,52.2,50.8,29.74,SSE,158,1.3,2.2,95,0.00,,---,0.13,VWS V14.01,2013-05-17 13:07:00,
2013-05-17 06:08:00,52.2,50.8,29.74,SSE,158,0.0,1.3,95,0.00,,---,0.13,VWS V14.01,2013-05-17 13:08:00,
2013-05-17 06:09:00,52.2,50.8,29.74,SSE,158,0.0,0.0,95,0.00,,---,0.13,VWS V14.01,2013-05-17 13:09:00,
2013-05-17 06:10:00,52.2,50.8,29.74,ESE,112,0.0,0.0,95,0.00,,---,0.13,VWS V14.01,2013-05-17 13:10:00,
2013-05-17 06:11:00,52.2,50.8,29.74,ESE,112,0.0,0.0,95,0.00,,---,0.13,VWS V14.01,2013-05-17 13:11:00,
2013-05-17 06:12:00,52.3,51.0,29.74,ESE,112,0.0,0.0,95,0.00,,---,0.13,VWS V14.01,2013-05-17 13:12:00,
2013-05-17 06:13:00,52.3,51.0,29.74,ESE,112,0.0,0.0,95,0.00,,---,0.13,VWS V14.01,2013-05-17 13:13:00,
2013-05-17 06:14:00,52.3,51.0,29.74,ESE,112,0.0,0.0,95,0.00,,---,0.13,VWS V14.01,2013-05-17 13:14:00,
2013-05-17 06:15:00,52.3,51.2,29.74,ESE,112,0.0,0.0,96,0.00,,---,0.13,VWS V14.01,2013-05-17 13:15:00,
2013-05-17 06:16:00,52.3,51.2,29.74,ESE,112,0.0,0.0,96,0.00,,---,0.13,VWS V14.01,2013-05-17 13:16:00,
2013-05-17 06:17:00,52.3,51.0,29.74,ESE,112,0.0,0.0,95,0.00,,---,0.13,VWS V14.01,2013-05-17 13:17:00,
2013-05-17 06:18:00,52.3,51.0,29.74,ESE,112,0.0,0.0,95,0.00,,---,0.13,VWS V14.01,2013-05-17 13:18:00,
2013-05-17 06:19:00,52.3,51.0,29.74,ESE,112,0.0,0.0,95,0.00,,---,0.13,VWS V14.01,2013-05-17 13:19:00,
2013-05-17 06:20:00,52.3,51.0,29.74,ESE,112,0.0,0.0,95,0.00,,---,0.13,VWS V14.01,2013-05-17 13:20:00,
2013-05-17 06:21:00,52.3,51.0,29.74,ESE,112,0.0,0.0,95,0.00,,---,0.13,VWS V14.01,2013-05-17 13:21:00,
2013-05-17 06:22:00,52.3,51.2,29.74,ESE,112,0.0,0.0,96,0.00,,---,0.13,VWS V14.01,2013-05-17 13:22:00,
2013-05-17 06:23:00,52.3,51.2,29.74,ESE,112,0.0,0.0,96,0.00,,---,0.13,VWS V14.01,2013-05-17 13:23:00,
2013-05-17 06:24:00,52.3,51.2,29.74,ESE,112,0.0,0.0,96,0.00,,---,0.13,VWS V14.01,2013-05-17 13:24:00,
2013-05-17 06:25:00,52.3,51.2,29.74,ESE,112,0.0,0.0,96,0.00,,---,0.13,VWS V14.01,2013-05-17 13:25:00,
2013-05-17 06:26:00,52.3,51.2,29.74,ESE,112,0.0,0.0,96,0.00,,---,0.13,VWS V14.01,2013-05-17 13:26:00,
2013-05-17 06:27:00,52.3,51.2,29.74,ESE,112,0.0,0.0,96,0.00,,---,0.13,VWS V14.01,2013-05-17 13:27:00,
2013-05-17 06:28:00,52.3,51.2,29.74,ESE,112,0.0,0.0,96,0.00,,---,0.13,VWS V14.01,2013-05-17 13:28:00,
2013-05-17 06:29:00,52.3,51.2,29.74,ESE,112,0.9,0.9,96,0.00,,---,0.13,VWS V14.01,2013-05-17 13:29:00,
2013-05-17 06:30:00,52.3,51.2,29.76,ESE,112,0.0,0.0,96,0.00,,---,0.13,VWS V14.01,2013-05-17 13:30:00,
2013-05-17 06:31:00,52.3,51.2,29.76,ESE,112,0.0,0.0,96,0.00,,---,0.13,VWS V14.01,2013-05-17 13:31:00,
2013-05-17 06:32:00,52.3,51.2,29.76,ESE,112,0.0,0.0,96,0.00,,---,0.13,VWS V14.01,2013-05-17 13:32:00,
2013-05-17 06:33:00,52.3,51.2,29.76,ESE,112,0.0,0.0,96,0.00,,---,0.13,VWS V14.01,2013-05-17 13:33:00,
2013-05-17 06:34:00,52.5,51.4,29.76,ESE,112,0.0,0.0,96,0.00,,---,0.13,VWS V14.01,2013-05-17 13:34:00,
2013-05-17 06:35:00,52.5,51.4,29.76,ESE,112,0.0,0.0,96,0.00,,---,0.13,VWS V14.01,2013-05-17 13:35:00,
2013-05-17 06:36:00,52.5,51.4,29.76,ESE,112,0.0,0.0,96,0.00,,---,0.13,VWS V14.01,2013-05-17 13:36:00,
2013-05-17 06:37:00,52.5,51.4,29.76,ESE,112,0.0,0.0,96,0.00,,---,0.13,VWS V14.01,2013-05-17 13:37:00,
2013-05-17 06:38:00,52.5,51.4,29.76,ESE,112,0.0,0.0,96,0.00,,---,0.13,VWS V14.01,2013-05-17 13:38:00,
2013-05-17 06:39:00,52.5,51.4,29.76,ESE,112,0.0,0.0,96,0.00,,---,0.13,VWS V14.01,2013-05-17 13:39:00,
2013-05-17 06:40:00,52.5,51.4,29.76,ESE,112,0.0,0.0,96,0.00,,---,0.13,VWS V14.01,2013-05-17 13:40:00,
2013-05-17 06:41:00,52.5,51.4,29.76,ESE,112,1.3,1.3,96,0.00,,---,0.13,VWS V14.01,2013-05-17 13:41:00,
2013-05-17 06:42:00,52.5,51.4,29.76,ESE,112,1.1,1.3,96,0.00,,---,0.13,VWS V14.01,2013-05-17 13:42:00,
2013-05-17 06:43:00,52.5,51.4,29.76,ESE,112,0.0,1.1,96,0.00,,---,0.13,VWS V14.01,2013-05-17 13:43:00,
2013-05-17 06:44:00,52.5,51.4,29.76,ESE,112,0.0,0.0,96,0.00,,---,0.13,VWS V14.01,2013-05-17 13:44:00,
2013-05-17 06:45:00,52.5,51.4,29.76,East,90,0.0,0.0,96,0.00,,---,0.13,VWS V14.01,2013-05-17 13:45:00,
2013-05-17 06:46:00,52.5,51.4,29.76,East,90,0.0,0.0,96,0.00,,---,0.13,VWS V14.01,2013-05-17 13:46:00,
2013-05-17 06:47:00,52.7,51.6,29.76,ESE,112,0.0,0.0,96,0.00,,---,0.13,VWS V14.01,2013-05-17 13:47:00,
2013-05-17 06:48:00,52.7,51.6,29.76,ESE,112,0.0,0.0,96,0.00,,---,0.13,VWS V14.01,2013-05-17 13:48:00,
2013-05-17 06:49:00,52.7,51.6,29.76,ESE,112,0.0,0.0,96,0.00,,---,0.13,VWS V14.01,2013-05-17 13:49:00,
2013-05-17 06:50:00,52.7,51.6,29.76,ESE,112,0.9,0.9,96,0.00,,---,0.13,VWS V14.01,2013-05-17 13:50:00,
2013-05-17 06:51:00,52.7,51.6,29.76,SE,135,0.9,0.9,96,0.00,,---,0.13,VWS V14.01,2013-05-17 13:51:00,
2013-05-17 06:52:00,52.7,51.6,29.76,SE,135,0.0,1.1,96,0.00,,---,0.13,VWS V14.01,2013-05-17 13:52:00,
2013-05-17 06:53:00,52.7,51.6,29.76,SE,135,0.0,0.0,96,0.00,,---,0.13,VWS V14.01,2013-05-17 13:53:00,
2013-05-17 06:54:00,52.7,51.6,29.76,SE,135,0.0,0.0,96,0.00,,---,0.13,VWS V14.01,2013-05-17 13:54:00,
2013-05-17 06:55:00,52.9,51.8,29.76,SE,135,0.0,0.0,96,0.00,,---,0.13,VWS V14.01,2013-05-17 13:55:00,
2013-05-17 06:56:00,52.9,51.8,29.76,SE,135,0.0,0.0,96,0.00,,---,0.13,VWS V14.01,2013-05-17 13:56:00,
2013-05-17 06:57:00,52.9,51.8,29.76,SE,135,0.0,0.0,96,0.00,,---,0.13,VWS V14.01,2013-05-17 13:57:00,
2013-05-17 06:58:00,52.9,51.8,29.76,SE,135,0.0,0.0,96,0.00,,---,0.13,VWS V14.01,2013-05-17 13:58:00,
2013-05-17 06:59:00,52.9,51.8,29.76,ESE,112,0.0,0.0,96,0.00,,---,0.13,VWS V14.01,2013-05-17 13:59:00,
2013-05-17 07:00:00,52.9,51.8,29.76,ESE,112,0.0,0.0,96,0.00,,---,0.13,VWS V14.01,2013-05-17 14:00:00,
2013-05-17 07:01:00,52.9,51.8,29.76,ESE,112,0.0,0.0,96,0.00,,---,0.13,VWS V14.01,2013-05-17 14:01:00,
2013-05-17 07:02:00,52.9,51.8,29.76,ESE,112,0.0,0.0,96,0.00,,---,0.13,VWS V14.01,2013-05-17 14:02:00,
2013-05-17 07:03:00,52.9,51.8,29.76,ESE,112,0.0,0.0,96,0.04,,---,0.17,VWS V14.01,2013-05-17 14:03:00,
2013-05-17 07:04:00,52.9,51.8,29.76,ESE,112,0.0,0.0,96,0.04,,---,0.17,VWS V14.01,2013-05-17 14:04:00,
2013-05-17 07:05:00,53.1,52.0,29.76,East,90,0.0,0.0,96,0.04,,---,0.17,VWS V14.01,2013-05-17 14:05:00,
2013-05-17 07:06:00,53.1,52.0,29.76,East,90,0.0,0.0,96,0.04,,---,0.17,VWS V14.01,2013-05-17 14:06:00,
2013-05-17 07:07:00,53.1,52.0,29.76,East,90,0.0,0.0,96,0.04,,---,0.17,VWS V14.01,2013-05-17 14:07:00,
2013-05-17 07:08:00,53.1,52.0,29.76,ESE,112,0.0,1.1,96,0.04,,---,0.17,VWS V14.01,2013-05-17 14:08:00,
2013-05-17 07:09:00,53.1,52.0,29.76,ESE,112,0.0,0.0,96,0.04,,---,0.17,VWS V14.01,2013-05-17 14:09:00,
2013-05-17 07:10:00,53.1,52.0,29.76,SSE,158,0.0,1.6,96,0.04,,---,0.17,VWS V14.01,2013-05-17 14:10:00,
2013-05-17 07:11:00,53.1,52.0,29.76,SSE,158,0.0,1.6,96,0.04,,---,0.17,VWS V14.01,2013-05-17 14:11:00,
2013-05-17 07:12:00,53.1,52.0,29.76,SSE,158,0.0,1.1,96,0.04,,---,0.17,VWS V14.01,2013-05-17 14:12:00,
2013-05-17 07:13:00,53.1,52.2,29.76,SSE,158,0.0,0.0,97,0.04,,---,0.17,VWS V14.01,2013-05-17 14:13:00,
2013-05-17 07:14:00,53.2,52.4,29.76,SSE,158,0.0,0.0,97,0.04,,---,0.17,VWS V14.01,2013-05-17 14:14:00,
2013-05-17 07:15:00,53.2,52.4,29.76,ESE,112,0.0,0.0,97,0.04,,---,0.17,VWS V14.01,2013-05-17 14:15:00,
2013-05-17 07:16:00,53.2,52.4,29.76,ESE,112,0.0,0.0,97,0.04,,---,0.17,VWS V14.01,2013-05-17 14:16:00,
2013-05-17 07:17:00,53.2,52.1,29.76,ESE,112,0.0,0.0,96,0.04,,---,0.17,VWS V14.01,2013-05-17 14:17:00,
2013-05-17 07:18:00,53.2,52.1,29.76,ESE,112,0.0,0.0,96,0.04,,---,0.17,VWS V14.01,2013-05-17 14:18:00,
2013-05-17 07:19:00,53.2,52.1,29.76,ESE,112,0.0,0.0,96,0.04,,---,0.17,VWS V14.01,2013-05-17 14:19:00,
2013-05-17 07:20:00,53.4,52.6,29.76,ESE,112,0.0,0.0,97,0.04,,---,0.59,VWS V14.01,2013-05-17 14:20:00,
2013-05-17 07:21:00,53.4,52.6,29.76,ESE,112,2.5,2.5,97,0.04,,---,0.17,VWS V14.01,2013-05-17 14:21:00,
2013-05-17 07:22:00,53.4,52.6,29.76,ESE,112,0.0,2.5,97,0.04,,---,0.17,VWS V14.01,2013-05-17 14:22:00,
2013-05-17 07:23:00,53.4,52.6,29.76,ESE,112,0.0,0.0,97,0.04,,---,0.17,VWS V14.01,2013-05-17 14:23:00,
2013-05-17 07:24:00,53.4,52.6,29.76,ESE,112,0.0,0.0,97,0.04,,---,0.17,VWS V14.01,2013-05-17 14:24:00,
2013-05-17 07:25:00,53.4,52.6,29.76,ESE,112,0.0,0.0,97,0.04,,---,0.17,VWS V14.01,2013-05-17 14:25:00,
2013-05-17 07:26:00,53.6,52.5,29.76,ESE,112,0.0,0.0,96,0.04,,---,0.17,VWS V14.01,2013-05-17 14:26:00,
2013-05-17 07:27:00,53.6,52.5,29.76,ESE,112,0.0,0.0,96,0.04,,---,0.17,VWS V14.01,2013-05-17 14:27:00,
2013-05-17 07:28:00,53.6,52.5,29.76,ESE,112,0.0,0.0,96,0.04,,---,0.17,VWS V14.01,2013-05-17 14:28:00,
2013-05-17 07:29:00,53.6,52.5,29.76,East,90,0.0,0.0,96,0.04,,---,0.17,VWS V14.01,2013-05-17 14:29:00,
2013-05-17 07:30:00,53.6,52.5,29.76,ESE,112,0.9,0.9,96,0.04,,---,0.17,VWS V14.01,2013-05-17 14:30:00,
2013-05-17 07:31:00,53.6,52.5,29.76,East,90,1.1,1.1,96,0.04,,---,0.17,VWS V14.01,2013-05-17 14:31:00,
2013-05-17 07:32:00,53.6,52.5,29.76,ENE,68,0.0,1.3,96,0.04,,---,0.17,VWS V14.01,2013-05-17 14:32:00,
2013-05-17 07:33:00,53.6,52.5,29.76,ESE,112,0.0,0.0,96,0.04,,---,0.17,VWS V14.01,2013-05-17 14:33:00,
2013-05-17 07:34:00,53.6,52.5,29.76,ESE,112,0.0,0.0,96,0.04,,---,0.17,VWS V14.01,2013-05-17 14:34:00,
2013-05-17 07:35:00,53.8,52.7,29.76,ENE,68,0.0,0.0,96,0.04,,---,0.17,VWS V14.01,2013-05-17 14:35:00,
2013-05-17 07:36:00,53.6,52.5,29.76,ENE,68,0.9,0.9,96,0.04,,---,0.17,VWS V14.01,2013-05-17 14:36:00,
2013-05-17 07:37:00,53.6,52.5,29.76,ENE,68,0.9,0.9,96,0.04,,---,0.17,VWS V14.01,2013-05-17 14:37:00,
2013-05-17 07:38:00,53.8,52.7,29.76,ENE,68,0.0,0.9,96,0.04,,---,0.17,VWS V14.01,2013-05-17 14:38:00,
2013-05-17 07:39:00,53.8,52.7,29.76,ESE,112,0.0,0.0,96,0.04,,---,0.17,VWS V14.01,2013-05-17 14:39:00,
2013-05-17 07:40:00,53.8,52.7,29.76,ESE,112,1.1,1.6,96,0.04,,---,0.17,VWS V14.01,2013-05-17 14:40:00,
2013-05-17 07:41:00,53.8,52.4,29.76,SE,135,1.3,1.6,95,0.04,,---,0.17,VWS V14.01,2013-05-17 14:41:00,
2013-05-17 07:42:00,53.8,52.4,29.76,SSE,158,0.0,2.0,95,0.04,,---,0.17,VWS V14.01,2013-05-17 14:42:00,
2013-05-17 07:43:00,53.8,52.4,29.76,ESE,112,0.0,0.0,95,0.04,,---,0.17,VWS V14.01,2013-05-17 14:43:00,
2013-05-17 07:44:00,53.8,52.4,29.76,ESE,112,1.6,2.5,95,0.04,,---,0.17,VWS V14.01,2013-05-17 14:44:00,
2013-05-17 07:45:00,53.8,52.4,29.76,ESE,112,1.3,1.3,95,0.04,,---,0.17,VWS V14.01,2013-05-17 14:45:00,
2013-05-17 07:46:00,53.8,52.4,29.76,East,90,1.1,2.0,95,0.04,,---,0.17,VWS V14.01,2013-05-17 14:46:00,
2013-05-17 07:47:00,53.8,52.4,29.76,SE,135,0.9,1.1,95,0.04,,---,0.17,VWS V14.01,2013-05-17 14:47:00,
2013-05-17 07:48:00,53.8,52.4,29.76,ENE,68,0.0,0.9,95,0.04,,---,0.17,VWS V14.01,2013-05-17 14:48:00,
2013-05-17 07:49:00,54.0,52.6,29.76,SE,135,0.9,1.1,95,0.04,,---,0.17,VWS V14.01,2013-05-17 14:49:00,
2013-05-17 07:50:00,54.0,52.6,29.76,East,90,0.0,0.0,95,0.04,,---,0.17,VWS V14.01,2013-05-17 14:50:00,
2013-05-17 07:51:00,54.0,52.6,29.76,ENE,68,0.0,0.0,95,0.04,,---,0.17,VWS V14.01,2013-05-17 14:51:00,
2013-05-17 07:52:00,54.0,52.6,29.76,ENE,68,0.0,0.0,95,0.04,,---,0.17,VWS V14.01,2013-05-17 14:52:00,
2013-05-17 07:53:00,54.0,52.6,29.76,SSE,158,2.0,2.5,95,0.04,,---,0.17,VWS V14.01,2013-05-17 14:53:00,
2013-05-17 07:54:00,54.0,52.6,29.76,SSE,158,1.3,4.7,95,0.04,,---,0.17,VWS V14.01,2013-05-17 14:54:00,
2013-05-17 07:55:00,54.0,52.6,29.76,NE,45,1.1,1.1,95,0.04,,---,0.17,VWS V14.01,2013-05-17 14:55:00,
2013-05-17 07:56:00,54.0,52.6,29.76,NE,45,1.3,1.3,95,0.04,,---,0.17,VWS V14.01,2013-05-17 14:56:00,
2013-05-17 07:57:00,54.0,52.6,29.76,NE,45,1.6,1.6,95,0.04,,---,0.17,VWS V14.01,2013-05-17 14:57:00,
2013-05-17 07:58:00,54.0,52.6,29.76,ESE,112,0.0,1.6,95,0.04,,---,0.17,VWS V14.01,2013-05-17 14:58:00,
2013-05-17 07:59:00,54.0,52.6,29.76,SE,135,3.6,3.6,95,0.04,,---,0.17,VWS V14.01,2013-05-17 14:59:00,
2013-05-17 08:00:00,53.8,52.4,29.79,SSE,158,1.6,1.6,95,0.04,,---,0.17,VWS V14.01,2013-05-17 15:00:00,
2013-05-17 08:01:00,53.8,52.4,29.80,SSE,158,3.1,3.1,95,0.04,,---,0.17,VWS V14.01,2013-05-17 15:01:00,
2013-05-17 08:02:00,53.8,52.4,29.80,South,180,1.3,3.1,95,0.04,,---,0.17,VWS V14.01,2013-05-17 15:02:00,
2013-05-17 08:03:00,53.8,52.1,29.80,ESE,112,0.0,1.3,94,0.04,,---,0.17,VWS V14.01,2013-05-17 15:03:00,
2013-05-17 08:04:00,53.8,52.1,29.80,SE,135,0.0,0.0,94,0.00,,---,0.17,VWS V14.01,2013-05-17 15:04:00,
2013-05-17 08:05:00,53.8,52.1,29.79,ESE,112,0.0,1.3,94,0.00,,---,0.17,VWS V14.01,2013-05-17 15:05:00,
2013-05-17 08:06:00,53.8,52.1,29.80,ESE,112,0.0,1.3,94,0.00,,---,0.17,VWS V14.01,2013-05-17 15:06:00,
2013-05-17 08:07:00,53.8,52.1,29.80,East,90,1.1,1.3,94,0.00,,---,0.17,VWS V14.01,2013-05-17 15:07:00,
2013-05-17 08:08:00,53.8,52.1,29.80,East,90,0.0,1.1,94,0.00,,---,0.17,VWS V14.01,2013-05-17 15:08:00,
2013-05-17 08:09:00,53.8,52.1,29.80,East,90,0.0,0.0,94,0.00,,---,0.17,VWS V14.01,2013-05-17 15:09:00,
2013-05-17 08:10:00,53.8,52.1,29.79,ESE,112,0.0,0.0,94,0.00,,---,0.17,VWS V14.01,2013-05-17 15:10:00,
2013-05-17 08:11:00,53.8,52.1,29.80,South,180,2.2,2.2,94,0.00,,---,0.17,VWS V14.01,2013-05-17 15:11:00,
2013-05-17 08:12:00,53.8,52.1,29.80,South,180,0.0,2.2,94,0.00,,---,0.17,VWS V14.01,2013-05-17 15:12:00,
2013-05-17 08:13:00,53.8,52.1,29.80,SSE,158,0.0,0.0,94,0.00,,---,0.17,VWS V14.01,2013-05-17 15:13:00,
2013-05-17 08:14:00,53.8,52.1,29.80,SSE,158,0.0,0.0,94,0.00,,---,0.17,VWS V14.01,2013-05-17 15:14:00,
2013-05-17 08:15:00,54.0,52.3,29.76,SSE,158,0.0,0.0,94,0.00,,---,0.17,VWS V14.01,2013-05-17 15:15:00,
2013-05-17 08:16:00,54.0,52.3,29.76,SSE,158,0.0,0.0,94,0.00,,---,0.17,VWS V14.01,2013-05-17 15:16:00,
2013-05-17 08:17:00,54.0,52.3,29.76,ESE,112,0.0,0.0,94,0.00,,---,0.17,VWS V14.01,2013-05-17 15:17:00,
2013-05-17 08:18:00,54.0,52.3,29.76,ESE,112,0.0,0.0,94,0.00,,---,0.17,VWS V14.01,2013-05-17 15:18:00,
2013-05-17 08:19:00,54.0,52.3,29.76,South,180,2.0,2.0,94,0.00,,---,0.17,VWS V14.01,2013-05-17 15:19:00,
2013-05-17 08:20:00,54.0,52.3,29.76,SSE,158,0.0,0.0,94,0.00,,---,0.17,VWS V14.01,2013-05-17 15:20:00,
2013-05-17 08:21:00,54.1,52.5,29.76,SSE,158,0.0,0.0,94,0.00,,---,0.17,VWS V14.01,2013-05-17 15:21:00,
2013-05-17 08:22:00,54.1,52.5,29.76,SE,135,1.3,1.3,94,0.00,,---,0.17,VWS V14.01,2013-05-17 15:22:00,
2013-05-17 08:23:00,54.1,52.5,29.76,ESE,112,1.3,2.0,94,0.00,,---,0.17,VWS V14.01,2013-05-17 15:23:00,
2013-05-17 08:24:00,54.1,52.5,29.76,ESE,112,0.0,1.3,94,0.00,,---,0.17,VWS V14.01,2013-05-17 15:24:00,
2013-05-17 08:25:00,54.1,52.5,29.76,ESE,112,0.0,0.0,94,0.00,,---,0.17,VWS V14.01,2013-05-17 15:25:00,
2013-05-17 08:26:00,54.1,52.5,29.76,ESE,112,0.0,0.0,94,0.00,,---,0.17,VWS V14.01,2013-05-17 15:26:00,
2013-05-17 08:27:00,54.1,52.5,29.76,SSE,158,2.0,2.0,94,0.00,,---,0.17,VWS V14.01,2013-05-17 15:27:00,
2013-05-17 08:28:00,54.3,52.6,29.76,ESE,112,0.0,2.0,94,0.00,,---,0.17,VWS V14.01,2013-05-17 15:28:00,
2013-05-17 08:29:00,54.3,52.6,29.76,ESE,112,0.0,0.0,94,0.00,,---,0.17,VWS V14.01,2013-05-17 15:29:00,
2013-05-17 08:30:00,54.3,52.6,29.79,ESE,112,0.0,0.0,94,0.00,,---,0.17,VWS V14.01,2013-05-17 15:30:00,
2013-05-17 08:31:00,54.3,52.6,29.80,ESE,112,0.0,0.0,94,0.00,,---,0.17,VWS V14.01,2013-05-17 15:31:00,
2013-05-17 08:32:00,54.3,52.6,29.80,ESE,112,0.0,0.0,94,0.00,,---,0.17,VWS V14.01,2013-05-17 15:32:00,
2013-05-17 08:33:00,54.3,52.6,29.80,ESE,112,0.0,0.0,94,0.00,,---,0.17,VWS V14.01,2013-05-17 15:33:00,
2013-05-17 08:34:00,54.3,52.6,29.80,ESE,112,0.0,0.0,94,0.00,,---,0.17,VWS V14.01,2013-05-17 15:34:00,
2013-05-17 08:35:00,54.5,52.8,29.79,ESE,112,0.0,0.0,94,0.00,,---,0.17,VWS V14.01,2013-05-17 15:35:00,
2013-05-17 08:36:00,54.5,52.5,29.80,ESE,112,0.0,0.0,93,0.00,,---,0.17,VWS V14.01,2013-05-17 15:36:00,
2013-05-17 08:37:00,54.5,52.5,29.80,ESE,112,0.0,0.0,93,0.00,,---,0.17,VWS V14.01,2013-05-17 15:37:00,
2013-05-17 08:38:00,54.7,52.7,29.80,ESE,112,0.0,0.0,93,0.00,,---,0.17,VWS V14.01,2013-05-17 15:38:00,
2013-05-17 08:39:00,54.7,52.7,29.80,ESE,112,0.0,0.0,93,0.00,,---,0.17,VWS V14.01,2013-05-17 15:39:00,
2013-05-17 08:40:00,54.9,52.9,29.79,ESE,112,0.0,0.9,93,0.00,,---,0.17,VWS V14.01,2013-05-17 15:40:00,
2013-05-17 08:41:00,54.9,52.9,29.80,ESE,112,0.0,0.9,93,0.00,,---,0.17,VWS V14.01,2013-05-17 15:41:00,
2013-05-17 08:42:00,54.9,52.9,29.80,ESE,112,0.0,0.0,93,0.00,,---,0.17,VWS V14.01,2013-05-17 15:42:00,
2013-05-17 08:43:00,54.9,52.9,29.80,ESE,112,0.0,0.0,93,0.00,,---,0.17,VWS V14.01,2013-05-17 15:43:00,
2013-05-17 08:44:00,54.9,52.9,29.80,ENE,68,1.1,1.3,93,0.00,,---,0.17,VWS V14.01,2013-05-17 15:44:00,
2013-05-17 08:45:00,55.0,53.1,29.76,East,90,0.9,1.1,93,0.00,,---,0.17,VWS V14.01,2013-05-17 15:45:00,
2013-05-17 08:46:00,55.0,53.1,29.76,East,90,0.0,1.1,93,0.00,,---,0.17,VWS V14.01,2013-05-17 15:46:00,
2013-05-17 08:47:00,55.0,53.1,29.76,East,90,0.0,0.0,93,0.00,,---,0.17,VWS V14.01,2013-05-17 15:47:00,
2013-05-17 08:48:00,55.0,53.1,29.76,East,90,0.0,0.0,93,0.00,,---,0.17,VWS V14.01,2013-05-17 15:48:00,
2013-05-17 08:49:00,55.0,53.1,29.76,East,90,0.0,0.0,93,0.00,,---,0.17,VWS V14.01,2013-05-17 15:49:00,
2013-05-17 08:50:00,55.0,52.8,29.76,ESE,112,0.0,0.0,92,0.00,,---,0.17,VWS V14.01,2013-05-17 15:50:00,
2013-05-17 08:51:00,55.2,53.2,29.76,ESE,112,0.0,0.0,93,0.00,,---,0.17,VWS V14.01,2013-05-17 15:51:00,
2013-05-17 08:52:00,55.2,52.9,29.76,ESE,112,0.0,0.0,92,0.00,,---,0.17,VWS V14.01,2013-05-17 15:52:00,
2013-05-17 08:53:00,55.2,52.9,29.76,ESE,112,0.0,0.0,92,0.00,,---,0.17,VWS V14.01,2013-05-17 15:53:00,
2013-05-17 08:54:00,55.4,53.1,29.76,ESE,112,0.0,0.0,92,0.00,,---,0.17,VWS V14.01,2013-05-17 15:54:00,
2013-05-17 08:55:00,55.6,53.3,29.76,ESE,112,0.0,0.0,92,0.00,,---,0.17,VWS V14.01,2013-05-17 15:55:00,
2013-05-17 08:56:00,55.6,53.3,29.76,ESE,112,0.0,0.0,92,0.00,,---,0.17,VWS V14.01,2013-05-17 15:56:00,
2013-05-17 08:57:00,55.6,53.3,29.76,ESE,112,0.0,0.0,92,0.00,,---,0.17,VWS V14.01,2013-05-17 15:57:00,
2013-05-17 08:58:00,55.8,53.5,29.76,ESE,112,0.0,0.0,92,0.00,,---,0.17,VWS V14.01,2013-05-17 15:58:00,
2013-05-17 08:59:00,55.8,53.5,29.76,ESE,112,0.0,0.0,92,0.00,,---,0.17,VWS V14.01,2013-05-17 15:59:00,
2013-05-17 09:00:00,55.9,53.7,29.79,SSE,158,0.0,0.0,92,0.00,,---,0.17,VWS V14.01,2013-05-17 16:00:00,
2013-05-17 09:01:00,55.9,53.7,29.80,SSE,158,0.0,0.0,92,0.00,,---,0.17,VWS V14.01,2013-05-17 16:01:00,
2013-05-17 09:02:00,55.9,53.7,29.80,SE,135,2.5,2.5,92,0.00,,---,0.17,VWS V14.01,2013-05-17 16:02:00,
2013-05-17 09:03:00,55.9,53.4,29.80,NE,45,1.3,2.5,91,0.00,,---,0.17,VWS V14.01,2013-05-17 16:03:00,
2013-05-17 09:04:00,55.9,53.4,29.80,SSE,158,1.1,1.3,91,0.00,,---,0.17,VWS V14.01,2013-05-17 16:04:00,
2013-05-17 09:05:00,56.1,53.5,29.79,SE,135,2.2,2.5,91,0.00,,---,0.17,VWS V14.01,2013-05-17 16:05:00,
2013-05-17 09:06:00,56.1,53.5,29.80,ESE,112,1.1,2.5,91,0.00,,---,0.17,VWS V14.01,2013-05-17 16:06:00,
2013-05-17 09:07:00,56.1,53.5,29.80,ESE,112,0.0,1.1,91,0.00,,---,0.17,VWS V14.01,2013-05-17 16:07:00,
2013-05-17 09:08:00,56.3,53.7,29.80,ESE,112,0.0,0.0,91,0.00,,---,0.17,VWS V14.01,2013-05-17 16:08:00,
2013-05-17 09:09:00,56.3,53.7,29.80,SSW,202,0.0,2.0,91,0.00,,---,0.17,VWS V14.01,2013-05-17 16:09:00,
2013-05-17 09:10:00,56.3,53.4,29.79,SSW,202,0.0,0.0,90,0.00,,---,0.17,VWS V14.01,2013-05-17 16:10:00,
2013-05-17 09:11:00,56.3,53.4,29.80,SSW,202,0.0,0.0,90,0.00,,---,0.17,VWS V14.01,2013-05-17 16:11:00,
2013-05-17 09:12:00,56.5,53.6,29.80,SSW,202,0.0,0.0,90,0.00,,---,0.17,VWS V14.01,2013-05-17 16:12:00,
2013-05-17 09:13:00,56.5,53.6,29.80,SSW,202,0.0,0.0,90,0.00,,---,0.17,VWS V14.01,2013-05-17 16:13:00,
2013-05-17 09:14:00,56.5,53.6,29.80,SSE,158,2.7,2.7,90,0.00,,---,0.17,VWS V14.01,2013-05-17 16:14:00,
2013-05-17 09:15:00,56.5,53.3,29.79,ESE,112,1.3,1.3,89,0.00,,---,0.17,VWS V14.01,2013-05-17 16:15:00,
2013-05-17 09:16:00,56.5,53.3,29.80,East,90,1.1,1.3,89,0.00,,---,0.17,VWS V14.01,2013-05-17 16:16:00,
2013-05-17 09:17:00,56.5,53.3,29.80,ESE,112,0.9,2.2,89,0.00,,---,0.17,VWS V14.01,2013-05-17 16:17:00,
2013-05-17 09:18:00,56.5,53.3,29.80,ESE,112,1.1,2.9,89,0.00,,---,0.17,VWS V14.01,2013-05-17 16:18:00,
2013-05-17 09:19:00,56.5,53.0,29.80,SSE,158,1.3,1.3,88,0.00,,---,0.17,VWS V14.01,2013-05-17 16:19:00,
2013-05-17 09:20:00,56.5,53.0,29.79,SSE,158,0.0,1.3,88,0.00,,---,0.17,VWS V14.01,2013-05-17 16:20:00,
2013-05-17 09:21:00,56.7,52.8,29.80,SSE,158,0.0,1.3,87,0.00,,---,0.17,VWS V14.01,2013-05-17 16:21:00,
2013-05-17 09:22:00,56.7,52.8,29.80,SE,135,0.0,0.0,87,0.00,,---,0.17,VWS V14.01,2013-05-17 16:22:00,
2013-05-17 09:23:00,56.7,52.8,29.80,South,180,3.4,3.4,87,0.00,,---,0.17,VWS V14.01,2013-05-17 16:23:00,
2013-05-17 09:24:00,56.7,52.8,29.80,ESE,112,1.1,3.4,87,0.00,,---,0.17,VWS V14.01,2013-05-17 16:24:00,
2013-05-17 09:25:00,56.5,52.7,29.79,ESE,112,0.0,0.0,87,0.00,,---,0.17,VWS V14.01,2013-05-17 16:25:00,
2013-05-17 09:26:00,56.5,52.7,29.80,ESE,112,0.0,0.0,87,0.00,,---,0.17,VWS V14.01,2013-05-17 16:26:00,
2013-05-17 09:27:00,56.7,52.5,29.80,ESE,112,0.0,0.0,86,0.00,,---,0.17,VWS V14.01,2013-05-17 16:27:00,
2013-05-17 09:28:00,56.5,52.3,29.80,ESE,112,0.0,0.0,86,0.00,,---,0.17,VWS V14.01,2013-05-17 16:28:00,
2013-05-17 09:29:00,56.5,52.3,29.80,ESE,112,0.0,0.0,86,0.00,,---,0.17,VWS V14.01,2013-05-17 16:29:00,
2013-05-17 09:30:00,56.7,52.5,29.76,SSE,158,2.5,3.6,86,0.00,,---,0.17,VWS V14.01,2013-05-17 16:30:00,
2013-05-17 09:31:00,56.7,52.2,29.76,SSE,158,1.6,3.6,85,0.00,,---,0.17,VWS V14.01,2013-05-17 16:31:00,
2013-05-17 09:32:00,56.7,52.2,29.76,SSE,158,1.3,1.6,85,0.00,,---,0.17,VWS V14.01,2013-05-17 16:32:00,
2013-05-17 09:33:00,56.7,52.2,29.76,SSE,158,0.0,1.3,85,0.00,,---,0.17,VWS V14.01,2013-05-17 16:33:00,
2013-05-17 09:34:00,56.7,52.2,29.76,SSE,158,0.0,0.0,85,0.00,,---,0.17,VWS V14.01,2013-05-17 16:34:00,
2013-05-17 09:35:00,56.7,52.2,29.76,SSE,158,0.0,0.9,85,0.00,,---,0.17,VWS V14.01,2013-05-17 16:35:00,
2013-05-17 09:36:00,56.8,52.4,29.76,SSE,158,0.0,0.9,85,0.00,,---,0.17,VWS V14.01,2013-05-17 16:36:00,
2013-05-17 09:37:00,56.8,52.4,29.76,ESE,112,0.0,1.1,85,0.00,,---,0.17,VWS V14.01,2013-05-17 16:37:00,
2013-05-17 09:38:00,56.8,52.4,29.76,SE,135,0.0,0.0,85,0.00,,---,0.17,VWS V14.01,2013-05-17 16:38:00,
2013-05-17 09:39:00,56.8,52.4,29.76,SE,135,0.0,0.0,85,0.00,,---,0.17,VWS V14.01,2013-05-17 16:39:00,
2013-05-17 09:40:00,56.8,52.4,29.76,SSE,158,1.6,1.6,85,0.00,,---,0.17,VWS V14.01,2013-05-17 16:40:00,
2013-05-17 09:41:00,56.8,52.4,29.76,SSE,158,1.1,1.6,85,0.00,,---,0.17,VWS V14.01,2013-05-17 16:41:00,
2013-05-17 09:42:00,56.8,52.4,29.76,SSE,158,1.3,1.3,85,0.00,,---,0.17,VWS V14.01,2013-05-17 16:42:00,
2013-05-17 09:43:00,56.8,52.4,29.76,SSE,158,1.1,2.2,85,0.00,,---,0.17,VWS V14.01,2013-05-17 16:43:00,
2013-05-17 09:44:00,56.8,52.4,29.76,SE,135,1.1,1.1,85,0.00,,---,0.17,VWS V14.01,2013-05-17 16:44:00,
2013-05-17 09:45:00,57.0,52.6,29.79,SSE,158,0.0,0.0,85,0.00,,---,0.17,VWS V14.01,2013-05-17 16:45:00,
2013-05-17 09:46:00,57.0,52.6,29.80,SSE,158,0.0,0.0,85,0.00,,---,0.17,VWS V14.01,2013-05-17 16:46:00,
2013-05-17 09:47:00,57.0,52.6,29.80,SE,135,0.0,0.0,85,0.00,,---,0.17,VWS V14.01,2013-05-17 16:47:00,
2013-05-17 09:48:00,56.8,52.1,29.80,SE,135,0.0,0.0,84,0.00,,---,0.17,VWS V14.01,2013-05-17 16:48:00,
2013-05-17 09:49:00,57.0,52.2,29.80,ESE,112,1.3,1.3,84,0.00,,---,0.17,VWS V14.01,2013-05-17 16:49:00,
2013-05-17 09:50:00,56.8,52.1,29.79,ESE,112,2.0,4.3,84,0.00,,---,0.17,VWS V14.01,2013-05-17 16:50:00,
2013-05-17 09:51:00,56.8,52.1,29.80,East,90,1.3,4.3,84,0.00,,---,0.17,VWS V14.01,2013-05-17 16:51:00,
2013-05-17 09:52:00,56.8,52.1,29.80,ESE,112,0.0,1.3,84,0.00,,---,0.17,VWS V14.01,2013-05-17 16:52:00,
2013-05-17 09:53:00,56.8,52.1,29.80,SSE,158,2.0,2.0,84,0.00,,---,0.17,VWS V14.01,2013-05-17 16:53:00,
2013-05-17 09:54:00,56.8,52.1,29.80,ESE,112,0.0,2.0,84,0.00,,---,0.17,VWS V14.01,2013-05-17 16:54:00,
2013-05-17 09:55:00,56.8,52.1,29.79,East,90,1.3,1.3,84,0.00,,---,0.17,VWS V14.01,2013-05-17 16:55:00,
2013-05-17 09:56:00,56.8,52.1,29.80,ENE,68,0.9,1.3,84,0.00,,---,0.17,VWS V14.01,2013-05-17 16:56:00,
2013-05-17 09:57:00,56.8,51.7,29.80,ENE,68,0.0,1.1,83,0.00,,---,0.17,VWS V14.01,2013-05-17 16:57:00,
2013-05-17 09:58:00,56.8,51.7,29.80,ESE,112,2.7,2.7,83,0.00,,---,0.17,VWS V14.01,2013-05-17 16:58:00,
2013-05-17 09:59:00,56.7,51.2,29.80,NE,45,1.1,3.1,82,0.00,,---,0.17,VWS V14.01,2013-05-17 16:59:00,
2013-05-17 10:00:00,56.8,51.4,29.79,SSE,158,1.3,2.2,82,0.00,,---,0.17,VWS V14.01,2013-05-17 17:00:00,
2013-05-17 10:01:00,56.8,51.4,29.80,SSE,158,0.9,2.2,82,0.00,,---,0.17,VWS V14.01,2013-05-17 17:01:00,
2013-05-17 10:02:00,56.8,51.4,29.80,ESE,112,0.0,0.9,82,0.00,,---,0.17,VWS V14.01,2013-05-17 17:02:00,
2013-05-17 10:03:00,56.8,51.4,29.80,East,90,0.0,0.0,82,0.00,,---,0.17,VWS V14.01,2013-05-17 17:03:00,
2013-05-17 10:04:00,56.8,51.4,29.80,ESE,112,0.0,0.0,82,0.00,,---,0.17,VWS V14.01,2013-05-17 17:04:00,
2013-05-17 10:05:00,56.8,51.4,29.79,SE,135,0.0,1.1,82,0.00,,---,0.17,VWS V14.01,2013-05-17 17:05:00,
2013-05-17 10:06:00,56.8,51.4,29.80,SSE,158,1.1,1.1,82,0.00,,---,0.17,VWS V14.01,2013-05-17 17:06:00,
2013-05-17 10:07:00,56.8,51.4,29.80,SSE,158,0.0,1.3,82,0.00,,---,0.17,VWS V14.01,2013-05-17 17:07:00,
2013-05-17 10:08:00,56.8,51.4,29.80,ESE,112,0.0,0.0,82,0.00,,---,0.17,VWS V14.01,2013-05-17 17:08:00,
2013-05-17 10:09:00,57.0,51.6,29.80,SSE,158,1.3,1.3,82,0.00,,---,0.17,VWS V14.01,2013-05-17 17:09:00,
2013-05-17 10:10:00,57.0,51.6,29.79,South,180,0.0,1.3,82,0.00,,---,0.17,VWS V14.01,2013-05-17 17:10:00,
2013-05-17 10:11:00,57.0,51.6,29.80,ESE,112,0.0,1.3,82,0.00,,---,0.17,VWS V14.01,2013-05-17 17:11:00,
2013-05-17 10:12:00,57.0,51.3,29.80,East,90,0.9,1.3,81,0.00,,---,0.17,VWS V14.01,2013-05-17 17:12:00,
2013-05-17 10:13:00,57.2,51.4,29.80,SSE,158,0.0,1.3,81,0.00,,---,0.17,VWS V14.01,2013-05-17 17:13:00,
2013-05-17 10:14:00,57.2,51.4,29.80,SSE,158,1.1,3.1,81,0.00,,---,0.17,VWS V14.01,2013-05-17 17:14:00,
2013-05-17 10:15:00,57.2,51.4,29.79,SSE,158,0.0,0.0,81,0.00,,---,0.17,VWS V14.01,2013-05-17 17:15:00,
2013-05-17 10:16:00,57.4,51.6,29.80,SSE,158,0.0,0.9,81,0.00,,---,0.17,VWS V14.01,2013-05-17 17:16:00,
2013-05-17 10:17:00,57.4,51.6,29.80,SSE,158,0.0,0.0,81,0.00,,---,0.17,VWS V14.01,2013-05-17 17:17:00,
2013-05-17 10:18:00,57.6,51.8,29.80,SE,135,2.7,2.7,81,0.00,,---,0.17,VWS V14.01,2013-05-17 17:18:00,
2013-05-17 10:19:00,57.6,51.8,29.80,SSE,158,2.5,3.4,81,0.00,,---,0.17,VWS V14.01,2013-05-17 17:19:00,
2013-05-17 10:20:00,57.6,51.5,29.79,ESE,112,0.0,0.0,80,0.00,,---,0.17,VWS V14.01,2013-05-17 17:20:00,
2013-05-17 10:21:00,57.6,51.4,29.80,ENE,68,1.6,2.5,80,0.00,,---,0.17,VWS V14.01,2013-05-17 17:21:00,
2013-05-17 10:22:00,57.6,51.1,29.80,SE,135,3.6,4.0,79,0.00,,---,0.17,VWS V14.01,2013-05-17 17:22:00,
2013-05-17 10:23:00,57.6,50.8,29.80,SSW,202,2.5,3.6,78,0.00,,---,0.17,VWS V14.01,2013-05-17 17:23:00,
2013-05-17 10:24:00,57.6,50.8,29.80,SE,135,1.1,2.5,78,0.00,,---,0.17,VWS V14.01,2013-05-17 17:24:00,
2013-05-17 10:25:00,57.7,50.6,29.79,SE,135,0.0,0.0,77,0.00,,---,0.17,VWS V14.01,2013-05-17 17:25:00,
2013-05-17 10:26:00,57.7,50.6,29.80,SE,135,0.0,0.0,77,0.00,,---,0.17,VWS V14.01,2013-05-17 17:26:00,
2013-05-17 10:27:00,57.7,50.9,29.80,South,180,2.7,5.8,78,0.00,,---,0.17,VWS V14.01,2013-05-17 17:27:00,
2013-05-17 10:28:00,57.7,50.6,29.80,ESE,112,3.4,3.4,77,0.00,,---,0.17,VWS V14.01,2013-05-17 17:28:00,
2013-05-17 10:29:00,57.7,50.6,29.80,ESE,112,1.3,3.4,77,0.00,,---,0.17,VWS V14.01,2013-05-17 17:29:00,
2013-05-17 10:30:00,57.7,50.6,29.79,ESE,112,1.1,1.3,77,0.00,,---,0.17,VWS V14.01,2013-05-17 17:30:00,
2013-05-17 10:31:00,57.9,50.4,29.80,ESE,112,0.0,1.3,76,0.00,,---,0.17,VWS V14.01,2013-05-17 17:31:00,
2013-05-17 10:32:00,57.9,50.8,29.80,ESE,112,0.0,1.1,77,0.00,,---,0.17,VWS V14.01,2013-05-17 17:32:00,
2013-05-17 10:33:00,57.9,50.8,29.80,NE,45,0.0,0.0,77,0.00,,---,0.17,VWS V14.01,2013-05-17 17:33:00,
2013-05-17 10:34:00,58.1,50.9,29.80,NE,45,1.3,1.3,77,0.00,,---,0.17,VWS V14.01,2013-05-17 17:34:00,
2013-05-17 10:35:00,58.1,50.9,29.79,NE,45,0.0,0.0,77,0.00,,---,0.17,VWS V14.01,2013-05-17 17:35:00,
2013-05-17 10:36:00,58.1,50.9,29.80,East,90,0.0,0.0,77,0.00,,---,0.17,VWS V14.01,2013-05-17 17:36:00,
2013-05-17 10:37:00,58.1,50.9,29.80,ESE,112,0.0,0.0,77,0.00,,---,0.17,VWS V14.01,2013-05-17 17:37:00,
2013-05-17 10:38:00,58.1,50.9,29.80,SSW,202,1.1,1.6,77,0.00,,---,0.17,VWS V14.01,2013-05-17 17:38:00,
2013-05-17 10:39:00,58.1,50.9,29.80,SSE,158,0.0,1.1,77,0.00,,---,0.17,VWS V14.01,2013-05-17 17:39:00,
2013-05-17 10:40:00,58.3,51.5,29.79,ESE,112,1.1,1.1,78,0.00,,---,0.17,VWS V14.01,2013-05-17 17:40:00,
2013-05-17 10:41:00,58.3,51.1,29.80,SE,135,0.0,1.1,77,0.00,,---,0.17,VWS V14.01,2013-05-17 17:41:00,
2013-05-17 10:42:00,58.3,51.1,29.80,SSE,158,0.0,0.0,77,0.00,,---,0.17,VWS V14.01,2013-05-17 17:42:00,
2013-05-17 10:43:00,58.3,50.4,29.80,SSE,158,0.0,0.0,75,0.00,,---,0.17,VWS V14.01,2013-05-17 17:43:00,
2013-05-17 10:44:00,58.3,50.8,29.80,SSE,158,0.0,0.0,76,0.00,,---,0.17,VWS V14.01,2013-05-17 17:44:00,
2013-05-17 10:45:00,58.3,50.8,29.79,SE,135,0.0,0.0,76,0.00,,---,0.17,VWS V14.01,2013-05-17 17:45:00,
2013-05-17 10:46:00,58.3,50.8,29.80,SE,135,0.0,0.0,76,0.00,,---,0.17,VWS V14.01,2013-05-17 17:46:00,
2013-05-17 10:47:00,58.1,50.6,29.80,SE,135,0.0,0.0,76,0.00,,---,0.17,VWS V14.01,2013-05-17 17:47:00,
2013-05-17 10:48:00,58.1,50.6,29.80,SE,135,0.0,0.0,76,0.00,,---,0.17,VWS V14.01,2013-05-17 17:48:00,
2013-05-17 10:49:00,58.1,50.6,29.80,ESE,112,0.0,0.0,76,0.00,,---,0.17,VWS V14.01,2013-05-17 17:49:00,
2013-05-17 10:50:00,58.1,50.9,29.79,ESE,112,0.0,0.0,77,0.00,,---,0.17,VWS V14.01,2013-05-17 17:50:00,
2013-05-17 10:51:00,58.1,50.9,29.80,SSE,158,1.1,1.3,77,0.00,,---,0.17,VWS V14.01,2013-05-17 17:51:00,
2013-05-17 10:52:00,58.1,50.9,29.80,SSE,158,1.3,1.3,77,0.00,,---,0.17,VWS V14.01,2013-05-17 17:52:00,
2013-05-17 10:53:00,57.9,50.4,29.80,SSE,158,0.0,1.3,76,0.00,,---,0.17,VWS V14.01,2013-05-17 17:53:00,
2013-05-17 10:54:00,57.9,50.8,29.80,SSE,158,0.0,2.0,77,0.00,,---,0.17,VWS V14.01,2013-05-17 17:54:00,
2013-05-17 10:55:00,57.9,50.8,29.79,SSE,158,2.5,2.5,77,0.00,,---,0.17,VWS V14.01,2013-05-17 17:55:00,
2013-05-17 10:56:00,57.9,50.8,29.80,SSE,158,1.3,2.5,77,0.00,,---,0.17,VWS V14.01,2013-05-17 17:56:00,
2013-05-17 10:57:00,57.9,50.8,29.80,SSE,158,0.9,2.0,77,0.00,,---,0.17,VWS V14.01,2013-05-17 17:57:00,
2013-05-17 10:58:00,57.9,50.8,29.80,SSE,158,0.0,0.9,77,0.00,,---,0.17,VWS V14.01,2013-05-17 17:58:00,
2013-05-17 10:59:00,57.9,50.8,29.80,SSE,158,0.0,0.0,77,0.00,,---,0.17,VWS V14.01,2013-05-17 17:59:00,
2013-05-17 11:00:00,57.9,50.8,29.79,SSE,158,1.1,1.1,77,0.00,,---,0.17,VWS V14.01,2013-05-17 18:00:00,
2013-05-17 11:01:00,57.9,50.8,29.76,SSE,158,0.0,1.1,77,0.00,,---,0.17,VWS V14.01,2013-05-17 18:01:00,
2013-05-17 11:02:00,57.9,50.8,29.76,ESE,112,2.5,2.5,77,0.00,,---,0.17,VWS V14.01,2013-05-17 18:02:00,
2013-05-17 11:03:00,57.9,50.8,29.76,ESE,112,0.9,2.5,77,0.00,,---,0.17,VWS V14.01,2013-05-17 18:03:00,
2013-05-17 11:04:00,57.9,51.1,29.76,ESE,112,0.0,0.0,78,0.00,,---,0.17,VWS V14.01,2013-05-17 18:04:00,
2013-05-17 11:05:00,57.9,51.1,29.76,ESE,112,0.0,0.9,78,0.00,,---,0.17,VWS V14.01,2013-05-17 18:05:00,
2013-05-17 11:06:00,57.9,51.1,29.76,ESE,112,0.0,0.0,78,0.00,,---,0.17,VWS V14.01,2013-05-17 18:06:00,
2013-05-17 11:07:00,58.1,51.3,29.76,ESE,112,0.0,0.0,78,0.00,,---,0.17,VWS V14.01,2013-05-17 18:07:00,
2013-05-17 11:08:00,58.1,51.3,29.76,ESE,112,0.0,0.0,78,0.00,,---,0.17,VWS V14.01,2013-05-17 18:08:00,
2013-05-17 11:09:00,58.1,51.3,29.76,South,180,0.9,0.9,78,0.00,,---,0.17,VWS V14.01,2013-05-17 18:09:00,
2013-05-17 11:10:00,58.1,51.3,29.76,SSE,158,0.0,0.9,78,0.00,,---,0.17,VWS V14.01,2013-05-17 18:10:00,
2013-05-17 11:11:00,58.1,51.3,29.76,SSE,158,2.2,2.2,78,0.00,,---,0.17,VWS V14.01,2013-05-17 18:11:00,
2013-05-17 11:12:00,58.1,51.3,29.76,SSE,158,0.0,2.2,78,0.00,,---,0.17,VWS V14.01,2013-05-17 18:12:00,
2013-05-17 11:13:00,58.1,50.9,29.76,SSE,158,0.0,0.0,77,0.00,,---,0.17,VWS V14.01,2013-05-17 18:13:00,
2013-05-17 11:14:00,58.1,50.9,29.76,SSE,158,0.0,0.0,77,0.00,,---,0.17,VWS V14.01,2013-05-17 18:14:00,
2013-05-17 11:15:00,58.1,50.9,29.76,SSE,158,0.0,0.9,77,0.00,,---,0.17,VWS V14.01,2013-05-17 18:15:00,
2013-05-17 11:16:00,58.3,51.1,29.80,ESE,112,0.0,0.0,77,0.00,,---,0.17,VWS V14.01,2013-05-17 18:16:00,
2013-05-17 11:17:00,58.1,50.9,29.80,SE,135,1.3,1.3,77,0.00,,---,0.17,VWS V14.01,2013-05-17 18:17:00,
2013-05-17 11:18:00,58.1,50.9,29.80,SE,135,1.3,1.3,77,0.00,,---,0.17,VWS V14.01,2013-05-17 18:18:00,
2013-05-17 11:19:00,58.1,50.9,29.79,SSE,158,1.1,2.5,77,0.00,,---,0.17,VWS V14.01,2013-05-17 18:19:00,
2013-05-17 11:20:00,58.1,50.9,29.80,ESE,112,0.0,0.0,77,0.00,,---,0.17,VWS V14.01,2013-05-17 18:20:00,
2013-05-17 11:21:00,58.1,50.9,29.80,SSE,158,0.0,2.5,77,0.00,,---,0.17,VWS V14.01,2013-05-17 18:21:00,
2013-05-17 11:22:00,58.1,50.9,29.80,SSE,158,1.1,1.1,77,0.00,,---,0.17,VWS V14.01,2013-05-17 18:22:00,
2013-05-17 11:23:00,58.1,50.9,29.80,SE,135,0.0,1.1,77,0.00,,---,0.17,VWS V14.01,2013-05-17 18:23:00,
2013-05-17 11:24:00,58.1,50.9,29.79,SSE,158,0.0,0.9,77,0.00,,---,0.17,VWS V14.01,2013-05-17 18:24:00,
2013-05-17 11:25:00,58.1,50.9,29.80,SSE,158,0.9,2.5,77,0.00,,---,0.17,VWS V14.01,2013-05-17 18:25:00,
2013-05-17 11:26:00,57.9,50.8,29.80,SSE,158,0.0,0.9,77,0.00,,---,0.17,VWS V14.01,2013-05-17 18:26:00,
2013-05-17 11:27:00,57.9,50.8,29.80,SSE,158,1.3,1.3,77,0.00,,---,0.17,VWS V14.01,2013-05-17 18:27:00,
2013-05-17 11:28:00,58.1,51.3,29.80,SSE,158,0.0,1.3,78,0.00,,---,0.17,VWS V14.01,2013-05-17 18:28:00,
2013-05-17 11:29:00,58.1,50.9,29.79,South,180,1.1,1.1,77,0.00,,---,0.17,VWS V14.01,2013-05-17 18:29:00,
2013-05-17 11:30:00,58.1,50.9,29.80,South,180,1.1,2.5,77,0.00,,---,0.17,VWS V14.01,2013-05-17 18:30:00,
2013-05-17 11:31:00,58.1,51.3,29.80,SSE,158,0.0,1.1,78,0.00,,---,0.17,VWS V14.01,2013-05-17 18:31:00,
2013-05-17 11:32:00,58.1,51.3,29.80,SSE,158,0.0,1.1,78,0.00,,---,0.17,VWS V14.01,2013-05-17 18:32:00,
2013-05-17 11:33:00,58.1,51.6,29.80,East,90,1.1,1.1,79,0.00,,---,0.17,VWS V14.01,2013-05-17 18:33:00,
2013-05-17 11:34:00,58.1,51.3,29.79,ESE,112,0.0,0.0,78,0.00,,---,0.17,VWS V14.01,2013-05-17 18:34:00,
2013-05-17 11:35:00,58.1,51.3,29.80,ESE,112,0.0,2.5,78,0.00,,---,0.17,VWS V14.01,2013-05-17 18:35:00,
2013-05-17 11:36:00,58.1,51.3,29.80,SSE,158,2.2,2.2,78,0.00,,---,0.17,VWS V14.01,2013-05-17 18:36:00,
2013-05-17 11:37:00,58.1,50.9,29.80,South,180,2.5,2.5,77,0.00,,---,0.17,VWS V14.01,2013-05-17 18:37:00,
2013-05-17 11:38:00,58.1,50.9,29.80,South,180,2.2,2.5,77,0.00,,---,0.17,VWS V14.01,2013-05-17 18:38:00,
2013-05-17 11:39:00,58.1,50.9,29.79,SE,135,2.0,2.0,77,0.00,,---,0.17,VWS V14.01,2013-05-17 18:39:00,
2013-05-17 11:40:00,58.1,50.9,29.80,SE,135,2.0,2.0,77,0.00,,---,0.17,VWS V14.01,2013-05-17 18:40:00,
2013-05-17 11:41:00,58.1,50.9,29.80,ESE,112,2.7,2.7,77,0.00,,---,0.17,VWS V14.01,2013-05-17 18:41:00,
2013-05-17 11:42:00,58.3,51.1,29.80,ESE,112,1.3,2.7,77,0.00,,---,0.17,VWS V14.01,2013-05-17 18:42:00,
2013-05-17 11:43:00,58.3,51.1,29.80,SE,135,1.1,1.6,77,0.00,,---,0.17,VWS V14.01,2013-05-17 18:43:00,
2013-05-17 11:44:00,58.5,51.6,29.79,SE,135,1.3,1.6,78,0.00,,---,0.17,VWS V14.01,2013-05-17 18:44:00,
2013-05-17 11:45:00,58.5,51.6,29.80,ESE,112,1.6,1.6,78,0.00,,---,0.17,VWS V14.01,2013-05-17 18:45:00,
2013-05-17 11:46:00,58.6,51.8,29.80,South,180,1.1,1.6,78,0.00,,---,0.17,VWS V14.01,2013-05-17 18:46:00,
2013-05-17 11:47:00,58.8,52.0,29.80,South,180,0.0,1.1,78,0.00,,---,0.17,VWS V14.01,2013-05-17 18:47:00,
2013-05-17 11:48:00,58.8,52.0,29.80,SSE,158,0.0,2.2,78,0.00,,---,0.17,VWS V14.01,2013-05-17 18:48:00,
2013-05-17 11:49:00,59.2,52.0,29.79,SSE,158,2.0,2.0,77,0.00,,---,0.17,VWS V14.01,2013-05-17 18:49:00,
2013-05-17 11:50:00,59.0,51.8,29.80,SSE,158,2.0,2.7,77,0.00,,---,0.17,VWS V14.01,2013-05-17 18:50:00,
2013-05-17 11:51:00,59.2,52.0,29.80,ESE,112,0.0,2.0,77,0.00,,---,0.17,VWS V14.01,2013-05-17 18:51:00,
2013-05-17 11:52:00,59.2,52.3,29.80,ESE,112,0.0,0.9,78,0.00,,---,0.17,VWS V14.01,2013-05-17 18:52:00,
2013-05-17 11:53:00,59.2,52.3,29.80,ESE,112,1.6,1.6,78,0.00,,---,0.17,VWS V14.01,2013-05-17 18:53:00,
2013-05-17 11:54:00,59.2,52.0,29.79,East,90,2.0,2.0,77,0.00,,---,0.17,VWS V14.01,2013-05-17 18:54:00,
2013-05-17 11:55:00,59.2,52.0,29.80,East,90,2.0,2.0,77,0.00,,---,0.17,VWS V14.01,2013-05-17 18:55:00,
2013-05-17 11:56:00,59.2,52.0,29.80,ESE,112,2.0,2.0,77,0.00,,---,0.17,VWS V14.01,2013-05-17 18:56:00,
2013-05-17 11:57:00,59.2,52.0,29.80,SSE,158,1.1,2.0,77,0.00,,---,0.17,VWS V14.01,2013-05-17 18:57:00,
2013-05-17 11:58:00,59.0,51.5,29.80,SSE,158,1.6,2.0,76,0.00,,---,0.17,VWS V14.01,2013-05-17 18:58:00,
2013-05-17 11:59:00,58.8,51.6,29.79,ESE,112,0.0,0.0,77,0.00,,---,0.17,VWS V14.01,2013-05-17 18:59:00,
2013-05-17 12:00:00,58.8,51.6,29.80,ESE,112,0.0,0.0,77,0.00,,---,0.17,VWS V14.01,2013-05-17 19:00:00,
2013-05-17 12:01:00,58.8,51.6,29.80,ENE,68,0.0,0.0,77,0.00,,---,0.17,VWS V14.01,2013-05-17 19:01:00,
2013-05-17 12:02:00,58.8,51.3,29.80,NNE,22,1.1,2.0,76,0.00,,---,0.17,VWS V14.01,2013-05-17 19:02:00,
2013-05-17 12:03:00,58.6,51.1,29.80,SE,135,0.0,1.1,76,0.00,,---,0.17,VWS V14.01,2013-05-17 19:03:00,
2013-05-17 12:04:00,58.6,51.1,29.79,ENE,68,0.0,0.0,76,0.00,,---,0.17,VWS V14.01,2013-05-17 19:04:00,
2013-05-17 12:05:00,58.6,51.1,29.80,ENE,68,0.0,0.0,76,0.00,,---,0.17,VWS V14.01,2013-05-17 19:05:00,
2013-05-17 12:06:00,58.8,51.6,29.80,East,90,2.7,2.7,77,0.00,,---,0.17,VWS V14.01,2013-05-17 19:06:00,
2013-05-17 12:07:00,58.8,51.6,29.80,ESE,112,0.9,2.7,77,0.00,,---,0.17,VWS V14.01,2013-05-17 19:07:00,
2013-05-17 12:08:00,58.8,51.3,29.80,East,90,0.9,1.6,76,0.00,,---,0.17,VWS V14.01,2013-05-17 19:08:00,
2013-05-17 12:09:00,59.0,51.5,29.79,East,90,1.1,2.2,76,0.00,,---,0.17,VWS V14.01,2013-05-17 19:09:00,
2013-05-17 12:10:00,59.0,51.5,29.80,East,90,2.2,2.2,76,0.00,,---,0.17,VWS V14.01,2013-05-17 19:10:00,
2013-05-17 12:11:00,59.0,51.5,29.80,South,180,1.6,2.2,76,0.00,,---,0.17,VWS V14.01,2013-05-17 19:11:00,
2013-05-17 12:12:00,59.0,51.5,29.80,ESE,112,1.1,2.7,76,0.00,,---,0.17,VWS V14.01,2013-05-17 19:12:00,
2013-05-17 12:13:00,59.0,51.5,29.80,SE,135,2.7,2.7,76,0.00,,---,0.17,VWS V14.01,2013-05-17 19:13:00,
2013-05-17 12:14:00,59.0,51.1,29.79,SSE,158,1.3,1.3,75,0.00,,---,0.17,VWS V14.01,2013-05-17 19:14:00,
2013-05-17 12:15:00,59.0,51.1,29.80,SSE,158,1.3,3.6,75,0.00,,---,0.17,VWS V14.01,2013-05-17 19:15:00,
2013-05-17 12:16:00,58.8,50.9,29.80,SE,135,0.0,1.3,75,0.00,,---,0.17,VWS V14.01,2013-05-17 19:16:00,
2013-05-17 12:17:00,58.8,50.9,29.80,SSE,158,2.5,2.5,75,0.00,,---,0.17,VWS V14.01,2013-05-17 19:17:00,
2013-05-17 12:18:00,58.8,50.9,29.80,SSE,158,2.2,2.5,75,0.00,,---,0.17,VWS V14.01,2013-05-17 19:18:00,
2013-05-17 12:19:00,58.8,50.6,29.79,East,90,0.0,2.0,74,0.00,,---,0.17,VWS V14.01,2013-05-17 19:19:00,
2013-05-17 12:20:00,58.8,50.6,29.80,East,90,0.0,2.0,74,0.00,,---,0.17,VWS V14.01,2013-05-17 19:20:00,
2013-05-17 12:21:00,58.6,50.8,29.80,SSE,158,2.2,2.2,75,0.00,,---,0.17,VWS V14.01,2013-05-17 19:21:00,
2013-05-17 12:22:00,58.6,50.4,29.80,SSE,158,2.7,3.4,74,0.00,,---,0.17,VWS V14.01,2013-05-17 19:22:00,
2013-05-17 12:23:00,58.6,50.8,29.80,SE,135,1.6,2.7,75,0.00,,---,0.17,VWS V14.01,2013-05-17 19:23:00,
2013-05-17 12:24:00,58.6,50.4,29.79,ESE,112,0.0,0.0,74,0.00,,---,0.17,VWS V14.01,2013-05-17 19:24:00,
2013-05-17 12:25:00,58.6,50.4,29.80,ESE,112,0.0,0.0,74,0.00,,---,0.17,VWS V14.01,2013-05-17 19:25:00,
2013-05-17 12:26:00,58.6,50.8,29.80,SSE,158,3.1,3.4,75,0.00,,---,0.17,VWS V14.01,2013-05-17 19:26:00,
2013-05-17 12:27:00,58.6,50.4,29.80,South,180,0.0,3.1,74,0.00,,---,0.17,VWS V14.01,2013-05-17 19:27:00,
2013-05-17 12:28:00,58.6,50.4,29.80,SE,135,0.0,0.9,74,0.00,,---,0.17,VWS V14.01,2013-05-17 19:28:00,
2013-05-17 12:29:00,58.6,50.4,29.79,SSE,158,2.0,3.4,74,0.00,,---,0.17,VWS V14.01,2013-05-17 19:29:00,
2013-05-17 12:30:00,58.6,50.4,29.80,SSE,158,2.0,3.4,74,0.00,,---,0.17,VWS V14.01,2013-05-17 19:30:00,
2013-05-17 12:31:00,58.5,50.2,29.80,ESE,112,1.3,2.0,74,0.00,,---,0.17,VWS V14.01,2013-05-17 19:31:00,
2013-05-17 12:32:00,58.5,50.2,29.80,SE,135,0.0,1.3,74,0.00,,---,0.17,VWS V14.01,2013-05-17 19:32:00,
2013-05-17 12:33:00,58.3,50.0,29.80,SE,135,0.0,0.0,74,0.00,,---,0.17,VWS V14.01,2013-05-17 19:33:00,
2013-05-17 12:34:00,58.1,49.9,29.79,SSE,158,1.6,1.6,74,0.00,,---,0.17,VWS V14.01,2013-05-17 19:34:00,
2013-05-17 12:35:00,58.1,49.9,29.80,SSE,158,0.0,0.0,74,0.00,,---,0.17,VWS V14.01,2013-05-17 19:35:00,
2013-05-17 12:36:00,58.1,49.9,29.80,SSE,158,1.3,1.6,74,0.00,,---,0.17,VWS V14.01,2013-05-17 19:36:00,
2013-05-17 12:37:00,57.9,49.7,29.80,ESE,112,0.0,1.3,74,0.00,,---,0.17,VWS V14.01,2013-05-17 19:37:00,
2013-05-17 12:38:00,57.7,49.5,29.80,East,90,0.0,0.0,74,0.00,,---,0.17,VWS V14.01,2013-05-17 19:38:00,
2013-05-17 12:39:00,57.6,49.3,29.79,East,90,0.0,0.0,74,0.00,,---,0.17,VWS V14.01,2013-05-17 19:39:00,
2013-05-17 12:40:00,57.6,49.3,29.80,East,90,0.0,343.7,74,0.00,,---,0.17,VWS V14.01,2013-05-17 19:40:00,
2013-05-17 12:41:00,57.4,49.5,29.80,ESE,112,0.0,0.0,75,0.00,,---,0.17,VWS V14.01,2013-05-17 19:41:00,
2013-05-17 12:42:00,57.4,49.5,29.80,ENE,68,1.3,2.7,75,0.00,,---,0.17,VWS V14.01,2013-05-17 19:42:00,
2013-05-17 12:43:00,57.2,49.4,29.80,ENE,68,0.0,1.3,75,0.00,,---,0.17,VWS V14.01,2013-05-17 19:43:00,
2013-05-17 12:44:00,56.8,50.1,29.79,ENE,68,0.0,0.0,78,0.00,,---,0.17,VWS V14.01,2013-05-17 19:44:00,
2013-05-17 12:45:00,56.8,50.1,29.80,ENE,68,0.0,0.0,78,0.00,,---,0.17,VWS V14.01,2013-05-17 19:45:00,
2013-05-17 12:46:00,56.8,49.7,29.80,ENE,68,0.0,0.0,77,0.00,,---,0.17,VWS V14.01,2013-05-17 19:46:00,
2013-05-17 12:47:00,56.8,49.7,29.80,SSE,158,0.0,0.0,77,0.00,,---,0.17,VWS V14.01,2013-05-17 19:47:00,
2013-05-17 12:48:00,56.8,49.7,29.80,South,180,0.9,1.1,77,0.00,,---,0.17,VWS V14.01,2013-05-17 19:48:00,
2013-05-17 12:49:00,56.7,49.5,29.79,South,180,0.0,0.0,77,0.00,,---,0.17,VWS V14.01,2013-05-17 19:49:00,
2013-05-17 12:50:00,56.7,49.5,29.80,South,180,0.0,0.0,77,0.00,,---,0.17,VWS V14.01,2013-05-17 19:50:00,
2013-05-17 12:51:00,56.7,49.5,29.80,South,180,0.0,0.0,77,0.00,,---,0.17,VWS V14.01,2013-05-17 19:51:00,
2013-05-17 12:52:00,56.7,49.5,29.80,South,180,0.0,0.0,77,0.00,,---,0.17,VWS V14.01,2013-05-17 19:52:00,
2013-05-17 12:53:00,56.7,49.5,29.80,South,180,0.0,0.0,77,0.00,,---,0.17,VWS V14.01,2013-05-17 19:53:00,
2013-05-17 12:54:00,56.5,49.7,29.79,SSW,202,0.0,0.0,78,0.00,,---,0.17,VWS V14.01,2013-05-17 19:54:00,
2013-05-17 12:55:00,56.5,49.7,29.80,SSW,202,0.0,0.0,78,0.00,,---,0.17,VWS V14.01,2013-05-17 19:55:00,
2013-05-17 12:56:00,56.5,49.4,29.80,SSW,202,1.3,1.6,77,0.00,,---,0.17,VWS V14.01,2013-05-17 19:56:00,
2013-05-17 12:57:00,56.5,49.4,29.80,SSW,202,0.9,1.3,77,0.00,,---,0.17,VWS V14.01,2013-05-17 19:57:00,
2013-05-17 12:58:00,56.5,49.4,29.80,SSW,202,0.0,0.9,77,0.00,,---,0.17,VWS V14.01,2013-05-17 19:58:00,
2013-05-17 12:59:00,56.3,49.5,29.79,SSW,202,0.0,0.0,78,0.00,,---,0.17,VWS V14.01,2013-05-17 19:59:00,
2013-05-17 13:00:00,56.3,49.5,29.80,SSW,202,0.0,1.1,78,0.00,,---,0.17,VWS V14.01,2013-05-17 20:00:00,
2013-05-17 13:01:00,56.3,49.5,29.76,SSW,202,0.0,0.0,78,0.00,,---,0.17,VWS V14.01,2013-05-17 20:01:00,
2013-05-17 13:02:00,56.3,49.9,29.76,SSW,202,0.0,0.0,79,0.00,,---,0.17,VWS V14.01,2013-05-17 20:02:00,
2013-05-17 13:03:00,56.3,49.9,29.76,SSW,202,0.0,0.0,79,0.00,,---,0.17,VWS V14.01,2013-05-17 20:03:00,
2013-05-17 13:04:00,56.3,49.9,29.76,SSW,202,0.0,0.0,79,0.00,,---,0.17,VWS V14.01,2013-05-17 20:04:00,
2013-05-17 13:05:00,56.3,49.9,29.76,SSW,202,0.0,0.0,79,0.00,,---,0.17,VWS V14.01,2013-05-17 20:05:00,
2013-05-17 13:06:00,56.3,49.9,29.76,SSW,202,0.0,0.0,79,0.00,,---,0.17,VWS V14.01,2013-05-17 20:06:00,
2013-05-17 13:07:00,56.5,50.4,29.76,SSW,202,0.0,0.0,80,0.00,,---,0.17,VWS V14.01,2013-05-17 20:07:00,
2013-05-17 13:08:00,56.5,50.4,29.76,SSW,202,0.0,0.0,80,0.00,,---,0.17,VWS V14.01,2013-05-17 20:08:00,
2013-05-17 13:09:00,56.5,50.4,29.76,SSW,202,0.0,0.0,80,0.00,,---,0.17,VWS V14.01,2013-05-17 20:09:00,
2013-05-17 13:10:00,56.5,50.4,29.76,SSW,202,0.0,0.0,80,0.00,,---,0.17,VWS V14.01,2013-05-17 20:10:00,
2013-05-17 13:11:00,56.7,50.6,29.76,SSW,202,0.0,0.0,80,0.00,,---,0.17,VWS V14.01,2013-05-17 20:11:00,
2013-05-17 13:12:00,56.7,50.6,29.76,SSW,202,0.0,0.0,80,0.00,,---,0.17,VWS V14.01,2013-05-17 20:12:00,
2013-05-17 13:13:00,56.7,50.6,29.76,SSW,202,0.0,0.0,80,0.00,,---,0.17,VWS V14.01,2013-05-17 20:13:00,
2013-05-17 13:14:00,57.0,50.9,29.76,SSW,202,0.0,0.0,80,0.00,,---,0.17,VWS V14.01,2013-05-17 20:14:00,
2013-05-17 13:15:00,57.0,50.9,29.76,SSW,202,0.0,0.0,80,0.00,,---,0.17,VWS V14.01,2013-05-17 20:15:00,
2013-05-17 13:16:00,57.2,51.1,29.80,SSW,202,0.0,0.0,80,0.00,,---,0.17,VWS V14.01,2013-05-17 20:16:00,
2013-05-17 13:17:00,57.2,51.1,29.80,SSW,202,0.0,0.0,80,0.00,,---,0.17,VWS V14.01,2013-05-17 20:17:00,
2013-05-17 13:18:00,57.2,51.1,29.80,SSW,202,0.0,0.0,80,0.00,,---,0.17,VWS V14.01,2013-05-17 20:18:00,
2013-05-17 13:19:00,57.4,51.3,29.79,SSW,202,0.0,0.0,80,0.00,,---,0.17,VWS V14.01,2013-05-17 20:19:00,
2013-05-17 13:20:00,57.4,51.3,29.80,SSW,202,0.0,0.0,80,0.00,,---,0.17,VWS V14.01,2013-05-17 20:20:00,
2013-05-17 13:21:00,57.4,51.3,29.80,SSW,202,0.0,0.0,80,0.00,,---,0.17,VWS V14.01,2013-05-17 20:21:00,
2013-05-17 13:22:00,57.4,51.3,29.80,SSW,202,0.0,0.0,80,0.00,,---,0.17,VWS V14.01,2013-05-17 20:22:00,
2013-05-17 13:23:00,57.6,51.1,29.80,SSW,202,0.0,0.0,79,0.00,,---,0.17,VWS V14.01,2013-05-17 20:23:00,
2013-05-17 13:24:00,57.6,51.1,29.79,SSW,202,0.0,0.0,79,0.00,,---,0.17,VWS V14.01,2013-05-17 20:24:00,
2013-05-17 13:25:00,57.6,51.1,29.80,SSW,202,0.0,0.0,79,0.00,,---,0.17,VWS V14.01,2013-05-17 20:25:00,
2013-05-17 13:26:00,57.6,51.1,29.80,SSW,202,0.0,0.0,79,0.00,,---,0.17,VWS V14.01,2013-05-17 20:26:00,
2013-05-17 13:27:00,57.6,51.1,29.80,SSW,202,0.0,0.0,79,0.00,,---,0.17,VWS V14.01,2013-05-17 20:27:00,
2013-05-17 13:28:00,57.6,51.1,29.80,SSW,202,0.0,0.0,79,0.00,,---,0.17,VWS V14.01,2013-05-17 20:28:00,
2013-05-17 13:29:00,58.1,51.6,29.79,SSW,202,0.0,0.0,79,0.00,,---,0.17,VWS V14.01,2013-05-17 20:29:00,
2013-05-17 13:30:00,58.1,51.6,29.80,SSW,202,0.0,0.0,79,0.00,,---,0.17,VWS V14.01,2013-05-17 20:30:00,
2013-05-17 13:31:00,58.3,52.2,29.80,SSW,202,0.0,0.0,80,0.00,,---,0.17,VWS V14.01,2013-05-17 20:31:00,
2013-05-17 13:32:00,58.5,52.3,29.80,SSW,202,0.0,0.0,80,0.00,,---,0.17,VWS V14.01,2013-05-17 20:32:00,
2013-05-17 13:33:00,58.6,52.2,29.80,WSW,248,1.3,1.6,79,0.00,,---,0.17,VWS V14.01,2013-05-17 20:33:00,
2013-05-17 13:34:00,58.8,52.0,29.79,WSW,248,0.0,0.0,78,0.00,,---,0.17,VWS V14.01,2013-05-17 20:34:00,
2013-05-17 13:35:00,58.8,52.0,29.80,WSW,248,0.0,0.0,78,0.00,,---,0.17,VWS V14.01,2013-05-17 20:35:00,
2013-05-17 13:36:00,59.0,52.2,29.80,WSW,248,0.0,0.0,78,0.00,,---,0.17,VWS V14.01,2013-05-17 20:36:00,
2013-05-17 13:37:00,59.4,52.5,29.80,WSW,248,3.6,3.6,78,0.00,,---,0.17,VWS V14.01,2013-05-17 20:37:00,
2013-05-17 13:38:00,59.4,52.2,29.80,WSW,248,1.6,3.6,77,0.00,,---,0.17,VWS V14.01,2013-05-17 20:38:00,
2013-05-17 13:39:00,59.7,52.2,29.79,West,270,0.9,0.9,76,0.00,,---,0.17,VWS V14.01,2013-05-17 20:39:00,
2013-05-17 13:40:00,59.7,52.2,29.80,West,270,0.9,0.9,76,0.00,,---,0.17,VWS V14.01,2013-05-17 20:40:00,
2013-05-17 13:41:00,59.5,52.0,29.80,North,0,1.6,2.5,76,0.00,,---,0.17,VWS V14.01,2013-05-17 20:41:00,
2013-05-17 13:42:00,59.4,51.8,29.80,NNE,22,1.3,1.6,76,0.00,,---,0.17,VWS V14.01,2013-05-17 20:42:00,
2013-05-17 13:43:00,59.4,51.8,29.80,West,270,0.0,1.3,76,0.00,,---,0.17,VWS V14.01,2013-05-17 20:43:00,
2013-05-17 13:44:00,59.4,51.5,29.79,West,270,0.0,0.0,75,0.00,,---,0.17,VWS V14.01,2013-05-17 20:44:00,
2013-05-17 13:45:00,59.4,51.4,29.80,West,270,0.0,1.3,75,0.00,,---,0.17,VWS V14.01,2013-05-17 20:45:00,
2013-05-17 13:46:00,59.4,51.4,29.80,West,270,0.0,0.0,75,0.00,,---,0.17,VWS V14.01,2013-05-17 20:46:00,
2013-05-17 13:47:00,59.4,51.1,29.80,West,270,0.0,0.0,74,0.00,,---,0.17,VWS V14.01,2013-05-17 20:47:00,
2013-05-17 13:48:00,59.4,51.1,29.80,WNW,292,1.1,1.1,74,0.00,,---,0.17,VWS V14.01,2013-05-17 20:48:00,
2013-05-17 13:49:00,59.2,50.5,29.79,WNW,292,0.0,0.0,73,0.00,,---,0.17,VWS V14.01,2013-05-17 20:49:00,
2013-05-17 13:50:00,59.2,50.5,29.80,WNW,292,0.0,0.0,73,0.00,,---,0.17,VWS V14.01,2013-05-17 20:50:00,
2013-05-17 13:51:00,59.4,51.1,29.80,West,270,0.9,0.9,74,0.00,,---,0.17,VWS V14.01,2013-05-17 20:51:00,
2013-05-17 13:52:00,59.4,51.1,29.80,WNW,292,1.3,1.3,74,0.00,,---,0.17,VWS V14.01,2013-05-17 20:52:00,
2013-05-17 13:53:00,59.4,51.1,29.80,NNW,338,1.3,1.6,74,0.00,,---,0.17,VWS V14.01,2013-05-17 20:53:00,
2013-05-17 13:54:00,59.4,51.5,29.79,NNW,338,0.0,0.0,75,0.00,,---,0.17,VWS V14.01,2013-05-17 20:54:00,
2013-05-17 13:55:00,59.4,51.4,29.80,NNW,338,0.0,0.0,75,0.00,,---,0.17,VWS V14.01,2013-05-17 20:55:00,
2013-05-17 13:56:00,59.4,51.1,29.80,NNW,338,0.0,0.0,74,0.00,,---,0.17,VWS V14.01,2013-05-17 20:56:00,
2013-05-17 13:57:00,59.5,51.3,29.80,NW,315,0.9,0.9,74,0.00,,---,0.17,VWS V14.01,2013-05-17 20:57:00,
2013-05-17 13:58:00,59.7,51.8,29.80,NW,315,0.0,0.9,75,0.00,,---,0.17,VWS V14.01,2013-05-17 20:58:00,
2013-05-17 13:59:00,59.7,51.4,29.79,NNW,338,0.0,0.9,74,0.00,,---,0.17,VWS V14.01,2013-05-17 20:59:00,
2013-05-17 14:00:00,59.7,51.4,29.80,NNW,338,0.9,0.9,74,0.00,,---,0.17,VWS V14.01,2013-05-17 21:00:00,
2013-05-17 14:01:00,59.7,51.4,29.80,NNW,338,0.0,0.9,74,0.00,,---,0.17,VWS V14.01,2013-05-17 21:01:00,
2013-05-17 14:02:00,59.9,51.6,29.80,WNW,292,1.1,1.1,74,0.00,,---,0.17,VWS V14.01,2013-05-17 21:02:00,
2013-05-17 14:03:00,59.9,51.2,29.80,NW,315,1.3,1.3,73,0.00,,---,0.17,VWS V14.01,2013-05-17 21:03:00,
2013-05-17 14:04:00,60.1,51.8,29.79,NW,315,0.0,0.0,74,0.00,,---,0.17,VWS V14.01,2013-05-17 21:04:00,
2013-05-17 14:05:00,60.1,51.8,29.80,NW,315,0.0,0.0,74,0.00,,---,0.17,VWS V14.01,2013-05-17 21:05:00,
2013-05-17 14:06:00,60.3,52.0,29.80,NW,315,0.9,0.9,74,0.00,,---,0.17,VWS V14.01,2013-05-17 21:06:00,
2013-05-17 14:07:00,60.4,52.1,29.80,SW,225,2.0,2.0,74,0.00,,---,0.17,VWS V14.01,2013-05-17 21:07:00,
2013-05-17 14:08:00,60.6,52.3,29.80,SSW,202,1.3,2.0,74,0.00,,---,0.17,VWS V14.01,2013-05-17 21:08:00,
2013-05-17 14:09:00,60.8,52.1,29.79,SSE,158,1.3,2.2,73,0.00,,---,0.17,VWS V14.01,2013-05-17 21:09:00,
2013-05-17 14:10:00,60.8,52.1,29.80,SSE,158,1.3,2.2,73,0.00,,---,0.17,VWS V14.01,2013-05-17 21:10:00,
2013-05-17 14:11:00,61.0,52.3,29.80,SE,135,0.0,1.3,73,0.00,,---,0.17,VWS V14.01,2013-05-17 21:11:00,
2013-05-17 14:12:00,61.0,51.9,29.80,SE,135,0.0,0.0,72,0.00,,---,0.17,VWS V14.01,2013-05-17 21:12:00,
2013-05-17 14:13:00,61.0,51.9,29.80,ESE,112,0.0,0.0,72,0.00,,---,0.17,VWS V14.01,2013-05-17 21:13:00,
2013-05-17 14:14:00,61.2,52.5,29.79,ENE,68,0.0,0.0,73,0.00,,---,0.17,VWS V14.01,2013-05-17 21:14:00,
2013-05-17 14:15:00,61.2,52.5,29.80,ENE,68,0.0,0.9,73,0.00,,---,0.17,VWS V14.01,2013-05-17 21:15:00,
2013-05-17 14:16:00,61.0,52.3,29.80,NNE,22,2.0,2.0,73,0.00,,---,0.17,VWS V14.01,2013-05-17 21:16:00,
2013-05-17 14:17:00,61.0,51.5,29.80,ENE,68,2.2,2.5,71,0.00,,---,0.17,VWS V14.01,2013-05-17 21:17:00,
2013-05-17 14:18:00,60.8,51.3,29.80,SSE,158,2.2,3.4,71,0.00,,---,0.17,VWS V14.01,2013-05-17 21:18:00,
2013-05-17 14:19:00,61.0,51.5,29.79,ENE,68,0.9,1.1,71,0.00,,---,0.17,VWS V14.01,2013-05-17 21:19:00,
2013-05-17 14:20:00,61.0,51.5,29.80,ENE,68,0.9,1.1,71,0.00,,---,0.17,VWS V14.01,2013-05-17 21:20:00,
2013-05-17 14:21:00,61.0,51.5,29.80,ENE,68,0.0,0.9,71,0.00,,---,0.17,VWS V14.01,2013-05-17 21:21:00,
2013-05-17 14:22:00,61.0,51.5,29.80,ENE,68,0.0,0.0,71,0.00,,---,0.17,VWS V14.01,2013-05-17 21:22:00,
2013-05-17 14:23:00,61.2,51.7,29.80,SE,135,0.0,0.0,71,0.00,,---,0.17,VWS V14.01,2013-05-17 21:23:00,
2013-05-17 14:24:00,61.3,51.9,29.79,SW,225,0.0,1.3,71,0.00,,---,0.17,VWS V14.01,2013-05-17 21:24:00,
2013-05-17 14:25:00,61.3,51.9,29.80,SW,225,0.0,1.3,71,0.00,,---,0.17,VWS V14.01,2013-05-17 21:25:00,
2013-05-17 14:26:00,61.3,51.9,29.80,SW,225,0.0,0.0,71,0.00,,---,0.17,VWS V14.01,2013-05-17 21:26:00,
2013-05-17 14:27:00,61.3,51.5,29.80,SW,225,0.0,0.0,70,0.00,,---,0.17,VWS V14.01,2013-05-17 21:27:00,
2013-05-17 14:28:00,61.5,51.7,29.80,ESE,112,0.9,1.1,70,0.00,,---,0.17,VWS V14.01,2013-05-17 21:28:00,
2013-05-17 14:29:00,61.5,50.9,29.79,WSW,248,2.2,2.2,68,0.00,,---,0.17,VWS V14.01,2013-05-17 21:29:00,
2013-05-17 14:30:00,61.5,50.9,29.80,WSW,248,2.2,2.2,68,0.00,,---,0.17,VWS V14.01,2013-05-17 21:30:00,
2013-05-17 14:31:00,61.3,49.5,29.80,SSW,202,1.1,2.5,65,0.00,,---,0.17,VWS V14.01,2013-05-17 21:31:00,
2013-05-17 14:32:00,61.3,49.9,29.80,SSW,202,1.3,1.3,66,0.00,,---,0.17,VWS V14.01,2013-05-17 21:32:00,
2013-05-17 14:33:00,61.3,49.5,29.80,SSW,202,0.0,1.3,65,0.00,,---,0.17,VWS V14.01,2013-05-17 21:33:00,
2013-05-17 14:34:00,61.5,49.2,29.79,SSE,158,0.0,2.2,64,0.00,,---,0.17,VWS V14.01,2013-05-17 21:34:00,
2013-05-17 14:35:00,61.5,49.2,29.80,SSE,158,0.0,2.2,64,0.00,,---,0.17,VWS V14.01,2013-05-17 21:35:00,
2013-05-17 14:36:00,61.5,49.7,29.80,SSE,158,0.0,0.0,65,0.00,,---,0.17,VWS V14.01,2013-05-17 21:36:00,
2013-05-17 14:37:00,61.5,49.7,29.80,SSE,158,0.0,0.0,65,0.00,,---,0.17,VWS V14.01,2013-05-17 21:37:00,
2013-05-17 14:38:00,61.7,49.8,29.80,SSE,158,0.9,1.6,65,0.00,,---,0.17,VWS V14.01,2013-05-17 21:38:00,
2013-05-17 14:39:00,61.9,50.0,29.79,SE,135,0.9,2.7,65,0.00,,---,0.17,VWS V14.01,2013-05-17 21:39:00,
2013-05-17 14:40:00,61.9,50.0,29.80,SE,135,0.9,2.7,65,0.00,,---,0.17,VWS V14.01,2013-05-17 21:40:00,
2013-05-17 14:41:00,61.9,50.0,29.80,SSW,202,1.1,3.1,65,0.00,,---,0.17,VWS V14.01,2013-05-17 21:41:00,
2013-05-17 14:42:00,61.9,49.6,29.80,SSW,202,0.0,1.1,64,0.00,,---,0.17,VWS V14.01,2013-05-17 21:42:00,
2013-05-17 14:43:00,62.1,49.3,29.80,SSW,202,0.0,0.0,63,0.00,,---,0.17,VWS V14.01,2013-05-17 21:43:00,
2013-05-17 14:44:00,62.2,49.9,29.79,SW,225,0.0,0.0,64,0.00,,---,0.17,VWS V14.01,2013-05-17 21:44:00,
2013-05-17 14:45:00,62.2,49.5,29.80,SW,225,0.0,0.0,63,0.00,,---,0.17,VWS V14.01,2013-05-17 21:45:00,
2013-05-17 14:46:00,62.2,49.5,29.80,ESE,112,0.0,0.0,63,0.00,,---,0.17,VWS V14.01,2013-05-17 21:46:00,
2013-05-17 14:47:00,62.2,49.1,29.80,SSE,158,0.0,1.3,62,0.00,,---,0.17,VWS V14.01,2013-05-17 21:47:00,
2013-05-17 14:48:00,62.4,49.7,29.80,SSW,202,1.6,1.6,63,0.00,,---,0.17,VWS V14.01,2013-05-17 21:48:00,
2013-05-17 14:49:00,62.4,49.2,29.79,ESE,112,1.1,1.1,62,0.00,,---,0.17,VWS V14.01,2013-05-17 21:49:00,
2013-05-17 14:50:00,62.4,49.2,29.80,ESE,112,1.1,2.2,62,0.00,,---,0.17,VWS V14.01,2013-05-17 21:50:00,
2013-05-17 14:51:00,62.4,48.8,29.80,SW,225,1.3,1.6,61,0.00,,---,0.17,VWS V14.01,2013-05-17 21:51:00,
2013-05-17 14:52:00,62.2,48.6,29.80,SW,225,0.9,2.2,61,0.00,,---,0.17,VWS V14.01,2013-05-17 21:52:00,
2013-05-17 14:53:00,62.2,47.8,29.80,ESE,112,1.6,1.6,59,0.00,,---,0.17,VWS V14.01,2013-05-17 21:53:00,
2013-05-17 14:54:00,62.1,47.6,29.79,ESE,112,0.0,1.6,59,0.00,,---,0.17,VWS V14.01,2013-05-17 21:54:00,
2013-05-17 14:55:00,62.1,47.6,29.80,ESE,112,0.0,1.6,59,0.00,,---,0.17,VWS V14.01,2013-05-17 21:55:00,
2013-05-17 14:56:00,61.9,47.4,29.80,SW,225,1.3,2.0,59,0.00,,---,0.17,VWS V14.01,2013-05-17 21:56:00,
2013-05-17 14:57:00,61.9,46.5,29.80,SW,225,0.0,1.3,57,0.00,,---,0.17,VWS V14.01,2013-05-17 21:57:00,
2013-05-17 14:58:00,61.7,46.8,29.80,SW,225,0.0,0.0,58,0.00,,---,0.17,VWS V14.01,2013-05-17 21:58:00,
2013-05-17 14:59:00,61.7,46.3,29.79,SSE,158,0.0,0.0,57,0.00,,---,0.17,VWS V14.01,2013-05-17 21:59:00,
2013-05-17 15:00:00,61.7,46.3,29.80,SSE,158,0.0,0.0,57,0.00,,---,0.17,VWS V14.01,2013-05-17 22:00:00,
2013-05-17 15:01:00,61.7,46.8,29.80,East,90,1.1,1.1,58,0.00,,---,0.17,VWS V14.01,2013-05-17 22:01:00,
2013-05-17 15:02:00,61.5,45.7,29.80,East,90,0.9,1.1,56,0.00,,---,0.17,VWS V14.01,2013-05-17 22:02:00,
2013-05-17 15:03:00,61.3,46.0,29.80,East,90,0.0,0.9,57,0.00,,---,0.17,VWS V14.01,2013-05-17 22:03:00,
2013-05-17 15:04:00,61.3,46.5,29.79,ESE,112,1.6,1.6,58,0.00,,---,0.17,VWS V14.01,2013-05-17 22:04:00,
2013-05-17 15:05:00,61.3,46.5,29.80,ESE,112,1.6,1.6,58,0.00,,---,0.17,VWS V14.01,2013-05-17 22:05:00,
2013-05-17 15:06:00,61.3,46.5,29.80,SSE,158,1.6,2.5,58,0.00,,---,0.17,VWS V14.01,2013-05-17 22:06:00,
2013-05-17 15:07:00,61.3,46.5,29.80,SE,135,1.3,1.6,58,0.00,,---,0.17,VWS V14.01,2013-05-17 22:07:00,
2013-05-17 15:08:00,61.2,46.3,29.80,SE,135,0.0,1.3,58,0.00,,---,0.17,VWS V14.01,2013-05-17 22:08:00,
2013-05-17 15:09:00,61.0,46.1,29.79,SSE,158,0.0,0.0,58,0.00,,---,0.17,VWS V14.01,2013-05-17 22:09:00,
2013-05-17 15:10:00,61.0,46.1,29.80,SSE,158,0.0,0.0,58,0.00,,---,0.17,VWS V14.01,2013-05-17 22:10:00,
2013-05-17 15:11:00,61.0,45.7,29.80,SSE,158,0.0,0.9,57,0.00,,---,0.17,VWS V14.01,2013-05-17 22:11:00,
2013-05-17 15:12:00,61.0,45.7,29.80,ESE,112,0.0,0.0,57,0.00,,---,0.17,VWS V14.01,2013-05-17 22:12:00,
2013-05-17 15:13:00,61.0,46.1,29.80,ESE,112,0.9,1.6,58,0.00,,---,0.17,VWS V14.01,2013-05-17 22:13:00,
2013-05-17 15:14:00,60.8,46.0,29.79,SSE,158,0.9,1.1,58,0.00,,---,0.17,VWS V14.01,2013-05-17 22:14:00,
2013-05-17 15:15:00,60.8,46.0,29.80,SSE,158,0.9,1.1,58,0.00,,---,0.17,VWS V14.01,2013-05-17 22:15:00,
2013-05-17 15:16:00,60.8,46.0,29.80,SSE,158,0.0,0.9,58,0.00,,---,0.17,VWS V14.01,2013-05-17 22:16:00,
2013-05-17 15:17:00,60.8,46.4,29.80,SSE,158,0.0,0.0,59,0.00,,---,0.17,VWS V14.01,2013-05-17 22:17:00,
2013-05-17 15:18:00,60.8,46.4,29.80,SSE,158,0.0,0.0,59,0.00,,---,0.17,VWS V14.01,2013-05-17 22:18:00,
2013-05-17 15:19:00,60.6,46.2,29.79,SSE,158,0.9,1.3,59,0.00,,---,0.17,VWS V14.01,2013-05-17 22:19:00,
2013-05-17 15:20:00,60.6,46.2,29.80,SSE,158,1.1,1.3,59,0.00,,---,0.17,VWS V14.01,2013-05-17 22:20:00,
2013-05-17 15:21:00,60.6,46.7,29.80,SSE,158,0.0,1.1,60,0.00,,---,0.17,VWS V14.01,2013-05-17 22:21:00,
2013-05-17 15:22:00,60.6,46.7,29.80,SSE,158,0.0,0.0,60,0.00,,---,0.17,VWS V14.01,2013-05-17 22:22:00,
2013-05-17 15:23:00,60.6,46.7,29.80,SSE,158,0.0,0.0,60,0.00,,---,0.17,VWS V14.01,2013-05-17 22:23:00,
2013-05-17 15:24:00,60.6,46.7,29.79,SSE,158,1.3,1.3,60,0.00,,---,0.17,VWS V14.01,2013-05-17 22:24:00,
2013-05-17 15:25:00,60.6,46.7,29.80,SSW,202,3.4,3.4,60,0.00,,---,0.17,VWS V14.01,2013-05-17 22:25:00,
2013-05-17 15:26:00,60.6,46.2,29.80,SSE,158,0.0,4.0,59,0.00,,---,0.17,VWS V14.01,2013-05-17 22:26:00,
2013-05-17 15:27:00,60.6,46.7,29.80,SSE,158,2.9,2.9,60,0.00,,---,0.17,VWS V14.01,2013-05-17 22:27:00,
2013-05-17 15:28:00,60.6,46.2,29.80,ESE,112,1.3,2.9,59,0.00,,---,0.17,VWS V14.01,2013-05-17 22:28:00,
2013-05-17 15:29:00,60.6,46.2,29.79,SSE,158,1.6,2.2,59,0.00,,---,0.17,VWS V14.01,2013-05-17 22:29:00,
2013-05-17 15:30:00,60.6,46.2,29.80,SSE,158,1.6,2.2,59,0.00,,---,0.17,VWS V14.01,2013-05-17 22:30:00,
2013-05-17 15:31:00,60.4,46.1,29.80,SE,135,1.1,3.1,59,0.00,,---,0.17,VWS V14.01,2013-05-17 22:31:00,
2013-05-17 15:32:00,60.4,46.1,29.80,SSE,158,0.9,1.1,59,0.00,,---,0.17,VWS V14.01,2013-05-17 22:32:00,
2013-05-17 15:33:00,60.4,46.1,29.80,SSE,158,0.0,0.9,59,0.00,,---,0.17,VWS V14.01,2013-05-17 22:33:00,
2013-05-17 15:34:00,60.4,46.1,29.79,ESE,112,1.3,2.5,59,0.00,,---,0.17,VWS V14.01,2013-05-17 22:34:00,
2013-05-17 15:35:00,60.4,46.1,29.80,ESE,112,1.3,2.5,59,0.00,,---,0.17,VWS V14.01,2013-05-17 22:35:00,
2013-05-17 15:36:00,60.4,46.1,29.80,ESE,112,0.0,2.5,59,0.00,,---,0.17,VWS V14.01,2013-05-17 22:36:00,
2013-05-17 15:37:00,60.4,46.1,29.80,ESE,112,0.9,0.9,59,0.00,,---,0.17,VWS V14.01,2013-05-17 22:37:00,
2013-05-17 15:38:00,60.4,46.1,29.80,ESE,112,0.0,0.9,59,0.00,,---,0.17,VWS V14.01,2013-05-17 22:38:00,
2013-05-17 15:39:00,60.4,46.1,29.79,SE,135,0.0,1.3,59,0.00,,---,0.17,VWS V14.01,2013-05-17 22:39:00,
2013-05-17 15:40:00,60.4,46.1,29.80,SE,135,0.0,1.3,59,0.00,,---,0.17,VWS V14.01,2013-05-17 22:40:00,
2013-05-17 15:41:00,60.6,46.7,29.80,NE,45,0.9,0.9,60,0.00,,---,0.17,VWS V14.01,2013-05-17 22:41:00,
2013-05-17 15:42:00,60.4,45.2,29.80,ENE,68,0.0,2.0,57,0.00,,---,0.17,VWS V14.01,2013-05-17 22:42:00,
2013-05-17 15:43:00,60.6,45.8,29.80,NE,45,1.6,2.0,58,0.00,,---,0.17,VWS V14.01,2013-05-17 22:43:00,
2013-05-17 15:44:00,60.4,45.6,29.79,SSE,158,1.6,1.6,58,0.00,,---,0.17,VWS V14.01,2013-05-17 22:44:00,
2013-05-17 15:45:00,60.4,45.6,29.80,ESE,112,0.0,1.6,58,0.00,,---,0.17,VWS V14.01,2013-05-17 22:45:00,
2013-05-17 15:46:00,60.4,45.6,29.80,SE,135,0.9,1.1,58,0.00,,---,0.17,VWS V14.01,2013-05-17 22:46:00,
2013-05-17 15:47:00,60.6,46.2,29.80,SSE,158,0.0,1.3,59,0.00,,---,0.17,VWS V14.01,2013-05-17 22:47:00,
2013-05-17 15:48:00,60.6,46.2,29.80,SSE,158,0.9,1.3,59,0.00,,---,0.17,VWS V14.01,2013-05-17 22:48:00,
2013-05-17 15:49:00,61.0,46.6,29.79,ESE,112,1.3,1.3,59,0.00,,---,0.17,VWS V14.01,2013-05-17 22:49:00,
2013-05-17 15:50:00,61.0,46.6,29.80,ESE,112,1.6,1.6,59,0.00,,---,0.17,VWS V14.01,2013-05-17 22:50:00,
2013-05-17 15:51:00,61.0,46.6,29.80,SSE,158,0.9,1.6,59,0.00,,---,0.17,VWS V14.01,2013-05-17 22:51:00,
2013-05-17 15:52:00,61.0,46.6,29.80,SSE,158,0.9,1.6,59,0.00,,---,0.17,VWS V14.01,2013-05-17 22:52:00,
2013-05-17 15:53:00,61.2,46.7,29.80,SE,135,1.6,1.6,59,0.00,,---,0.17,VWS V14.01,2013-05-17 22:53:00,
2013-05-17 15:54:00,61.3,46.9,29.79,ESE,112,0.0,1.6,59,0.00,,---,0.17,VWS V14.01,2013-05-17 22:54:00,
2013-05-17 15:55:00,61.3,46.9,29.80,ESE,112,0.0,1.6,59,0.00,,---,0.17,VWS V14.01,2013-05-17 22:55:00,
2013-05-17 15:56:00,61.3,46.9,29.80,ESE,112,0.0,0.0,59,0.00,,---,0.17,VWS V14.01,2013-05-17 22:56:00,
2013-05-17 15:57:00,61.3,46.9,29.80,SE,135,0.9,1.1,59,0.00,,---,0.17,VWS V14.01,2013-05-17 22:57:00,
2013-05-17 15:58:00,61.3,46.9,29.80,SE,135,0.0,1.3,59,0.00,,---,0.17,VWS V14.01,2013-05-17 22:58:00,
2013-05-17 15:59:00,61.5,47.1,29.79,SE,135,2.0,3.4,59,0.00,,---,0.17,VWS V14.01,2013-05-17 22:59:00,
2013-05-17 16:00:00,61.5,47.1,29.80,ESE,112,0.9,3.4,59,0.00,,---,0.17,VWS V14.01,2013-05-17 23:00:00,
2013-05-17 16:01:00,61.5,47.1,29.80,SSE,158,1.6,3.1,59,0.00,,---,0.17,VWS V14.01,2013-05-17 23:01:00,
2013-05-17 16:02:00,61.3,46.0,29.80,SE,135,0.0,2.5,57,0.00,,---,0.17,VWS V14.01,2013-05-17 23:02:00,
2013-05-17 16:03:00,61.3,46.0,29.80,ESE,112,0.0,0.0,57,0.00,,---,0.17,VWS V14.01,2013-05-17 23:03:00,
2013-05-17 16:04:00,61.5,46.2,29.79,SE,135,0.0,0.9,57,0.00,,---,0.17,VWS V14.01,2013-05-17 23:04:00,
2013-05-17 16:05:00,61.5,46.2,29.80,SE,135,0.0,0.9,57,0.00,,---,0.17,VWS V14.01,2013-05-17 23:05:00,
2013-05-17 16:06:00,61.5,46.2,29.80,SE,135,0.0,0.0,57,0.00,,---,0.17,VWS V14.01,2013-05-17 23:06:00,
2013-05-17 16:07:00,61.5,46.2,29.80,SE,135,0.0,1.6,57,0.00,,---,0.17,VWS V14.01,2013-05-17 23:07:00,
2013-05-17 16:08:00,61.5,46.2,29.80,SSE,158,0.0,0.0,57,0.00,,---,0.17,VWS V14.01,2013-05-17 23:08:00,
2013-05-17 16:09:00,61.5,46.6,29.79,SSE,158,2.2,2.2,58,0.00,,---,0.17,VWS V14.01,2013-05-17 23:09:00,
2013-05-17 16:10:00,61.5,46.2,29.80,SSE,158,2.2,2.2,57,0.00,,---,0.17,VWS V14.01,2013-05-17 23:10:00,
2013-05-17 16:11:00,61.5,46.2,29.80,SSE,158,0.0,2.2,57,0.00,,---,0.17,VWS V14.01,2013-05-17 23:11:00,
2013-05-17 16:12:00,61.7,46.3,29.80,SE,135,0.0,0.9,57,0.00,,---,0.17,VWS V14.01,2013-05-17 23:12:00,
2013-05-17 16:13:00,61.7,46.3,29.80,ESE,112,1.1,1.6,57,0.00,,---,0.17,VWS V14.01,2013-05-17 23:13:00,
2013-05-17 16:14:00,61.7,46.3,29.79,SSE,158,0.9,2.0,57,0.00,,---,0.17,VWS V14.01,2013-05-17 23:14:00,
2013-05-17 16:15:00,61.7,46.3,29.80,SSE,158,0.9,2.0,57,0.00,,---,0.17,VWS V14.01,2013-05-17 23:15:00,
2013-05-17 16:16:00,61.7,46.3,29.80,NNE,22,0.9,1.6,57,0.00,,---,0.17,VWS V14.01,2013-05-17 23:16:00,
2013-05-17 16:17:00,61.7,46.3,29.80,NE,45,1.6,1.6,57,0.00,,---,0.17,VWS V14.01,2013-05-17 23:17:00,
2013-05-17 16:18:00,61.7,46.3,29.80,ESE,112,0.0,2.0,57,0.00,,---,0.17,VWS V14.01,2013-05-17 23:18:00,
2013-05-17 16:19:00,61.7,46.3,29.79,ESE,112,0.0,1.1,57,0.00,,---,0.17,VWS V14.01,2013-05-17 23:19:00,
2013-05-17 16:20:00,61.7,46.3,29.80,East,90,0.0,1.1,57,0.00,,---,0.17,VWS V14.01,2013-05-17 23:20:00,
2013-05-17 16:21:00,61.7,46.3,29.80,East,90,0.0,0.0,57,0.00,,---,0.17,VWS V14.01,2013-05-17 23:21:00,
2013-05-17 16:22:00,61.7,46.8,29.80,South,180,1.6,1.6,58,0.00,,---,0.17,VWS V14.01,2013-05-17 23:22:00,
2013-05-17 16:23:00,61.7,46.8,29.80,South,180,2.5,2.5,58,0.00,,---,0.17,VWS V14.01,2013-05-17 23:23:00,
2013-05-17 16:24:00,61.7,46.3,29.79,SSE,158,0.9,2.2,57,0.00,,---,0.17,VWS V14.01,2013-05-17 23:24:00,
2013-05-17 16:25:00,61.7,46.3,29.80,SE,135,0.0,2.2,57,0.00,,---,0.17,VWS V14.01,2013-05-17 23:25:00,
2013-05-17 16:26:00,61.7,46.3,29.80,ESE,112,0.0,0.0,57,0.00,,---,0.17,VWS V14.01,2013-05-17 23:26:00,
2013-05-17 16:27:00,61.7,46.3,29.80,ESE,112,0.0,0.0,57,0.00,,---,0.17,VWS V14.01,2013-05-17 23:27:00,
2013-05-17 16:28:00,61.7,45.9,29.80,ESE,112,0.0,0.0,56,0.00,,---,0.17,VWS V14.01,2013-05-17 23:28:00,
2013-05-17 16:29:00,61.7,46.3,29.79,SE,135,0.0,1.6,57,0.00,,---,0.17,VWS V14.01,2013-05-17 23:29:00,
2013-05-17 16:30:00,61.7,46.3,29.80,SE,135,0.0,1.6,57,0.00,,---,0.17,VWS V14.01,2013-05-17 23:30:00,
2013-05-17 16:31:00,61.7,46.3,29.80,SSE,158,1.6,1.6,57,0.00,,---,0.17,VWS V14.01,2013-05-17 23:31:00,
2013-05-17 16:32:00,61.9,46.5,29.80,ESE,112,1.6,1.6,57,0.00,,---,0.17,VWS V14.01,2013-05-17 23:32:00,
2013-05-17 16:33:00,61.9,46.0,29.80,ESE,112,0.9,1.6,56,0.00,,---,0.17,VWS V14.01,2013-05-17 23:33:00,
2013-05-17 16:34:00,61.9,46.5,29.79,SSE,158,0.9,1.3,57,0.00,,---,0.17,VWS V14.01,2013-05-17 23:34:00,
2013-05-17 16:35:00,61.9,46.5,29.80,SSE,158,0.9,1.3,57,0.00,,---,0.17,VWS V14.01,2013-05-17 23:35:00,
2013-05-17 16:36:00,61.9,46.0,29.80,SSE,158,1.3,2.2,56,0.00,,---,0.17,VWS V14.01,2013-05-17 23:36:00,
2013-05-17 16:37:00,61.9,46.0,29.80,ESE,112,0.9,2.2,56,0.00,,---,0.17,VWS V14.01,2013-05-17 23:37:00,
2013-05-17 16:38:00,61.9,46.0,29.80,SSE,158,2.5,2.5,56,0.00,,---,0.17,VWS V14.01,2013-05-17 23:38:00,
2013-05-17 16:39:00,61.7,45.9,29.79,SSW,202,2.0,2.0,56,0.00,,---,0.17,VWS V14.01,2013-05-17 23:39:00,
2013-05-17 16:40:00,61.7,45.9,29.80,South,180,3.6,3.6,56,0.00,,---,0.17,VWS V14.01,2013-05-17 23:40:00,
2013-05-17 16:41:00,61.7,45.4,29.80,SE,135,3.4,3.6,55,0.00,,---,0.17,VWS V14.01,2013-05-17 23:41:00,
2013-05-17 16:42:00,61.7,45.4,29.80,SE,135,1.1,5.4,55,0.00,,---,0.17,VWS V14.01,2013-05-17 23:42:00,
2013-05-17 16:43:00,61.7,45.4,29.80,SSE,158,2.0,2.2,55,0.00,,---,0.17,VWS V14.01,2013-05-17 23:43:00,
2013-05-17 16:44:00,61.7,45.4,29.79,ESE,112,0.9,2.2,55,0.00,,---,0.17,VWS V14.01,2013-05-17 23:44:00,
2013-05-17 16:45:00,61.7,45.4,29.80,ESE,112,0.9,2.2,55,0.00,,---,0.17,VWS V14.01,2013-05-17 23:45:00,
2013-05-17 16:46:00,61.7,45.4,29.80,SE,135,2.0,2.0,55,0.00,,---,0.17,VWS V14.01,2013-05-17 23:46:00,
2013-05-17 16:47:00,61.7,45.4,29.80,SE,135,0.9,4.3,55,0.00,,---,0.17,VWS V14.01,2013-05-17 23:47:00,
2013-05-17 16:48:00,61.7,45.4,29.80,SE,135,0.0,1.3,55,0.00,,---,0.17,VWS V14.01,2013-05-17 23:48:00,
2013-05-17 16:49:00,61.9,45.5,29.79,East,90,2.7,2.7,55,0.00,,---,0.17,VWS V14.01,2013-05-17 23:49:00,
2013-05-17 16:50:00,61.9,45.5,29.80,East,90,2.5,2.7,55,0.00,,---,0.17,VWS V14.01,2013-05-17 23:50:00,
2013-05-17 16:51:00,61.9,45.5,29.80,SSW,202,2.0,2.5,55,0.00,,---,0.17,VWS V14.01,2013-05-17 23:51:00,
2013-05-17 16:52:00,61.9,45.5,29.80,South,180,1.3,2.0,55,0.00,,---,0.17,VWS V14.01,2013-05-17 23:52:00,
2013-05-17 16:53:00,61.9,45.5,29.80,SSE,158,2.0,3.8,55,0.00,,---,0.17,VWS V14.01,2013-05-17 23:53:00,
2013-05-17 16:54:00,61.9,45.1,29.79,South,180,0.9,1.3,54,0.00,,---,0.17,VWS V14.01,2013-05-17 23:54:00,
2013-05-17 16:55:00,61.9,45.1,29.80,SSE,158,1.3,1.6,54,0.00,,---,0.17,VWS V14.01,2013-05-17 23:55:00,
2013-05-17 16:56:00,62.1,45.2,29.80,South,180,1.1,1.3,54,0.00,,---,0.17,VWS V14.01,2013-05-17 23:56:00,
2013-05-17 16:57:00,62.1,45.2,29.80,South,180,0.0,1.1,54,0.00,,---,0.17,VWS V14.01,2013-05-17 23:57:00,
2013-05-17 16:58:00,62.1,45.2,29.80,WSW,248,0.0,1.1,54,0.00,,---,0.17,VWS V14.01,2013-05-17 23:58:00,
2013-05-17 16:59:00,62.2,45.9,29.79,SSW,202,2.9,2.9,55,0.00,,---,0.17,VWS V14.01,2013-05-17 23:59:00,
2013-05-17 17:00:00,62.2,45.9,29.80,SSE,158,1.6,2.9,55,0.00,,---,0.17,VWS V14.01,2013-05-18 00:00:00,
2013-05-17 17:01:00,62.2,44.9,29.80,ESE,112,2.7,2.9,53,0.00,,---,0.17,VWS V14.01,2013-05-18 00:01:00,
2013-05-17 17:02:00,62.2,45.4,29.80,South,180,1.3,2.7,54,0.00,,---,0.17,VWS V14.01,2013-05-18 00:02:00,
2013-05-17 17:03:00,62.2,45.9,29.80,South,180,0.0,1.3,55,0.00,,---,0.17,VWS V14.01,2013-05-18 00:03:00,
2013-05-17 17:04:00,62.4,46.1,29.79,South,180,0.0,0.0,55,0.00,,---,0.17,VWS V14.01,2013-05-18 00:04:00,
2013-05-17 17:05:00,62.4,46.1,29.80,SSE,158,0.0,0.0,55,0.00,,---,0.17,VWS V14.01,2013-05-18 00:05:00,
2013-05-17 17:06:00,62.4,46.1,29.80,SSW,202,0.0,1.6,55,0.00,,---,0.17,VWS V14.01,2013-05-18 00:06:00,
2013-05-17 17:07:00,62.4,45.6,29.80,SSW,202,0.0,0.0,54,0.00,,---,0.17,VWS V14.01,2013-05-18 00:07:00,
2013-05-17 17:08:00,62.4,45.6,29.80,SSW,202,0.0,0.0,54,0.00,,---,0.17,VWS V14.01,2013-05-18 00:08:00,
2013-05-17 17:09:00,62.4,46.1,29.79,SSW,202,0.0,0.0,55,0.00,,---,0.17,VWS V14.01,2013-05-18 00:09:00,
2013-05-17 17:10:00,62.4,46.1,29.80,SSW,202,0.0,0.0,55,0.00,,---,0.17,VWS V14.01,2013-05-18 00:10:00,
2013-05-17 17:11:00,62.4,46.1,29.80,SSW,202,0.0,0.0,55,0.00,,---,0.17,VWS V14.01,2013-05-18 00:11:00,
2013-05-17 17:12:00,62.4,46.1,29.80,ESE,112,2.5,3.8,55,0.00,,---,0.17,VWS V14.01,2013-05-18 00:12:00,
2013-05-17 17:13:00,62.4,45.1,29.80,SSE,158,0.9,2.5,53,0.00,,---,0.17,VWS V14.01,2013-05-18 00:13:00,
2013-05-17 17:14:00,62.6,45.2,29.79,SSE,158,0.0,0.0,53,0.00,,---,0.17,VWS V14.01,2013-05-18 00:14:00,
2013-05-17 17:15:00,62.6,45.2,29.80,South,180,0.0,0.0,53,0.00,,---,0.17,VWS V14.01,2013-05-18 00:15:00,
2013-05-17 17:16:00,62.6,45.2,29.80,ENE,68,1.3,1.3,53,0.00,,---,0.17,VWS V14.01,2013-05-18 00:16:00,
2013-05-17 17:17:00,62.4,45.6,29.80,ENE,68,0.9,1.3,54,0.00,,---,0.17,VWS V14.01,2013-05-18 00:17:00,
2013-05-17 17:18:00,62.4,45.6,29.80,ENE,68,0.0,0.9,54,0.00,,---,0.17,VWS V14.01,2013-05-18 00:18:00,
2013-05-17 17:19:00,62.4,45.6,29.79,South,180,2.2,2.2,54,0.00,,---,0.17,VWS V14.01,2013-05-18 00:19:00,
2013-05-17 17:20:00,62.4,45.6,29.80,SE,135,0.0,2.2,54,0.00,,---,0.17,VWS V14.01,2013-05-18 00:20:00,
2013-05-17 17:21:00,62.6,45.7,29.80,South,180,0.9,2.2,54,0.00,,---,0.17,VWS V14.01,2013-05-18 00:21:00,
2013-05-17 17:22:00,62.6,45.7,29.80,SSE,158,2.5,2.5,54,0.00,,---,0.17,VWS V14.01,2013-05-18 00:22:00,
2013-05-17 17:23:00,62.8,45.4,29.80,SSE,158,1.1,2.5,53,0.00,,---,0.17,VWS V14.01,2013-05-18 00:23:00,
2013-05-17 17:24:00,62.8,44.9,29.79,SSE,158,2.5,2.5,52,0.00,,---,0.17,VWS V14.01,2013-05-18 00:24:00,
2013-05-17 17:25:00,62.8,44.9,29.80,ESE,112,1.6,2.5,52,0.00,,---,0.17,VWS V14.01,2013-05-18 00:25:00,
2013-05-17 17:26:00,63.0,45.1,29.80,South,180,2.9,2.9,52,0.00,,---,0.17,VWS V14.01,2013-05-18 00:26:00,
2013-05-17 17:27:00,63.0,45.1,29.80,ENE,68,1.3,2.9,52,0.00,,---,0.17,VWS V14.01,2013-05-18 00:27:00,
2013-05-17 17:28:00,63.0,45.1,29.80,ENE,68,0.0,1.3,52,0.00,,---,0.17,VWS V14.01,2013-05-18 00:28:00,
2013-05-17 17:29:00,63.0,45.1,29.79,East,90,0.0,0.0,52,0.00,,---,0.17,VWS V14.01,2013-05-18 00:29:00,
2013-05-17 17:30:00,63.0,45.1,29.80,East,90,0.0,0.0,52,0.00,,---,0.17,VWS V14.01,2013-05-18 00:30:00,
2013-05-17 17:31:00,63.0,45.1,29.82,East,90,0.0,0.0,52,0.00,,---,0.17,VWS V14.01,2013-05-18 00:31:00,
2013-05-17 17:32:00,63.0,45.1,29.82,East,90,0.0,0.0,52,0.00,,---,0.17,VWS V14.01,2013-05-18 00:32:00,
2013-05-17 17:33:00,63.0,45.1,29.82,East,90,0.0,0.0,52,0.00,,---,0.17,VWS V14.01,2013-05-18 00:33:00,
2013-05-17 17:34:00,63.0,45.6,29.82,ESE,112,0.9,0.9,53,0.00,,---,0.17,VWS V14.01,2013-05-18 00:34:00,
2013-05-17 17:35:00,63.0,45.6,29.82,East,90,1.1,1.1,53,0.00,,---,0.17,VWS V14.01,2013-05-18 00:35:00,
2013-05-17 17:36:00,63.0,45.1,29.82,ESE,112,0.0,1.6,52,0.00,,---,0.17,VWS V14.01,2013-05-18 00:36:00,
2013-05-17 17:37:00,63.0,45.1,29.82,ESE,112,0.0,0.0,52,0.00,,---,0.17,VWS V14.01,2013-05-18 00:37:00,
2013-05-17 17:38:00,63.0,45.6,29.82,East,90,0.0,0.0,53,0.00,,---,0.17,VWS V14.01,2013-05-18 00:38:00,
2013-05-17 17:39:00,63.0,45.6,29.82,East,90,0.0,0.0,53,0.00,,---,0.17,VWS V14.01,2013-05-18 00:39:00,
2013-05-17 17:40:00,63.0,45.1,29.82,East,90,0.0,0.0,52,0.00,,---,0.17,VWS V14.01,2013-05-18 00:40:00,
2013-05-17 17:41:00,63.0,45.1,29.82,SE,135,2.0,2.0,52,0.00,,---,0.17,VWS V14.01,2013-05-18 00:41:00,
2013-05-17 17:42:00,62.8,44.9,29.82,SSE,158,0.9,2.0,52,0.00,,---,0.17,VWS V14.01,2013-05-18 00:42:00,
2013-05-17 17:43:00,62.8,44.9,29.82,SSE,158,0.9,0.9,52,0.00,,---,0.17,VWS V14.01,2013-05-18 00:43:00,
2013-05-17 17:44:00,62.8,45.4,29.82,SSW,202,0.0,0.9,53,0.00,,---,0.17,VWS V14.01,2013-05-18 00:44:00,
2013-05-17 17:45:00,62.8,45.4,29.82,SSW,202,0.0,0.9,53,0.00,,---,0.17,VWS V14.01,2013-05-18 00:45:00,
2013-05-17 17:46:00,62.8,45.4,29.80,SSW,202,0.0,0.0,53,0.00,,---,0.17,VWS V14.01,2013-05-18 00:46:00,
2013-05-17 17:47:00,62.4,44.6,29.80,South,180,0.0,0.0,52,0.00,,---,0.17,VWS V14.01,2013-05-18 00:47:00,
2013-05-17 17:48:00,62.4,45.1,29.80,South,180,0.0,0.0,53,0.00,,---,0.17,VWS V14.01,2013-05-18 00:48:00,
2013-05-17 17:49:00,62.2,44.9,29.79,ESE,112,1.6,1.6,53,0.00,,---,0.17,VWS V14.01,2013-05-18 00:49:00,
2013-05-17 17:50:00,62.2,44.9,29.80,East,90,1.1,1.6,53,0.00,,---,0.17,VWS V14.01,2013-05-18 00:50:00,
2013-05-17 17:51:00,62.2,44.9,29.80,SSE,158,1.6,1.6,53,0.00,,---,0.17,VWS V14.01,2013-05-18 00:51:00,
2013-05-17 17:52:00,62.1,44.8,29.80,ESE,112,0.9,1.6,53,0.00,,---,0.17,VWS V14.01,2013-05-18 00:52:00,
2013-05-17 17:53:00,61.9,44.1,29.80,ESE,112,0.0,0.9,52,0.00,,---,0.17,VWS V14.01,2013-05-18 00:53:00,
2013-05-17 17:54:00,61.7,44.4,29.79,SSE,158,0.0,0.0,53,0.00,,---,0.17,VWS V14.01,2013-05-18 00:54:00,
2013-05-17 17:55:00,61.7,44.4,29.80,SSE,158,0.0,0.0,53,0.00,,---,0.17,VWS V14.01,2013-05-18 00:55:00,
2013-05-17 17:56:00,61.7,44.4,29.80,SSE,158,0.0,0.0,53,0.00,,---,0.17,VWS V14.01,2013-05-18 00:56:00,
2013-05-17 17:57:00,61.5,44.2,29.80,SSE,158,0.0,0.0,53,0.00,,---,0.17,VWS V14.01,2013-05-18 00:57:00,
2013-05-17 17:58:00,61.5,44.2,29.80,ESE,112,0.0,0.0,53,0.00,,---,0.17,VWS V14.01,2013-05-18 00:58:00,
2013-05-17 17:59:00,61.3,44.1,29.79,SE,135,2.0,2.0,53,0.00,,---,0.17,VWS V14.01,2013-05-18 00:59:00,
2013-05-17 18:00:00,61.3,44.1,29.80,SE,135,2.0,2.0,53,0.00,,---,0.17,VWS V14.01,2013-05-18 01:00:00,
2013-05-17 18:01:00,61.3,44.1,29.82,SE,135,0.9,2.0,53,0.00,,---,0.17,VWS V14.01,2013-05-18 01:01:00,
2013-05-17 18:02:00,61.3,44.1,29.82,SE,135,0.0,0.9,53,0.00,,---,0.17,VWS V14.01,2013-05-18 01:02:00,
2013-05-17 18:03:00,61.2,43.9,29.82,SE,135,0.0,0.0,53,0.00,,---,0.17,VWS V14.01,2013-05-18 01:03:00,
2013-05-17 18:04:00,61.0,43.8,29.82,ESE,112,0.9,1.1,53,0.00,,---,0.59,VWS V14.01,2013-05-18 01:04:00,
2013-05-17 18:05:00,61.0,43.8,29.82,ESE,112,2.5,2.5,53,0.00,,---,0.17,VWS V14.01,2013-05-18 01:05:00,
2013-05-17 18:06:00,61.0,43.8,29.82,ESE,112,0.0,2.5,53,0.00,,---,0.17,VWS V14.01,2013-05-18 01:06:00,
2013-05-17 18:07:00,61.0,44.2,29.82,ESE,112,2.0,2.0,54,0.00,,---,0.17,VWS V14.01,2013-05-18 01:07:00,
2013-05-17 18:08:00,60.8,43.6,29.82,South,180,1.1,2.2,53,0.00,,---,0.17,VWS V14.01,2013-05-18 01:08:00,
2013-05-17 18:09:00,60.8,43.6,29.82,ESE,112,2.7,3.8,53,0.00,,---,0.17,VWS V14.01,2013-05-18 01:09:00,
2013-05-17 18:10:00,60.6,43.9,29.82,SSW,202,2.7,3.8,54,0.00,,---,0.17,VWS V14.01,2013-05-18 01:10:00,
2013-05-17 18:11:00,60.6,43.9,29.82,SSW,202,1.1,2.7,54,0.00,,---,0.17,VWS V14.01,2013-05-18 01:11:00,
2013-05-17 18:12:00,60.4,43.7,29.82,East,90,2.7,2.7,54,0.00,,---,0.17,VWS V14.01,2013-05-18 01:12:00,
2013-05-17 18:13:00,60.4,44.2,29.82,ESE,112,1.1,2.7,55,0.00,,---,0.17,VWS V14.01,2013-05-18 01:13:00,
2013-05-17 18:14:00,60.3,44.5,29.82,SSE,158,0.0,1.1,56,0.00,,---,0.17,VWS V14.01,2013-05-18 01:14:00,
2013-05-17 18:15:00,60.3,44.5,29.82,ESE,112,0.0,1.1,56,0.00,,---,0.17,VWS V14.01,2013-05-18 01:15:00,
2013-05-17 18:16:00,60.3,44.5,29.80,SSE,158,3.8,5.8,56,0.00,,---,0.17,VWS V14.01,2013-05-18 01:16:00,
2013-05-17 18:17:00,60.1,44.8,29.80,East,90,1.1,3.8,57,0.00,,---,0.17,VWS V14.01,2013-05-18 01:17:00,
2013-05-17 18:18:00,59.9,44.7,29.80,SSW,202,0.0,2.0,57,0.00,,---,0.17,VWS V14.01,2013-05-18 01:18:00,
2013-05-17 18:19:00,59.7,44.9,29.79,SE,135,2.7,2.7,58,0.00,,---,0.17,VWS V14.01,2013-05-18 01:19:00,
2013-05-17 18:20:00,59.7,44.9,29.80,SE,135,1.3,2.7,58,0.00,,---,0.17,VWS V14.01,2013-05-18 01:20:00,
2013-05-17 18:21:00,59.5,45.2,29.80,SSE,158,4.9,4.9,59,0.00,,---,0.17,VWS V14.01,2013-05-18 01:21:00,
2013-05-17 18:22:00,59.5,45.2,29.80,South,180,0.0,4.9,59,0.00,,---,0.17,VWS V14.01,2013-05-18 01:22:00,
2013-05-17 18:23:00,59.4,45.0,29.80,South,180,0.0,1.6,59,0.00,,---,0.17,VWS V14.01,2013-05-18 01:23:00,
2013-05-17 18:24:00,59.2,45.8,29.79,ESE,112,0.0,0.0,61,0.00,,---,0.17,VWS V14.01,2013-05-18 01:24:00,
2013-05-17 18:25:00,59.2,46.2,29.80,SE,135,1.3,1.3,62,0.00,,---,0.17,VWS V14.01,2013-05-18 01:25:00,
2013-05-17 18:26:00,59.2,46.2,29.80,ESE,112,0.0,1.3,62,0.00,,---,0.17,VWS V14.01,2013-05-18 01:26:00,
2013-05-17 18:27:00,59.2,46.2,29.80,ESE,112,0.0,0.0,62,0.00,,---,0.17,VWS V14.01,2013-05-18 01:27:00,
2013-05-17 18:28:00,59.2,46.6,29.80,SE,135,0.0,0.0,63,0.00,,---,0.17,VWS V14.01,2013-05-18 01:28:00,
2013-05-17 18:29:00,59.2,46.2,29.79,SSW,202,1.3,1.6,62,0.00,,---,0.17,VWS V14.01,2013-05-18 01:29:00,
2013-05-17 18:30:00,59.2,46.2,29.80,SSW,202,0.9,1.6,62,0.00,,---,0.17,VWS V14.01,2013-05-18 01:30:00,
2013-05-17 18:31:00,59.2,46.2,29.80,ESE,112,1.1,2.7,62,0.00,,---,0.17,VWS V14.01,2013-05-18 01:31:00,
2013-05-17 18:32:00,59.2,46.6,29.80,SE,135,0.0,1.1,63,0.00,,---,0.17,VWS V14.01,2013-05-18 01:32:00,
2013-05-17 18:33:00,59.2,46.6,29.80,SE,135,0.0,0.0,63,0.00,,---,0.17,VWS V14.01,2013-05-18 01:33:00,
2013-05-17 18:34:00,59.2,47.0,29.79,SE,135,0.0,0.0,64,0.00,,---,0.17,VWS V14.01,2013-05-18 01:34:00,
2013-05-17 18:35:00,59.2,47.0,29.80,ESE,112,0.0,0.0,64,0.00,,---,0.17,VWS V14.01,2013-05-18 01:35:00,
2013-05-17 18:36:00,59.2,47.0,29.80,SE,135,1.1,2.7,64,0.00,,---,0.17,VWS V14.01,2013-05-18 01:36:00,
2013-05-17 18:37:00,59.2,47.0,29.80,SSE,158,1.3,3.1,64,0.00,,---,0.17,VWS V14.01,2013-05-18 01:37:00,
2013-05-17 18:38:00,59.2,47.0,29.80,SSE,158,0.0,1.3,64,0.00,,---,0.17,VWS V14.01,2013-05-18 01:38:00,
2013-05-17 18:39:00,59.2,47.0,29.79,SSE,158,0.0,0.0,64,0.00,,---,0.17,VWS V14.01,2013-05-18 01:39:00,
2013-05-17 18:40:00,59.2,47.4,29.80,SSE,158,0.0,0.0,65,0.00,,---,0.17,VWS V14.01,2013-05-18 01:40:00,
2013-05-17 18:41:00,59.2,47.8,29.80,SSE,158,0.0,0.0,66,0.00,,---,0.17,VWS V14.01,2013-05-18 01:41:00,
2013-05-17 18:42:00,59.2,47.4,29.80,SE,135,0.9,0.9,65,0.00,,---,0.17,VWS V14.01,2013-05-18 01:42:00,
2013-05-17 18:43:00,59.2,47.4,29.80,SE,135,0.9,1.1,65,0.00,,---,0.17,VWS V14.01,2013-05-18 01:43:00,
2013-05-17 18:44:00,59.2,47.8,29.79,SE,135,0.0,0.0,66,0.00,,---,0.17,VWS V14.01,2013-05-18 01:44:00,
2013-05-17 18:45:00,59.2,47.8,29.80,ESE,112,0.0,0.0,66,0.00,,---,0.17,VWS V14.01,2013-05-18 01:45:00,
2013-05-17 18:46:00,59.2,47.4,29.82,ESE,112,1.6,3.6,65,0.00,,---,0.17,VWS V14.01,2013-05-18 01:46:00,
2013-05-17 18:47:00,59.0,47.3,29.82,SSW,202,1.3,1.6,65,0.00,,---,0.17,VWS V14.01,2013-05-18 01:47:00,
2013-05-17 18:48:00,59.0,47.3,29.82,SSE,158,0.9,1.3,65,0.00,,---,0.17,VWS V14.01,2013-05-18 01:48:00,
2013-05-17 18:49:00,59.0,47.7,29.82,ESE,112,1.1,1.6,66,0.00,,---,0.17,VWS V14.01,2013-05-18 01:49:00,
2013-05-17 18:50:00,59.0,47.7,29.82,ESE,112,1.3,1.6,66,0.00,,---,0.17,VWS V14.01,2013-05-18 01:50:00,
2013-05-17 18:51:00,59.0,47.3,29.82,SSE,158,0.9,2.2,65,0.00,,---,0.17,VWS V14.01,2013-05-18 01:51:00,
2013-05-17 18:52:00,59.0,47.7,29.82,SSE,158,3.6,3.6,66,0.00,,---,0.17,VWS V14.01,2013-05-18 01:52:00,
2013-05-17 18:53:00,59.0,47.7,29.82,ESE,112,1.1,3.6,66,0.00,,---,0.17,VWS V14.01,2013-05-18 01:53:00,
2013-05-17 18:54:00,59.0,47.7,29.82,ENE,68,0.9,1.3,66,0.00,,---,0.17,VWS V14.01,2013-05-18 01:54:00,
2013-05-17 18:55:00,59.0,47.7,29.82,ESE,112,1.3,1.3,66,0.00,,---,0.17,VWS V14.01,2013-05-18 01:55:00,
2013-05-17 18:56:00,59.2,47.8,29.82,ESE,112,1.3,1.3,66,0.00,,---,0.17,VWS V14.01,2013-05-18 01:56:00,
2013-05-17 18:57:00,59.2,47.8,29.82,SE,135,2.5,2.5,66,0.00,,---,0.17,VWS V14.01,2013-05-18 01:57:00,
2013-05-17 18:58:00,59.2,47.8,29.82,SSE,158,2.0,2.5,66,0.00,,---,0.17,VWS V14.01,2013-05-18 01:58:00,
2013-05-17 18:59:00,59.4,48.0,29.82,SSE,158,0.9,1.3,66,0.00,,---,0.17,VWS V14.01,2013-05-18 01:59:00,
2013-05-17 19:00:00,59.4,48.0,29.82,SSE,158,0.0,1.3,66,0.00,,---,0.17,VWS V14.01,2013-05-18 02:00:00,
2013-05-17 19:01:00,59.4,48.0,29.80,SSE,158,2.9,3.6,66,0.00,,---,0.17,VWS V14.01,2013-05-18 02:01:00,
2013-05-17 19:02:00,59.4,48.4,29.80,ESE,112,0.9,2.9,67,0.00,,---,0.17,VWS V14.01,2013-05-18 02:02:00,
2013-05-17 19:03:00,59.2,48.2,29.80,ESE,112,2.0,2.0,67,0.00,,---,0.17,VWS V14.01,2013-05-18 02:03:00,
2013-05-17 19:04:00,59.2,48.2,29.79,ESE,112,0.9,2.0,67,0.00,,---,0.17,VWS V14.01,2013-05-18 02:04:00,
2013-05-17 19:05:00,59.2,48.2,29.80,SE,135,0.0,2.0,67,0.00,,---,0.17,VWS V14.01,2013-05-18 02:05:00,
2013-05-17 19:06:00,59.4,48.4,29.80,SE,135,1.1,1.3,67,0.00,,---,0.17,VWS V14.01,2013-05-18 02:06:00,
2013-05-17 19:07:00,59.4,48.4,29.80,SE,135,1.1,1.1,67,0.00,,---,0.17,VWS V14.01,2013-05-18 02:07:00,
2013-05-17 19:08:00,59.4,48.4,29.80,SSE,158,2.0,2.0,67,0.00,,---,0.17,VWS V14.01,2013-05-18 02:08:00,
2013-05-17 19:09:00,59.4,48.4,29.79,ESE,112,1.1,1.1,67,0.00,,---,0.17,VWS V14.01,2013-05-18 02:09:00,
2013-05-17 19:10:00,59.4,48.4,29.80,ESE,112,0.9,1.1,67,0.00,,---,0.17,VWS V14.01,2013-05-18 02:10:00,
2013-05-17 19:11:00,59.4,48.4,29.80,SSE,158,2.0,2.0,67,0.00,,---,0.17,VWS V14.01,2013-05-18 02:11:00,
2013-05-17 19:12:00,59.5,48.6,29.80,ESE,112,0.9,2.0,67,0.00,,---,0.17,VWS V14.01,2013-05-18 02:12:00,
2013-05-17 19:13:00,59.5,48.6,29.80,ESE,112,0.0,1.3,67,0.00,,---,0.17,VWS V14.01,2013-05-18 02:13:00,
2013-05-17 19:14:00,59.5,49.4,29.79,East,90,0.0,0.0,69,0.00,,---,0.17,VWS V14.01,2013-05-18 02:14:00,
2013-05-17 19:15:00,59.5,49.4,29.80,East,90,0.0,0.9,69,0.00,,---,0.17,VWS V14.01,2013-05-18 02:15:00,
2013-05-17 19:16:00,59.4,48.8,29.76,SSW,202,1.6,2.5,68,0.00,,---,0.17,VWS V14.01,2013-05-18 02:16:00,
2013-05-17 19:17:00,59.4,48.8,29.76,SSW,202,0.0,1.6,68,0.00,,---,0.17,VWS V14.01,2013-05-18 02:17:00,
2013-05-17 19:18:00,59.4,48.8,29.76,SSE,158,0.0,0.0,68,0.00,,---,0.17,VWS V14.01,2013-05-18 02:18:00,
2013-05-17 19:19:00,59.4,49.2,29.76,SSE,158,0.0,0.0,69,0.00,,---,0.17,VWS V14.01,2013-05-18 02:19:00,
2013-05-17 19:20:00,59.4,49.6,29.76,SSE,158,0.0,0.0,70,0.00,,---,0.17,VWS V14.01,2013-05-18 02:20:00,
2013-05-17 19:21:00,59.4,49.2,29.76,SSE,158,0.0,0.0,69,0.00,,---,0.17,VWS V14.01,2013-05-18 02:21:00,
2013-05-17 19:22:00,59.4,48.8,29.76,SE,135,0.0,1.3,68,0.00,,---,0.17,VWS V14.01,2013-05-18 02:22:00,
2013-05-17 19:23:00,59.4,48.8,29.76,SSE,158,1.1,2.2,68,0.00,,---,0.17,VWS V14.01,2013-05-18 02:23:00,
2013-05-17 19:24:00,59.2,48.6,29.76,SE,135,0.0,2.2,68,0.00,,---,0.17,VWS V14.01,2013-05-18 02:24:00,
2013-05-17 19:25:00,59.2,48.6,29.76,SE,135,0.0,2.2,68,0.00,,---,0.17,VWS V14.01,2013-05-18 02:25:00,
2013-05-17 19:26:00,59.2,48.6,29.76,SE,135,0.0,0.0,68,0.00,,---,0.17,VWS V14.01,2013-05-18 02:26:00,
2013-05-17 19:27:00,59.2,48.6,29.76,ESE,112,0.0,0.0,68,0.00,,---,0.17,VWS V14.01,2013-05-18 02:27:00,
2013-05-17 19:28:00,59.2,48.6,29.76,SE,135,0.0,1.3,68,0.00,,---,0.17,VWS V14.01,2013-05-18 02:28:00,
2013-05-17 19:29:00,59.2,48.6,29.76,ENE,68,1.1,2.0,68,0.00,,---,0.17,VWS V14.01,2013-05-18 02:29:00,
2013-05-17 19:30:00,59.2,48.6,29.76,East,90,1.1,2.0,68,0.00,,---,0.17,VWS V14.01,2013-05-18 02:30:00,
2013-05-17 19:31:00,59.2,48.6,29.80,ESE,112,0.9,1.3,68,0.00,,---,0.17,VWS V14.01,2013-05-18 02:31:00,
2013-05-17 19:32:00,59.0,48.5,29.80,SE,135,0.0,0.9,68,0.00,,---,0.17,VWS V14.01,2013-05-18 02:32:00,
2013-05-17 19:33:00,59.0,48.5,29.80,SE,135,0.0,0.0,68,0.00,,---,0.17,VWS V14.01,2013-05-18 02:33:00,
2013-05-17 19:34:00,59.0,48.5,29.79,SE,135,0.0,0.0,68,0.00,,---,0.17,VWS V14.01,2013-05-18 02:34:00,
2013-05-17 19:35:00,59.0,48.5,29.80,SE,135,0.0,0.0,68,0.00,,---,0.17,VWS V14.01,2013-05-18 02:35:00,
2013-05-17 19:36:00,59.0,48.5,29.80,SE,135,0.0,0.0,68,0.00,,---,0.17,VWS V14.01,2013-05-18 02:36:00,
2013-05-17 19:37:00,59.0,48.5,29.80,SE,135,0.0,0.0,68,0.00,,---,0.17,VWS V14.01,2013-05-18 02:37:00,
2013-05-17 19:38:00,59.0,48.9,29.80,SE,135,0.0,0.0,69,0.00,,---,0.17,VWS V14.01,2013-05-18 02:38:00,
2013-05-17 19:39:00,59.0,48.9,29.79,East,90,0.0,0.0,69,0.00,,---,0.17,VWS V14.01,2013-05-18 02:39:00,
2013-05-17 19:40:00,59.0,48.9,29.80,East,90,0.9,1.1,69,0.00,,---,0.17,VWS V14.01,2013-05-18 02:40:00,
2013-05-17 19:41:00,58.8,48.7,29.80,ESE,112,1.3,1.3,69,0.00,,---,0.17,VWS V14.01,2013-05-18 02:41:00,
2013-05-17 19:42:00,58.8,48.3,29.80,ESE,112,0.0,1.3,68,0.00,,---,0.17,VWS V14.01,2013-05-18 02:42:00,
2013-05-17 19:43:00,59.0,48.5,29.80,ESE,112,0.0,0.0,68,0.00,,---,0.17,VWS V14.01,2013-05-18 02:43:00,
2013-05-17 19:44:00,59.0,48.5,29.79,SSE,158,0.0,2.0,68,0.00,,---,0.17,VWS V14.01,2013-05-18 02:44:00,
2013-05-17 19:45:00,59.0,48.5,29.80,ESE,112,0.0,2.0,68,0.00,,---,0.17,VWS V14.01,2013-05-18 02:45:00,
2013-05-17 19:46:00,59.2,48.6,29.80,ESE,112,0.9,1.6,68,0.00,,---,0.17,VWS V14.01,2013-05-18 02:46:00,
2013-05-17 19:47:00,59.4,48.8,29.80,ESE,112,0.9,1.3,68,0.00,,---,0.17,VWS V14.01,2013-05-18 02:47:00,
2013-05-17 19:48:00,59.4,48.8,29.80,ENE,68,0.0,1.3,68,0.00,,---,0.17,VWS V14.01,2013-05-18 02:48:00,
2013-05-17 19:49:00,59.5,49.0,29.79,ESE,112,0.0,0.0,68,0.00,,---,0.17,VWS V14.01,2013-05-18 02:49:00,
2013-05-17 19:50:00,59.4,48.8,29.80,ESE,112,0.0,0.0,68,0.00,,---,0.17,VWS V14.01,2013-05-18 02:50:00,
2013-05-17 19:51:00,59.4,48.8,29.80,East,90,0.9,0.9,68,0.00,,---,0.17,VWS V14.01,2013-05-18 02:51:00,
2013-05-17 19:52:00,59.4,48.8,29.80,East,90,0.0,1.1,68,0.00,,---,0.17,VWS V14.01,2013-05-18 02:52:00,
2013-05-17 19:53:00,59.4,48.8,29.80,East,90,0.0,0.0,68,0.00,,---,0.17,VWS V14.01,2013-05-18 02:53:00,
2013-05-17 19:54:00,59.2,48.6,29.79,ESE,112,0.0,1.1,68,0.00,,---,0.17,VWS V14.01,2013-05-18 02:54:00,
2013-05-17 19:55:00,59.2,48.6,29.80,ESE,112,0.0,1.1,68,0.00,,---,0.17,VWS V14.01,2013-05-18 02:55:00,
2013-05-17 19:56:00,59.0,48.5,29.80,ESE,112,0.0,0.0,68,0.00,,---,0.17,VWS V14.01,2013-05-18 02:56:00,
2013-05-17 19:57:00,58.8,48.3,29.80,ESE,112,0.0,0.0,68,0.00,,---,0.17,VWS V14.01,2013-05-18 02:57:00,
2013-05-17 19:58:00,58.8,48.3,29.80,ESE,112,0.0,0.0,68,0.00,,---,0.17,VWS V14.01,2013-05-18 02:58:00,
2013-05-17 19:59:00,58.8,48.3,29.79,ESE,112,0.0,0.0,68,0.00,,---,0.17,VWS V14.01,2013-05-18 02:59:00,
2013-05-17 20:00:00,58.8,48.3,29.80,ESE,112,0.0,0.0,68,0.00,,---,0.17,VWS V14.01,2013-05-18 03:00:00,
2013-05-17 20:01:00,58.6,48.1,29.80,SSE,158,1.3,1.3,68,0.00,,---,0.17,VWS V14.01,2013-05-18 03:01:00,
2013-05-17 20:02:00,58.6,48.1,29.80,SE,135,0.0,1.3,68,0.00,,---,0.17,VWS V14.01,2013-05-18 03:02:00,
2013-05-17 20:03:00,58.5,48.3,29.80,SSE,158,0.0,0.0,69,0.00,,---,0.17,VWS V14.01,2013-05-18 03:03:00,
2013-05-17 20:04:00,58.5,48.0,29.79,SSE,158,0.0,0.0,68,0.00,,---,0.17,VWS V14.01,2013-05-18 03:04:00,
2013-05-17 20:05:00,58.5,48.0,29.80,SSE,158,1.1,1.1,68,0.00,,---,0.17,VWS V14.01,2013-05-18 03:05:00,
2013-05-17 20:06:00,58.3,47.8,29.80,East,90,0.9,1.1,68,0.00,,---,0.17,VWS V14.01,2013-05-18 03:06:00,
2013-05-17 20:07:00,58.3,47.8,29.80,SSE,158,2.0,4.0,68,0.00,,---,0.17,VWS V14.01,2013-05-18 03:07:00,
2013-05-17 20:08:00,58.3,47.8,29.80,ESE,112,4.3,4.3,68,0.00,,---,0.17,VWS V14.01,2013-05-18 03:08:00,
2013-05-17 20:09:00,58.1,48.0,29.79,SSE,158,0.0,0.0,69,0.00,,---,0.17,VWS V14.01,2013-05-18 03:09:00,
2013-05-17 20:10:00,58.1,48.0,29.80,SSE,158,0.0,0.0,69,0.00,,---,0.17,VWS V14.01,2013-05-18 03:10:00,
2013-05-17 20:11:00,58.1,48.0,29.80,SSE,158,0.0,1.3,69,0.00,,---,0.17,VWS V14.01,2013-05-18 03:11:00,
2013-05-17 20:12:00,58.1,48.0,29.80,SSE,158,2.9,3.4,69,0.00,,---,0.17,VWS V14.01,2013-05-18 03:12:00,
2013-05-17 20:13:00,57.9,47.4,29.80,ESE,112,1.1,2.9,68,0.00,,---,0.17,VWS V14.01,2013-05-18 03:13:00,
2013-05-17 20:14:00,57.9,47.8,29.79,SE,135,1.6,2.5,69,0.00,,---,0.17,VWS V14.01,2013-05-18 03:14:00,
2013-05-17 20:15:00,57.9,47.8,29.80,SE,135,1.1,2.5,69,0.00,,---,0.17,VWS V14.01,2013-05-18 03:15:00,
2013-05-17 20:16:00,57.9,47.8,29.76,SSE,158,3.4,3.4,69,0.00,,---,0.17,VWS V14.01,2013-05-18 03:16:00,
2013-05-17 20:17:00,57.9,47.8,29.76,ESE,112,0.9,3.4,69,0.00,,---,0.17,VWS V14.01,2013-05-18 03:17:00,
2013-05-17 20:18:00,57.7,47.7,29.76,ESE,112,0.0,0.9,69,0.00,,---,0.17,VWS V14.01,2013-05-18 03:18:00,
2013-05-17 20:19:00,57.6,47.5,29.76,ESE,112,1.1,1.3,69,0.00,,---,0.17,VWS V14.01,2013-05-18 03:19:00,
2013-05-17 20:20:00,57.6,47.5,29.76,SE,135,3.6,3.6,69,0.00,,---,0.17,VWS V14.01,2013-05-18 03:20:00,
2013-05-17 20:21:00,57.6,47.5,29.76,ESE,112,0.9,3.6,69,0.00,,---,0.17,VWS V14.01,2013-05-18 03:21:00,
2013-05-17 20:22:00,57.6,47.5,29.76,ESE,112,1.1,1.1,69,0.00,,---,0.17,VWS V14.01,2013-05-18 03:22:00,
2013-05-17 20:23:00,57.6,47.5,29.76,SSE,158,1.3,1.3,69,0.00,,---,0.17,VWS V14.01,2013-05-18 03:23:00,
2013-05-17 20:24:00,57.4,47.3,29.76,ESE,112,0.0,0.9,69,0.00,,---,0.17,VWS V14.01,2013-05-18 03:24:00,
2013-05-17 20:25:00,57.4,47.3,29.76,SE,135,0.0,0.9,69,0.00,,---,0.17,VWS V14.01,2013-05-18 03:25:00,
2013-05-17 20:26:00,57.4,47.3,29.76,SSE,158,2.5,3.1,69,0.00,,---,0.17,VWS V14.01,2013-05-18 03:26:00,
2013-05-17 20:27:00,57.2,47.1,29.76,ESE,112,2.0,2.7,69,0.00,,---,0.17,VWS V14.01,2013-05-18 03:27:00,
2013-05-17 20:28:00,57.2,47.5,29.76,SE,135,1.3,3.6,70,0.00,,---,0.17,VWS V14.01,2013-05-18 03:28:00,
2013-05-17 20:29:00,57.2,47.5,29.76,ESE,112,0.0,0.0,70,0.00,,---,0.17,VWS V14.01,2013-05-18 03:29:00,
2013-05-17 20:30:00,57.2,47.5,29.76,SE,135,2.7,2.7,70,0.00,,---,0.17,VWS V14.01,2013-05-18 03:30:00,
2013-05-17 20:31:00,57.2,47.5,29.80,ESE,112,2.0,2.7,70,0.00,,---,0.17,VWS V14.01,2013-05-18 03:31:00,
2013-05-17 20:32:00,57.2,47.5,29.80,ESE,112,0.9,2.0,70,0.00,,---,0.17,VWS V14.01,2013-05-18 03:32:00,
2013-05-17 20:33:00,57.0,47.3,29.80,ESE,112,0.9,1.1,70,0.00,,---,0.17,VWS V14.01,2013-05-18 03:33:00,
2013-05-17 20:34:00,57.0,47.7,29.79,SSE,158,1.1,2.2,71,0.00,,---,0.17,VWS V14.01,2013-05-18 03:34:00,
2013-05-17 20:35:00,57.0,47.7,29.80,SSE,158,0.9,2.2,71,0.00,,---,0.17,VWS V14.01,2013-05-18 03:35:00,
2013-05-17 20:36:00,57.0,47.7,29.80,SSE,158,1.3,1.3,71,0.00,,---,0.17,VWS V14.01,2013-05-18 03:36:00,
2013-05-17 20:37:00,56.8,47.5,29.80,SSE,158,1.1,1.3,71,0.00,,---,0.17,VWS V14.01,2013-05-18 03:37:00,
2013-05-17 20:38:00,56.8,47.5,29.80,South,180,0.0,1.1,71,0.00,,---,0.17,VWS V14.01,2013-05-18 03:38:00,
2013-05-17 20:39:00,56.8,47.5,29.79,SSE,158,1.1,2.7,71,0.00,,---,0.17,VWS V14.01,2013-05-18 03:39:00,
2013-05-17 20:40:00,56.8,47.5,29.80,SSE,158,0.0,2.7,71,0.00,,---,0.17,VWS V14.01,2013-05-18 03:40:00,
2013-05-17 20:41:00,56.7,47.4,29.80,ESE,112,0.9,0.9,71,0.00,,---,0.17,VWS V14.01,2013-05-18 03:41:00,
2013-05-17 20:42:00,56.7,47.4,29.80,SSE,158,0.0,1.3,71,0.00,,---,0.17,VWS V14.01,2013-05-18 03:42:00,
2013-05-17 20:43:00,56.7,47.8,29.80,SE,135,0.0,0.0,72,0.00,,---,0.17,VWS V14.01,2013-05-18 03:43:00,
2013-05-17 20:44:00,56.7,47.8,29.79,East,90,0.9,2.2,72,0.00,,---,0.17,VWS V14.01,2013-05-18 03:44:00,
2013-05-17 20:45:00,56.7,47.8,29.80,ESE,112,1.6,2.2,72,0.00,,---,0.17,VWS V14.01,2013-05-18 03:45:00,
2013-05-17 20:46:00,56.7,47.8,29.80,SSE,158,0.0,2.0,72,0.00,,---,0.17,VWS V14.01,2013-05-18 03:46:00,
2013-05-17 20:47:00,56.7,47.8,29.80,ESE,112,2.7,2.7,72,0.00,,---,0.17,VWS V14.01,2013-05-18 03:47:00,
2013-05-17 20:48:00,56.5,47.6,29.80,SSE,158,4.3,4.3,72,0.00,,---,0.17,VWS V14.01,2013-05-18 03:48:00,
2013-05-17 20:49:00,56.5,47.6,29.79,SSE,158,1.1,1.1,72,0.00,,---,0.17,VWS V14.01,2013-05-18 03:49:00,
2013-05-17 20:50:00,56.5,47.6,29.80,SSE,158,1.3,2.0,72,0.00,,---,0.17,VWS V14.01,2013-05-18 03:50:00,
2013-05-17 20:51:00,56.5,47.9,29.80,ESE,112,0.9,1.3,73,0.00,,---,0.17,VWS V14.01,2013-05-18 03:51:00,
2013-05-17 20:52:00,56.5,47.9,29.80,ESE,112,0.0,0.9,73,0.00,,---,0.17,VWS V14.01,2013-05-18 03:52:00,
2013-05-17 20:53:00,56.5,47.9,29.80,ESE,112,0.0,0.0,73,0.00,,---,0.17,VWS V14.01,2013-05-18 03:53:00,
2013-05-17 20:54:00,56.3,47.8,29.79,ESE,112,0.0,0.0,73,0.00,,---,0.17,VWS V14.01,2013-05-18 03:54:00,
2013-05-17 20:55:00,56.3,47.8,29.80,ESE,112,0.0,0.0,73,0.00,,---,0.17,VWS V14.01,2013-05-18 03:55:00,
2013-05-17 20:56:00,56.3,47.8,29.80,ESE,112,0.0,0.0,73,0.00,,---,0.17,VWS V14.01,2013-05-18 03:56:00,
2013-05-17 20:57:00,56.3,47.8,29.80,ESE,112,0.0,0.0,73,0.00,,---,0.17,VWS V14.01,2013-05-18 03:57:00,
2013-05-17 20:58:00,56.3,47.8,29.80,ESE,112,0.0,0.0,73,0.00,,---,0.17,VWS V14.01,2013-05-18 03:58:00,
2013-05-17 20:59:00,56.3,47.8,29.79,ESE,112,0.0,0.0,73,0.00,,---,0.17,VWS V14.01,2013-05-18 03:59:00,
2013-05-17 21:00:00,56.3,48.1,29.80,ESE,112,0.0,0.0,74,0.00,,---,0.17,VWS V14.01,2013-05-18 04:00:00,
2013-05-17 21:01:00,56.3,48.1,29.82,East,90,0.0,0.0,74,0.00,,---,0.17,VWS V14.01,2013-05-18 04:01:00,
2013-05-17 21:02:00,56.3,48.5,29.82,East,90,0.0,0.0,75,0.00,,---,0.17,VWS V14.01,2013-05-18 04:02:00,
2013-05-17 21:03:00,56.1,48.0,29.82,East,90,0.0,0.0,74,0.00,,---,0.17,VWS V14.01,2013-05-18 04:03:00,
2013-05-17 21:04:00,56.1,48.0,29.82,East,90,0.0,0.0,74,0.00,,---,0.17,VWS V14.01,2013-05-18 04:04:00,
2013-05-17 21:05:00,56.1,48.0,29.82,East,90,0.0,0.0,74,0.00,,---,0.17,VWS V14.01,2013-05-18 04:05:00,
2013-05-17 21:06:00,55.9,47.8,29.82,East,90,0.0,0.0,74,0.00,,---,0.17,VWS V14.01,2013-05-18 04:06:00,
2013-05-17 21:07:00,55.9,47.8,29.82,East,90,0.0,0.0,74,0.00,,---,0.17,VWS V14.01,2013-05-18 04:07:00,
2013-05-17 21:08:00,55.9,47.8,29.82,East,90,0.0,0.0,74,0.00,,---,0.17,VWS V14.01,2013-05-18 04:08:00,
2013-05-17 21:09:00,55.9,47.8,29.82,East,90,0.0,0.0,74,0.00,,---,0.17,VWS V14.01,2013-05-18 04:09:00,
2013-05-17 21:10:00,55.9,47.8,29.82,East,90,0.0,0.0,74,0.00,,---,0.17,VWS V14.01,2013-05-18 04:10:00,
2013-05-17 21:11:00,55.9,47.8,29.82,NNE,22,1.6,1.6,74,0.00,,---,0.17,VWS V14.01,2013-05-18 04:11:00,
2013-05-17 21:12:00,55.9,48.1,29.82,NNE,22,0.9,1.6,75,0.00,,---,0.17,VWS V14.01,2013-05-18 04:12:00,
2013-05-17 21:13:00,55.8,47.6,29.82,WNW,292,0.9,0.9,74,0.00,,---,0.17,VWS V14.01,2013-05-18 04:13:00,
2013-05-17 21:14:00,55.9,48.1,29.82,WNW,292,0.0,0.9,75,0.00,,---,0.17,VWS V14.01,2013-05-18 04:14:00,
2013-05-17 21:15:00,55.9,48.1,29.82,WNW,292,0.0,0.0,75,0.00,,---,0.17,VWS V14.01,2013-05-18 04:15:00,
2013-05-17 21:16:00,55.8,48.0,29.82,WNW,292,0.0,0.0,75,0.00,,---,0.17,VWS V14.01,2013-05-18 04:16:00,
2013-05-17 21:17:00,55.8,48.0,29.82,WNW,292,0.0,0.0,75,0.00,,---,0.17,VWS V14.01,2013-05-18 04:17:00,
2013-05-17 21:18:00,55.8,48.3,29.82,NNW,338,0.0,0.0,76,0.00,,---,0.17,VWS V14.01,2013-05-18 04:18:00,
2013-05-17 21:19:00,55.8,48.7,29.82,NNW,338,1.3,1.6,77,0.00,,---,0.17,VWS V14.01,2013-05-18 04:19:00,
2013-05-17 21:20:00,55.8,48.3,29.82,NNW,338,0.0,1.3,76,0.00,,---,0.17,VWS V14.01,2013-05-18 04:20:00,
2013-05-17 21:21:00,55.8,48.0,29.82,NNW,338,0.0,0.0,75,0.00,,---,0.17,VWS V14.01,2013-05-18 04:21:00,
2013-05-17 21:22:00,55.8,48.0,29.82,NNW,338,0.0,0.0,75,0.00,,---,0.17,VWS V14.01,2013-05-18 04:22:00,
2013-05-17 21:23:00,55.6,47.8,29.82,NNW,338,0.0,0.0,75,0.00,,---,0.17,VWS V14.01,2013-05-18 04:23:00,
2013-05-17 21:24:00,55.6,47.8,29.82,NNW,338,0.0,0.0,75,0.00,,---,0.17,VWS V14.01,2013-05-18 04:24:00,
2013-05-17 21:25:00,55.6,48.2,29.82,WNW,292,1.1,1.1,76,0.00,,---,0.17,VWS V14.01,2013-05-18 04:25:00,
2013-05-17 21:26:00,55.6,48.2,29.82,ENE,68,0.0,0.9,76,0.00,,---,0.17,VWS V14.01,2013-05-18 04:26:00,
2013-05-17 21:27:00,55.6,48.2,29.82,East,90,0.9,0.9,76,0.00,,---,0.17,VWS V14.01,2013-05-18 04:27:00,
2013-05-17 21:28:00,55.6,48.2,29.82,SE,135,1.1,1.6,76,0.00,,---,0.17,VWS V14.01,2013-05-18 04:28:00,
2013-05-17 21:29:00,55.6,48.2,29.82,South,180,0.0,1.1,76,0.00,,---,0.17,VWS V14.01,2013-05-18 04:29:00,
2013-05-17 21:30:00,55.6,48.5,29.82,South,180,0.0,1.1,77,0.00,,---,0.17,VWS V14.01,2013-05-18 04:30:00,
2013-05-17 21:31:00,55.6,48.2,29.82,South,180,0.0,0.0,76,0.00,,---,0.17,VWS V14.01,2013-05-18 04:31:00,
2013-05-17 21:32:00,55.6,48.2,29.82,South,180,0.0,0.0,76,0.00,,---,0.17,VWS V14.01,2013-05-18 04:32:00,
2013-05-17 21:33:00,55.6,48.5,29.82,South,180,0.0,0.0,77,0.00,,---,0.17,VWS V14.01,2013-05-18 04:33:00,
2013-05-17 21:34:00,55.6,48.5,29.82,SSE,158,0.0,0.0,77,0.00,,---,0.17,VWS V14.01,2013-05-18 04:34:00,
2013-05-17 21:35:00,55.6,48.8,29.82,NNE,22,0.0,0.0,78,0.00,,---,0.17,VWS V14.01,2013-05-18 04:35:00,
2013-05-17 21:36:00,55.6,48.5,29.82,SSE,158,1.1,2.7,77,0.00,,---,0.17,VWS V14.01,2013-05-18 04:36:00,
2013-05-17 21:37:00,55.6,48.5,29.82,ENE,68,1.3,2.7,77,0.00,,---,0.17,VWS V14.01,2013-05-18 04:37:00,
2013-05-17 21:38:00,55.6,48.8,29.82,ESE,112,1.1,1.6,78,0.00,,---,0.17,VWS V14.01,2013-05-18 04:38:00,
2013-05-17 21:39:00,55.6,48.5,29.82,NE,45,1.6,2.2,77,0.00,,---,0.17,VWS V14.01,2013-05-18 04:39:00,
2013-05-17 21:40:00,55.6,48.5,29.82,SSE,158,1.6,1.6,77,0.00,,---,0.17,VWS V14.01,2013-05-18 04:40:00,
2013-05-17 21:41:00,55.6,48.2,29.82,ESE,112,1.3,2.5,76,0.00,,---,0.17,VWS V14.01,2013-05-18 04:41:00,
2013-05-17 21:42:00,55.6,48.2,29.82,ESE,112,1.3,2.5,76,0.00,,---,0.17,VWS V14.01,2013-05-18 04:42:00,
2013-05-17 21:43:00,55.6,48.2,29.82,SSE,158,1.1,2.7,76,0.00,,---,0.17,VWS V14.01,2013-05-18 04:43:00,
2013-05-17 21:44:00,55.6,48.2,29.82,ESE,112,3.6,4.3,76,0.00,,---,0.17,VWS V14.01,2013-05-18 04:44:00,
2013-05-17 21:45:00,55.6,48.2,29.82,East,90,2.0,3.6,76,0.00,,---,0.17,VWS V14.01,2013-05-18 04:45:00,
2013-05-17 21:46:00,55.8,48.3,29.82,SE,135,2.7,3.4,76,0.00,,---,0.17,VWS V14.01,2013-05-18 04:46:00,
2013-05-17 21:47:00,55.8,48.3,29.82,SSE,158,0.0,3.4,76,0.00,,---,0.17,VWS V14.01,2013-05-18 04:47:00,
2013-05-17 21:48:00,55.8,48.3,29.82,ESE,112,1.3,2.2,76,0.00,,---,0.17,VWS V14.01,2013-05-18 04:48:00,
2013-05-17 21:49:00,55.8,48.3,29.82,ESE,112,0.0,2.0,76,0.00,,---,0.17,VWS V14.01,2013-05-18 04:49:00,
2013-05-17 21:50:00,55.8,48.3,29.82,SSE,158,0.9,0.9,76,0.00,,---,0.17,VWS V14.01,2013-05-18 04:50:00,
2013-05-17 21:51:00,55.8,48.3,29.82,SE,135,2.5,3.1,76,0.00,,---,0.17,VWS V14.01,2013-05-18 04:51:00,
2013-05-17 21:52:00,55.8,48.0,29.82,SSE,158,1.3,3.1,75,0.00,,---,0.17,VWS V14.01,2013-05-18 04:52:00,
2013-05-17 21:53:00,55.8,48.0,29.82,ESE,112,0.0,1.3,75,0.00,,---,0.17,VWS V14.01,2013-05-18 04:53:00,
2013-05-17 21:54:00,55.9,48.1,29.82,ENE,68,1.6,2.0,75,0.00,,---,0.17,VWS V14.01,2013-05-18 04:54:00,
2013-05-17 21:55:00,55.9,48.1,29.82,ESE,112,1.6,2.2,75,0.00,,---,0.17,VWS V14.01,2013-05-18 04:55:00,
2013-05-17 21:56:00,55.9,48.1,29.82,SE,135,2.5,2.5,75,0.00,,---,0.17,VWS V14.01,2013-05-18 04:56:00,
2013-05-17 21:57:00,55.9,48.1,29.82,ENE,68,2.2,2.5,75,0.00,,---,0.17,VWS V14.01,2013-05-18 04:57:00,
2013-05-17 21:58:00,55.9,48.1,29.82,South,180,1.6,2.2,75,0.00,,---,0.17,VWS V14.01,2013-05-18 04:58:00,
2013-05-17 21:59:00,55.9,48.1,29.82,SSW,202,1.3,1.6,75,0.00,,---,0.17,VWS V14.01,2013-05-18 04:59:00,
2013-05-17 22:00:00,55.9,48.1,29.82,SSE,158,0.0,1.6,75,0.00,,---,0.17,VWS V14.01,2013-05-18 05:00:00,
2013-05-17 22:01:00,55.8,47.6,29.82,WSW,248,0.0,0.0,74,0.00,,---,0.17,VWS V14.01,2013-05-18 05:01:00,
2013-05-17 22:02:00,55.8,47.6,29.82,NE,45,3.4,3.4,74,0.00,,---,0.17,VWS V14.01,2013-05-18 05:02:00,
2013-05-17 22:03:00,55.8,48.0,29.82,East,90,2.2,3.4,75,0.00,,---,0.17,VWS V14.01,2013-05-18 05:03:00,
2013-05-17 22:04:00,55.8,48.0,29.82,East,90,1.6,2.2,75,0.00,,---,0.17,VWS V14.01,2013-05-18 05:04:00,
2013-05-17 22:05:00,55.8,48.0,29.82,NNE,22,2.0,2.0,75,0.00,,---,0.17,VWS V14.01,2013-05-18 05:05:00,
2013-05-17 22:06:00,55.8,48.0,29.82,SSW,202,2.0,2.7,75,0.00,,---,0.17,VWS V14.01,2013-05-18 05:06:00,
2013-05-17 22:07:00,55.8,48.0,29.82,SSE,158,1.1,2.7,75,0.00,,---,0.17,VWS V14.01,2013-05-18 05:07:00,
2013-05-17 22:08:00,55.8,48.0,29.82,SSE,158,1.1,1.3,75,0.00,,---,0.17,VWS V14.01,2013-05-18 05:08:00,
2013-05-17 22:09:00,55.8,48.0,29.82,SSE,158,0.0,1.3,75,0.00,,---,0.17,VWS V14.01,2013-05-18 05:09:00,
2013-05-17 22:10:00,55.8,48.0,29.82,South,180,1.6,1.6,75,0.00,,---,0.17,VWS V14.01,2013-05-18 05:10:00,
2013-05-17 22:11:00,55.8,48.0,29.82,East,90,2.9,10.1,75,0.00,,---,0.17,VWS V14.01,2013-05-18 05:11:00,
2013-05-17 22:12:00,55.8,48.0,29.82,NNE,22,3.4,10.1,75,0.00,,---,0.17,VWS V14.01,2013-05-18 05:12:00,
2013-05-17 22:13:00,55.8,48.0,29.82,NNE,22,1.6,3.4,75,0.00,,---,0.17,VWS V14.01,2013-05-18 05:13:00,
2013-05-17 22:14:00,55.8,48.0,29.82,SE,135,0.0,1.6,75,0.00,,---,0.17,VWS V14.01,2013-05-18 05:14:00,
2013-05-17 22:15:00,55.8,48.0,29.82,ESE,112,4.0,4.0,75,0.00,,---,0.17,VWS V14.01,2013-05-18 05:15:00,
2013-05-17 22:16:00,55.8,48.0,29.82,NE,45,4.7,4.7,75,0.00,,---,0.17,VWS V14.01,2013-05-18 05:16:00,
2013-05-17 22:17:00,55.8,48.0,29.82,SSE,158,2.0,4.7,75,0.00,,---,0.17,VWS V14.01,2013-05-18 05:17:00,
2013-05-17 22:18:00,55.8,48.0,29.82,SE,135,2.9,2.9,75,0.00,,---,0.17,VWS V14.01,2013-05-18 05:18:00,
2013-05-17 22:19:00,55.8,48.0,29.82,SSE,158,1.1,2.9,75,0.00,,---,0.17,VWS V14.01,2013-05-18 05:19:00,
2013-05-17 22:20:00,55.8,48.0,29.82,SSE,158,3.1,3.1,75,0.00,,---,0.17,VWS V14.01,2013-05-18 05:20:00,
2013-05-17 22:21:00,55.8,48.0,29.82,NNE,22,1.3,5.4,75,0.00,,---,0.17,VWS V14.01,2013-05-18 05:21:00,
2013-05-17 22:22:00,55.8,48.0,29.82,SSE,158,2.2,5.4,75,0.00,,---,0.17,VWS V14.01,2013-05-18 05:22:00,
2013-05-17 22:23:00,55.8,48.0,29.82,SE,135,2.9,4.0,75,0.00,,---,0.17,VWS V14.01,2013-05-18 05:23:00,
2013-05-17 22:24:00,55.8,48.0,29.82,SSE,158,2.0,2.9,75,0.00,,---,0.17,VWS V14.01,2013-05-18 05:24:00,
2013-05-17 22:25:00,55.8,48.0,29.82,SSW,202,2.7,3.1,75,0.00,,---,0.17,VWS V14.01,2013-05-18 05:25:00,
2013-05-17 22:26:00,55.8,48.0,29.82,SSE,158,3.6,3.6,75,0.00,,---,0.17,VWS V14.01,2013-05-18 05:26:00,
2013-05-17 22:27:00,55.8,48.0,29.82,ESE,112,3.4,4.0,75,0.00,,---,0.17,VWS V14.01,2013-05-18 05:27:00,
2013-05-17 22:28:00,55.8,48.0,29.82,ESE,112,2.0,3.4,75,0.00,,---,0.17,VWS V14.01,2013-05-18 05:28:00,
2013-05-17 22:29:00,55.8,48.0,29.82,ENE,68,2.5,2.9,75,0.00,,---,0.17,VWS V14.01,2013-05-18 05:29:00,
2013-05-17 22:30:00,55.8,48.0,29.82,SSE,158,1.6,2.9,75,0.00,,---,0.17,VWS V14.01,2013-05-18 05:30:00,
2013-05-17 22:31:00,55.8,48.0,29.82,ESE,112,2.9,4.0,75,0.00,,---,0.17,VWS V14.01,2013-05-18 05:31:00,
2013-05-17 22:32:00,55.8,48.0,29.82,SSE,158,2.5,4.0,75,0.00,,---,0.17,VWS V14.01,2013-05-18 05:32:00,
2013-05-17 22:33:00,55.6,47.8,29.82,ESE,112,2.5,3.1,75,0.00,,---,0.17,VWS V14.01,2013-05-18 05:33:00,
2013-05-17 22:34:00,55.6,47.8,29.82,ESE,112,1.3,3.1,75,0.00,,---,0.17,VWS V14.01,2013-05-18 05:34:00,
2013-05-17 22:35:00,55.6,47.8,29.82,ESE,112,1.1,4.0,75,0.00,,---,0.17,VWS V14.01,2013-05-18 05:35:00,
2013-05-17 22:36:00,55.6,47.8,29.82,NE,45,2.5,4.9,75,0.00,,---,0.17,VWS V14.01,2013-05-18 05:36:00,
2013-05-17 22:37:00,55.6,47.8,29.82,SSE,158,1.3,4.9,75,0.00,,---,0.17,VWS V14.01,2013-05-18 05:37:00,
2013-05-17 22:38:00,55.6,47.8,29.82,SSW,202,1.6,2.0,75,0.00,,---,0.17,VWS V14.01,2013-05-18 05:38:00,
2013-05-17 22:39:00,55.6,47.8,29.82,ENE,68,1.1,3.4,75,0.00,,---,0.17,VWS V14.01,2013-05-18 05:39:00,
2013-05-17 22:40:00,55.6,47.8,29.82,SSW,202,1.1,3.4,75,0.00,,---,0.17,VWS V14.01,2013-05-18 05:40:00,
2013-05-17 22:41:00,55.6,47.8,29.82,ENE,68,2.9,2.9,75,0.00,,---,0.17,VWS V14.01,2013-05-18 05:41:00,
2013-05-17 22:42:00,55.6,47.8,29.82,ESE,112,2.5,2.9,75,0.00,,---,0.17,VWS V14.01,2013-05-18 05:42:00,
2013-05-17 22:43:00,55.6,47.8,29.82,SSE,158,3.8,3.8,75,0.00,,---,0.17,VWS V14.01,2013-05-18 05:43:00,
2013-05-17 22:44:00,55.6,47.8,29.82,SE,135,1.1,3.8,75,0.00,,---,0.17,VWS V14.01,2013-05-18 05:44:00,
2013-05-17 22:45:00,55.6,47.8,29.82,SE,135,1.6,2.2,75,0.00,,---,0.17,VWS V14.01,2013-05-18 05:45:00,
2013-05-17 22:46:00,55.4,47.6,29.85,East,90,1.6,2.5,75,0.00,,---,0.17,VWS V14.01,2013-05-18 05:46:00,
2013-05-17 22:47:00,55.4,47.6,29.85,East,90,1.1,2.5,75,0.00,,---,0.17,VWS V14.01,2013-05-18 05:47:00,
2013-05-17 22:48:00,55.4,47.6,29.85,NE,45,1.1,2.5,75,0.00,,---,0.17,VWS V14.01,2013-05-18 05:48:00,
2013-05-17 22:49:00,55.4,47.6,29.85,NNE,22,2.7,4.0,75,0.00,,---,0.17,VWS V14.01,2013-05-18 05:49:00,
2013-05-17 22:50:00,55.4,47.6,29.85,ENE,68,2.2,4.3,75,0.00,,---,0.17,VWS V14.01,2013-05-18 05:50:00,
2013-05-17 22:51:00,55.4,47.6,29.85,NNE,22,4.3,4.3,75,0.00,,---,0.17,VWS V14.01,2013-05-18 05:51:00,
2013-05-17 22:52:00,55.4,47.6,29.85,East,90,1.3,4.3,75,0.00,,---,0.17,VWS V14.01,2013-05-18 05:52:00,
2013-05-17 22:53:00,55.4,47.3,29.85,South,180,2.5,3.6,74,0.00,,---,0.17,VWS V14.01,2013-05-18 05:53:00,
2013-05-17 22:54:00,55.4,47.3,29.85,ENE,68,3.1,3.6,74,0.00,,---,0.17,VWS V14.01,2013-05-18 05:54:00,
2013-05-17 22:55:00,55.4,47.3,29.85,ESE,112,2.9,4.3,74,0.00,,---,0.17,VWS V14.01,2013-05-18 05:55:00,
2013-05-17 22:56:00,55.4,47.3,29.85,SSE,158,0.9,2.2,74,0.00,,---,0.17,VWS V14.01,2013-05-18 05:56:00,
2013-05-17 22:57:00,55.4,47.3,29.85,ESE,112,3.1,3.1,74,0.00,,---,0.17,VWS V14.01,2013-05-18 05:57:00,
2013-05-17 22:58:00,55.2,47.4,29.85,ENE,68,1.6,3.1,75,0.00,,---,0.17,VWS V14.01,2013-05-18 05:58:00,
2013-05-17 22:59:00,55.2,47.4,29.85,SSE,158,2.9,2.9,75,0.00,,---,0.17,VWS V14.01,2013-05-18 05:59:00,
2013-05-17 23:00:00,55.2,47.1,29.85,SSE,158,1.6,2.9,74,0.00,,---,0.17,VWS V14.01,2013-05-18 06:00:00,
2013-05-17 23:01:00,55.2,47.1,29.85,East,90,2.7,2.7,74,0.00,,---,0.17,VWS V14.01,2013-05-18 06:01:00,
2013-05-17 23:02:00,55.2,47.1,29.85,SSE,158,3.1,3.1,74,0.00,,---,0.17,VWS V14.01,2013-05-18 06:02:00,
2013-05-17 23:03:00,55.2,47.1,29.85,South,180,5.6,5.6,74,0.00,,---,0.17,VWS V14.01,2013-05-18 06:03:00,
2013-05-17 23:04:00,55.2,47.1,29.85,SW,225,2.2,5.6,74,0.00,,---,0.17,VWS V14.01,2013-05-18 06:04:00,
2013-05-17 23:05:00,55.2,47.1,29.85,ESE,112,1.6,2.7,74,0.00,,---,0.17,VWS V14.01,2013-05-18 06:05:00,
2013-05-17 23:06:00,55.2,47.1,29.85,SE,135,1.3,2.7,74,0.00,,---,0.17,VWS V14.01,2013-05-18 06:06:00,
2013-05-17 23:07:00,55.2,47.1,29.85,South,180,2.0,2.9,74,0.00,,---,0.17,VWS V14.01,2013-05-18 06:07:00,
2013-05-17 23:08:00,55.2,47.1,29.85,SSE,158,0.0,2.0,74,0.00,,---,0.17,VWS V14.01,2013-05-18 06:08:00,
2013-05-17 23:09:00,55.0,46.9,29.85,ESE,112,1.6,2.5,74,0.00,,---,0.17,VWS V14.01,2013-05-18 06:09:00,
2013-05-17 23:10:00,55.0,46.9,29.85,NE,45,2.7,4.9,74,0.00,,---,0.17,VWS V14.01,2013-05-18 06:10:00,
2013-05-17 23:11:00,55.0,47.3,29.85,ESE,112,1.1,1.1,75,0.00,,---,0.17,VWS V14.01,2013-05-18 06:11:00,
2013-05-17 23:12:00,55.0,47.3,29.85,NNE,22,2.9,2.9,75,0.00,,---,0.17,VWS V14.01,2013-05-18 06:12:00,
2013-05-17 23:13:00,55.0,46.9,29.85,SE,135,2.7,2.9,74,0.00,,---,0.17,VWS V14.01,2013-05-18 06:13:00,
2013-05-17 23:14:00,55.0,46.9,29.85,SE,135,2.0,3.8,74,0.00,,---,0.17,VWS V14.01,2013-05-18 06:14:00,
2013-05-17 23:15:00,55.0,46.9,29.85,ESE,112,1.3,2.7,74,0.00,,---,0.17,VWS V14.01,2013-05-18 06:15:00,
2013-05-17 23:16:00,55.0,46.9,29.85,ESE,112,1.6,2.5,74,0.00,,---,0.17,VWS V14.01,2013-05-18 06:16:00,
2013-05-17 23:17:00,55.0,46.9,29.85,SSE,158,3.6,3.6,74,0.00,,---,0.17,VWS V14.01,2013-05-18 06:17:00,
2013-05-17 23:18:00,55.0,46.9,29.85,SSE,158,0.9,3.6,74,0.00,,---,0.17,VWS V14.01,2013-05-18 06:18:00,
2013-05-17 23:19:00,55.0,46.9,29.85,ESE,112,1.6,2.5,74,0.00,,---,0.17,VWS V14.01,2013-05-18 06:19:00,
2013-05-17 23:20:00,55.0,46.9,29.85,SE,135,3.8,4.5,74,0.00,,---,0.17,VWS V14.01,2013-05-18 06:20:00,
2013-05-17 23:21:00,55.0,46.9,29.85,NNE,22,1.1,4.7,74,0.00,,---,0.17,VWS V14.01,2013-05-18 06:21:00,
2013-05-17 23:22:00,55.0,46.9,29.85,SSE,158,2.2,4.7,74,0.00,,---,0.17,VWS V14.01,2013-05-18 06:22:00,
2013-05-17 23:23:00,55.0,46.9,29.85,ESE,112,1.3,6.0,74,0.00,,---,0.17,VWS V14.01,2013-05-18 06:23:00,
2013-05-17 23:24:00,55.0,46.9,29.85,ESE,112,3.1,7.4,74,0.00,,---,0.17,VWS V14.01,2013-05-18 06:24:00,
2013-05-17 23:25:00,55.0,46.9,29.85,ESE,112,2.2,3.1,74,0.00,,---,0.17,VWS V14.01,2013-05-18 06:25:00,
2013-05-17 23:26:00,54.9,46.7,29.85,East,90,0.9,2.2,74,0.00,,---,0.17,VWS V14.01,2013-05-18 06:26:00,
2013-05-17 23:27:00,54.9,46.7,29.85,ENE,68,1.3,2.2,74,0.00,,---,0.17,VWS V14.01,2013-05-18 06:27:00,
2013-05-17 23:28:00,54.9,46.7,29.85,South,180,2.5,2.5,74,0.00,,---,0.17,VWS V14.01,2013-05-18 06:28:00,
2013-05-17 23:29:00,54.9,46.7,29.85,SSE,158,0.0,2.5,74,0.00,,---,0.17,VWS V14.01,2013-05-18 06:29:00,
2013-05-17 23:30:00,54.9,46.7,29.85,ESE,112,0.0,1.1,74,0.00,,---,0.17,VWS V14.01,2013-05-18 06:30:00,
2013-05-17 23:31:00,54.9,46.7,29.85,South,180,1.3,1.6,74,0.00,,---,0.17,VWS V14.01,2013-05-18 06:31:00,
2013-05-17 23:32:00,54.9,46.7,29.85,ESE,112,2.0,3.4,74,0.00,,---,0.17,VWS V14.01,2013-05-18 06:32:00,
2013-05-17 23:33:00,54.9,46.7,29.85,East,90,0.9,2.0,74,0.00,,---,0.17,VWS V14.01,2013-05-18 06:33:00,
2013-05-17 23:34:00,54.9,46.7,29.85,South,180,1.3,1.3,74,0.00,,---,0.17,VWS V14.01,2013-05-18 06:34:00,
2013-05-17 23:35:00,54.9,46.7,29.85,ESE,112,2.9,2.9,74,0.00,,---,0.17,VWS V14.01,2013-05-18 06:35:00,
2013-05-17 23:36:00,54.9,47.1,29.85,SE,135,2.5,2.5,75,0.00,,---,0.17,VWS V14.01,2013-05-18 06:36:00,
2013-05-17 23:37:00,54.9,47.1,29.85,East,90,2.2,3.4,75,0.00,,---,0.17,VWS V14.01,2013-05-18 06:37:00,
2013-05-17 23:38:00,54.7,46.9,29.85,ESE,112,2.2,2.2,75,0.00,,---,0.17,VWS V14.01,2013-05-18 06:38:00,
2013-05-17 23:39:00,54.7,46.9,29.85,SE,135,0.9,4.0,75,0.00,,---,0.17,VWS V14.01,2013-05-18 06:39:00,
2013-05-17 23:40:00,54.7,46.9,29.85,SSE,158,1.3,2.5,75,0.00,,---,0.17,VWS V14.01,2013-05-18 06:40:00,
2013-05-17 23:41:00,54.7,46.9,29.85,ESE,112,2.5,2.7,75,0.00,,---,0.17,VWS V14.01,2013-05-18 06:41:00,
2013-05-17 23:42:00,54.7,46.9,29.85,SSE,158,3.8,3.8,75,0.00,,---,0.17,VWS V14.01,2013-05-18 06:42:00,
2013-05-17 23:43:00,54.7,46.9,29.85,ESE,112,1.6,3.8,75,0.00,,---,0.17,VWS V14.01,2013-05-18 06:43:00,
2013-05-17 23:44:00,54.7,46.9,29.85,SE,135,1.1,2.5,75,0.00,,---,0.17,VWS V14.01,2013-05-18 06:44:00,
2013-05-17 23:45:00,54.7,46.9,29.85,East,90,3.8,3.8,75,0.00,,---,0.17,VWS V14.01,2013-05-18 06:45:00,
2013-05-17 23:46:00,54.7,46.9,29.85,ENE,68,2.0,2.2,75,0.00,,---,0.17,VWS V14.01,2013-05-18 06:46:00,
2013-05-17 23:47:00,54.7,46.9,29.85,SE,135,1.3,2.2,75,0.00,,---,0.17,VWS V14.01,2013-05-18 06:47:00,
2013-05-17 23:48:00,54.7,46.9,29.85,SSE,158,2.5,2.5,75,0.00,,---,0.17,VWS V14.01,2013-05-18 06:48:00,
2013-05-17 23:49:00,54.7,46.9,29.85,ENE,68,2.0,2.5,75,0.00,,---,0.17,VWS V14.01,2013-05-18 06:49:00,
2013-05-17 23:50:00,54.7,46.9,29.85,SE,135,2.9,4.0,75,0.00,,---,0.17,VWS V14.01,2013-05-18 06:50:00,
2013-05-17 23:51:00,54.7,46.6,29.85,ESE,112,2.5,3.1,74,0.00,,---,0.17,VWS V14.01,2013-05-18 06:51:00,
2013-05-17 23:52:00,54.7,46.6,29.85,NNE,22,2.5,3.1,74,0.00,,---,0.17,VWS V14.01,2013-05-18 06:52:00,
2013-05-17 23:53:00,54.7,46.6,29.85,SE,135,2.9,2.9,74,0.00,,---,0.17,VWS V14.01,2013-05-18 06:53:00,
2013-05-17 23:54:00,54.5,46.4,29.85,ESE,112,3.1,3.1,74,0.00,,---,0.17,VWS V14.01,2013-05-18 06:54:00,
2013-05-17 23:55:00,54.5,46.4,29.85,East,90,3.8,4.3,74,0.00,,---,0.17,VWS V14.01,2013-05-18 06:55:00,
2013-05-17 23:56:00,54.5,46.4,29.85,SE,135,3.8,3.8,74,0.00,,---,0.17,VWS V14.01,2013-05-18 06:56:00,
2013-05-17 23:57:00,54.5,46.4,29.85,SE,135,2.0,3.8,74,0.00,,---,0.17,VWS V14.01,2013-05-18 06:57:00,
2013-05-17 23:58:00,54.5,46.4,29.85,SSE,158,0.0,2.0,74,0.00,,---,0.17,VWS V14.01,2013-05-18 06:58:00,
2013-05-17 23:59:00,54.5,46.4,29.85,SSE,158,1.3,2.0,74,0.00,,---,0.17,VWS V14.01,2013-05-18 06:59:00,